<?xml version="1.0" encoding="UTF-8" standalone="no" ?>
<gpx xmlns="http://www.topografix.com/GPX/1/1" xmlns:xsi="http://www.w3.org/2001/XMLSchema-instance" xsi:schemaLocation="http://www.topografix.com/GPX/1/1 http://www.topografix.com/GPX/1/1/gpx.xsd" version="1.1" creator="VisuGPX - https://www.visugpx.com">
  <metadata>
    <name>Jour 25 - Le Chemin Sauvage</name>
  </metadata>
  <trk>
    <name><![CDATA[2026-05-26 13:59:24]]></name>
    <trkseg>
      <trkpt lat="43.6669" lon="1.55454">
        <ele>233.74</ele>
        <time>2026-05-26T06:02:31Z</time>
      </trkpt>
      <trkpt lat="43.66689" lon="1.55455">
        <ele>233.74</ele>
        <time>2026-05-26T06:02:33Z</time>
      </trkpt>
      <trkpt lat="43.6669" lon="1.55454">
        <ele>232.3</ele>
        <time>2026-05-26T06:02:59Z</time>
      </trkpt>
      <trkpt lat="43.66693" lon="1.55453">
        <ele>232.3</ele>
        <time>2026-05-26T06:03:14Z</time>
      </trkpt>
      <trkpt lat="43.66693" lon="1.55451">
        <ele>232.3</ele>
        <time>2026-05-26T06:03:36Z</time>
      </trkpt>
      <trkpt lat="43.66693" lon="1.55452">
        <ele>232.3</ele>
        <time>2026-05-26T06:03:38Z</time>
      </trkpt>
      <trkpt lat="43.66696" lon="1.55446">
        <ele>232.3</ele>
        <time>2026-05-26T06:03:42Z</time>
      </trkpt>
      <trkpt lat="43.66698" lon="1.55441">
        <ele>232.3</ele>
        <time>2026-05-26T06:03:45Z</time>
      </trkpt>
      <trkpt lat="43.66697" lon="1.55427">
        <ele>232.3</ele>
        <time>2026-05-26T06:03:53Z</time>
      </trkpt>
      <trkpt lat="43.66696" lon="1.55424">
        <ele>233.74</ele>
        <time>2026-05-26T06:03:55Z</time>
      </trkpt>
      <trkpt lat="43.66696" lon="1.55415">
        <ele>234.22</ele>
        <time>2026-05-26T06:04:01Z</time>
      </trkpt>
      <trkpt lat="43.66696" lon="1.55387">
        <ele>234.22</ele>
        <time>2026-05-26T06:04:16Z</time>
      </trkpt>
      <trkpt lat="43.66694" lon="1.55381">
        <ele>232.78</ele>
        <time>2026-05-26T06:04:21Z</time>
      </trkpt>
      <trkpt lat="43.66689" lon="1.55355">
        <ele>232.78</ele>
        <time>2026-05-26T06:04:36Z</time>
      </trkpt>
      <trkpt lat="43.66687" lon="1.55328">
        <ele>232.3</ele>
        <time>2026-05-26T06:04:50Z</time>
      </trkpt>
      <trkpt lat="43.66688" lon="1.55298">
        <ele>231.81</ele>
        <time>2026-05-26T06:05:04Z</time>
      </trkpt>
      <trkpt lat="43.66684" lon="1.55281">
        <ele>231.33</ele>
        <time>2026-05-26T06:05:15Z</time>
      </trkpt>
      <trkpt lat="43.66673" lon="1.55253">
        <ele>230.37</ele>
        <time>2026-05-26T06:05:31Z</time>
      </trkpt>
      <trkpt lat="43.66669" lon="1.55248">
        <ele>230.37</ele>
        <time>2026-05-26T06:05:43Z</time>
      </trkpt>
      <trkpt lat="43.66661" lon="1.55243">
        <ele>229.89</ele>
        <time>2026-05-26T06:05:49Z</time>
      </trkpt>
      <trkpt lat="43.66657" lon="1.55235">
        <ele>229.89</ele>
        <time>2026-05-26T06:05:55Z</time>
      </trkpt>
      <trkpt lat="43.66651" lon="1.55229">
        <ele>229.89</ele>
        <time>2026-05-26T06:06:00Z</time>
      </trkpt>
      <trkpt lat="43.66641" lon="1.55219">
        <ele>229.41</ele>
        <time>2026-05-26T06:06:13Z</time>
      </trkpt>
      <trkpt lat="43.66637" lon="1.55214">
        <ele>229.41</ele>
        <time>2026-05-26T06:06:24Z</time>
      </trkpt>
      <trkpt lat="43.66635" lon="1.55211">
        <ele>229.41</ele>
        <time>2026-05-26T06:06:27Z</time>
      </trkpt>
      <trkpt lat="43.66624" lon="1.55203">
        <ele>229.41</ele>
        <time>2026-05-26T06:06:40Z</time>
      </trkpt>
      <trkpt lat="43.66606" lon="1.55185">
        <ele>228.93</ele>
        <time>2026-05-26T06:06:56Z</time>
      </trkpt>
      <trkpt lat="43.66598" lon="1.55181">
        <ele>228.93</ele>
        <time>2026-05-26T06:07:02Z</time>
      </trkpt>
      <trkpt lat="43.66589" lon="1.5517">
        <ele>228.93</ele>
        <time>2026-05-26T06:07:12Z</time>
      </trkpt>
      <trkpt lat="43.66586" lon="1.55168">
        <ele>228.93</ele>
        <time>2026-05-26T06:07:19Z</time>
      </trkpt>
      <trkpt lat="43.66581" lon="1.55163">
        <ele>228.93</ele>
        <time>2026-05-26T06:07:23Z</time>
      </trkpt>
      <trkpt lat="43.66572" lon="1.55155">
        <ele>228.93</ele>
        <time>2026-05-26T06:07:32Z</time>
      </trkpt>
      <trkpt lat="43.66568" lon="1.55151">
        <ele>228.93</ele>
        <time>2026-05-26T06:07:36Z</time>
      </trkpt>
      <trkpt lat="43.66544" lon="1.55133">
        <ele>228.45</ele>
        <time>2026-05-26T06:07:55Z</time>
      </trkpt>
      <trkpt lat="43.66516" lon="1.55122">
        <ele>228.45</ele>
        <time>2026-05-26T06:08:12Z</time>
      </trkpt>
      <trkpt lat="43.665" lon="1.55112">
        <ele>227.49</ele>
        <time>2026-05-26T06:08:25Z</time>
      </trkpt>
      <trkpt lat="43.66488" lon="1.55106">
        <ele>227.01</ele>
        <time>2026-05-26T06:08:43Z</time>
      </trkpt>
      <trkpt lat="43.66468" lon="1.55098">
        <ele>226.53</ele>
        <time>2026-05-26T06:08:58Z</time>
      </trkpt>
      <trkpt lat="43.66466" lon="1.55097">
        <ele>226.53</ele>
        <time>2026-05-26T06:08:59Z</time>
      </trkpt>
      <trkpt lat="43.66439" lon="1.55088">
        <ele>225.09</ele>
        <time>2026-05-26T06:09:15Z</time>
      </trkpt>
      <trkpt lat="43.6642" lon="1.55081">
        <ele>224.12</ele>
        <time>2026-05-26T06:09:31Z</time>
      </trkpt>
      <trkpt lat="43.66391" lon="1.55071">
        <ele>222.68</ele>
        <time>2026-05-26T06:09:50Z</time>
      </trkpt>
      <trkpt lat="43.6636" lon="1.55063">
        <ele>221.24</ele>
        <time>2026-05-26T06:10:10Z</time>
      </trkpt>
      <trkpt lat="43.66328" lon="1.55054">
        <ele>219.32</ele>
        <time>2026-05-26T06:10:33Z</time>
      </trkpt>
      <trkpt lat="43.66291" lon="1.55042">
        <ele>217.4</ele>
        <time>2026-05-26T06:10:58Z</time>
      </trkpt>
      <trkpt lat="43.66286" lon="1.55042">
        <ele>217.4</ele>
        <time>2026-05-26T06:11:21Z</time>
      </trkpt>
      <trkpt lat="43.66257" lon="1.55028">
        <ele>217.4</ele>
        <time>2026-05-26T06:11:44Z</time>
      </trkpt>
      <trkpt lat="43.6625" lon="1.55025">
        <ele>215.95</ele>
        <time>2026-05-26T06:11:51Z</time>
      </trkpt>
      <trkpt lat="43.66233" lon="1.55013">
        <ele>215.47</ele>
        <time>2026-05-26T06:12:05Z</time>
      </trkpt>
      <trkpt lat="43.66228" lon="1.5501">
        <ele>215.47</ele>
        <time>2026-05-26T06:12:10Z</time>
      </trkpt>
      <trkpt lat="43.66227" lon="1.5501">
        <ele>215.47</ele>
        <time>2026-05-26T06:12:11Z</time>
      </trkpt>
      <trkpt lat="43.6621" lon="1.54996">
        <ele>214.99</ele>
        <time>2026-05-26T06:12:27Z</time>
      </trkpt>
      <trkpt lat="43.66205" lon="1.54991">
        <ele>214.99</ele>
        <time>2026-05-26T06:12:31Z</time>
      </trkpt>
      <trkpt lat="43.66204" lon="1.54989">
        <ele>214.51</ele>
        <time>2026-05-26T06:12:32Z</time>
      </trkpt>
      <trkpt lat="43.66202" lon="1.54988">
        <ele>214.51</ele>
        <time>2026-05-26T06:12:33Z</time>
      </trkpt>
      <trkpt lat="43.66201" lon="1.54986">
        <ele>214.51</ele>
        <time>2026-05-26T06:12:34Z</time>
      </trkpt>
      <trkpt lat="43.66199" lon="1.54985">
        <ele>214.51</ele>
        <time>2026-05-26T06:12:35Z</time>
      </trkpt>
      <trkpt lat="43.66177" lon="1.54962">
        <ele>214.03</ele>
        <time>2026-05-26T06:12:53Z</time>
      </trkpt>
      <trkpt lat="43.66163" lon="1.5494">
        <ele>213.55</ele>
        <time>2026-05-26T06:13:06Z</time>
      </trkpt>
      <trkpt lat="43.66159" lon="1.54935">
        <ele>213.55</ele>
        <time>2026-05-26T06:13:25Z</time>
      </trkpt>
      <trkpt lat="43.66158" lon="1.54934">
        <ele>213.55</ele>
        <time>2026-05-26T06:13:27Z</time>
      </trkpt>
      <trkpt lat="43.66156" lon="1.54933">
        <ele>213.07</ele>
        <time>2026-05-26T06:13:28Z</time>
      </trkpt>
      <trkpt lat="43.66153" lon="1.54931">
        <ele>213.07</ele>
        <time>2026-05-26T06:13:30Z</time>
      </trkpt>
      <trkpt lat="43.66152" lon="1.54929">
        <ele>213.07</ele>
        <time>2026-05-26T06:13:31Z</time>
      </trkpt>
      <trkpt lat="43.66137" lon="1.54913">
        <ele>212.59</ele>
        <time>2026-05-26T06:13:48Z</time>
      </trkpt>
      <trkpt lat="43.66114" lon="1.54891">
        <ele>211.63</ele>
        <time>2026-05-26T06:14:07Z</time>
      </trkpt>
      <trkpt lat="43.66091" lon="1.54876">
        <ele>211.15</ele>
        <time>2026-05-26T06:14:25Z</time>
      </trkpt>
      <trkpt lat="43.6609" lon="1.54875">
        <ele>211.15</ele>
        <time>2026-05-26T06:14:26Z</time>
      </trkpt>
      <trkpt lat="43.66089" lon="1.54873">
        <ele>211.15</ele>
        <time>2026-05-26T06:14:27Z</time>
      </trkpt>
      <trkpt lat="43.66067" lon="1.54857">
        <ele>210.19</ele>
        <time>2026-05-26T06:14:43Z</time>
      </trkpt>
      <trkpt lat="43.66042" lon="1.54839">
        <ele>209.22</ele>
        <time>2026-05-26T06:15:02Z</time>
      </trkpt>
      <trkpt lat="43.66022" lon="1.54822">
        <ele>209.22</ele>
        <time>2026-05-26T06:15:20Z</time>
      </trkpt>
      <trkpt lat="43.66012" lon="1.54815">
        <ele>208.74</ele>
        <time>2026-05-26T06:15:29Z</time>
      </trkpt>
      <trkpt lat="43.65985" lon="1.54793">
        <ele>208.74</ele>
        <time>2026-05-26T06:15:47Z</time>
      </trkpt>
      <trkpt lat="43.65966" lon="1.54767">
        <ele>208.26</ele>
        <time>2026-05-26T06:16:07Z</time>
      </trkpt>
      <trkpt lat="43.65951" lon="1.54749">
        <ele>209.7</ele>
        <time>2026-05-26T06:16:21Z</time>
      </trkpt>
      <trkpt lat="43.65935" lon="1.54724">
        <ele>210.67</ele>
        <time>2026-05-26T06:16:41Z</time>
      </trkpt>
      <trkpt lat="43.65927" lon="1.54699">
        <ele>211.63</ele>
        <time>2026-05-26T06:16:57Z</time>
      </trkpt>
      <trkpt lat="43.65913" lon="1.54666">
        <ele>213.07</ele>
        <time>2026-05-26T06:17:18Z</time>
      </trkpt>
      <trkpt lat="43.65903" lon="1.54638">
        <ele>214.03</ele>
        <time>2026-05-26T06:17:35Z</time>
      </trkpt>
      <trkpt lat="43.65894" lon="1.54614">
        <ele>214.99</ele>
        <time>2026-05-26T06:17:50Z</time>
      </trkpt>
      <trkpt lat="43.65887" lon="1.54607">
        <ele>215.95</ele>
        <time>2026-05-26T06:18:02Z</time>
      </trkpt>
      <trkpt lat="43.65872" lon="1.54592">
        <ele>216.91</ele>
        <time>2026-05-26T06:18:19Z</time>
      </trkpt>
      <trkpt lat="43.65869" lon="1.54591">
        <ele>216.91</ele>
        <time>2026-05-26T06:18:22Z</time>
      </trkpt>
      <trkpt lat="43.65854" lon="1.54574">
        <ele>216.91</ele>
        <time>2026-05-26T06:18:38Z</time>
      </trkpt>
      <trkpt lat="43.65853" lon="1.54572">
        <ele>216.91</ele>
        <time>2026-05-26T06:18:39Z</time>
      </trkpt>
      <trkpt lat="43.65853" lon="1.54566">
        <ele>216.91</ele>
        <time>2026-05-26T06:18:43Z</time>
      </trkpt>
      <trkpt lat="43.65852" lon="1.54557">
        <ele>216.91</ele>
        <time>2026-05-26T06:18:48Z</time>
      </trkpt>
      <trkpt lat="43.65845" lon="1.54557">
        <ele>217.4</ele>
        <time>2026-05-26T06:18:55Z</time>
      </trkpt>
      <trkpt lat="43.65842" lon="1.54563">
        <ele>217.4</ele>
        <time>2026-05-26T06:19:00Z</time>
      </trkpt>
      <trkpt lat="43.65837" lon="1.54569">
        <ele>217.88</ele>
        <time>2026-05-26T06:19:05Z</time>
      </trkpt>
      <trkpt lat="43.65833" lon="1.54572">
        <ele>216.43</ele>
        <time>2026-05-26T06:19:08Z</time>
      </trkpt>
      <trkpt lat="43.65817" lon="1.54563">
        <ele>216.43</ele>
        <time>2026-05-26T06:19:23Z</time>
      </trkpt>
      <trkpt lat="43.65802" lon="1.54554">
        <ele>215.95</ele>
        <time>2026-05-26T06:19:38Z</time>
      </trkpt>
      <trkpt lat="43.65787" lon="1.5454">
        <ele>215.47</ele>
        <time>2026-05-26T06:19:57Z</time>
      </trkpt>
      <trkpt lat="43.65774" lon="1.54515">
        <ele>214.51</ele>
        <time>2026-05-26T06:20:14Z</time>
      </trkpt>
      <trkpt lat="43.65769" lon="1.54509">
        <ele>214.03</ele>
        <time>2026-05-26T06:20:20Z</time>
      </trkpt>
      <trkpt lat="43.65753" lon="1.54485">
        <ele>212.11</ele>
        <time>2026-05-26T06:20:37Z</time>
      </trkpt>
      <trkpt lat="43.65732" lon="1.54451">
        <ele>210.19</ele>
        <time>2026-05-26T06:20:58Z</time>
      </trkpt>
      <trkpt lat="43.65718" lon="1.54428">
        <ele>208.74</ele>
        <time>2026-05-26T06:21:14Z</time>
      </trkpt>
      <trkpt lat="43.65701" lon="1.54396">
        <ele>206.34</ele>
        <time>2026-05-26T06:21:34Z</time>
      </trkpt>
      <trkpt lat="43.65683" lon="1.54365">
        <ele>205.86</ele>
        <time>2026-05-26T06:21:53Z</time>
      </trkpt>
      <trkpt lat="43.6568" lon="1.54348">
        <ele>205.86</ele>
        <time>2026-05-26T06:22:05Z</time>
      </trkpt>
      <trkpt lat="43.65677" lon="1.54339">
        <ele>205.86</ele>
        <time>2026-05-26T06:22:11Z</time>
      </trkpt>
      <trkpt lat="43.65663" lon="1.54302">
        <ele>205.86</ele>
        <time>2026-05-26T06:22:31Z</time>
      </trkpt>
      <trkpt lat="43.65661" lon="1.54293">
        <ele>205.38</ele>
        <time>2026-05-26T06:22:37Z</time>
      </trkpt>
      <trkpt lat="43.6566" lon="1.54291">
        <ele>204.9</ele>
        <time>2026-05-26T06:22:39Z</time>
      </trkpt>
      <trkpt lat="43.65657" lon="1.54282">
        <ele>204.9</ele>
        <time>2026-05-26T06:22:47Z</time>
      </trkpt>
      <trkpt lat="43.65657" lon="1.54281">
        <ele>204.9</ele>
        <time>2026-05-26T06:22:48Z</time>
      </trkpt>
      <trkpt lat="43.65653" lon="1.54261">
        <ele>204.42</ele>
        <time>2026-05-26T06:23:02Z</time>
      </trkpt>
      <trkpt lat="43.65653" lon="1.5426">
        <ele>204.42</ele>
        <time>2026-05-26T06:23:03Z</time>
      </trkpt>
      <trkpt lat="43.65652" lon="1.54258">
        <ele>204.42</ele>
        <time>2026-05-26T06:23:04Z</time>
      </trkpt>
      <trkpt lat="43.65652" lon="1.54256">
        <ele>204.42</ele>
        <time>2026-05-26T06:23:05Z</time>
      </trkpt>
      <trkpt lat="43.65651" lon="1.54254">
        <ele>204.42</ele>
        <time>2026-05-26T06:23:06Z</time>
      </trkpt>
      <trkpt lat="43.65645" lon="1.5423">
        <ele>204.42</ele>
        <time>2026-05-26T06:23:20Z</time>
      </trkpt>
      <trkpt lat="43.65635" lon="1.54204">
        <ele>205.38</ele>
        <time>2026-05-26T06:23:36Z</time>
      </trkpt>
      <trkpt lat="43.65628" lon="1.54175">
        <ele>206.34</ele>
        <time>2026-05-26T06:23:52Z</time>
      </trkpt>
      <trkpt lat="43.65621" lon="1.54145">
        <ele>206.82</ele>
        <time>2026-05-26T06:24:09Z</time>
      </trkpt>
      <trkpt lat="43.65611" lon="1.54112">
        <ele>206.34</ele>
        <time>2026-05-26T06:24:28Z</time>
      </trkpt>
      <trkpt lat="43.65607" lon="1.54095">
        <ele>205.38</ele>
        <time>2026-05-26T06:24:36Z</time>
      </trkpt>
      <trkpt lat="43.656" lon="1.54056">
        <ele>204.42</ele>
        <time>2026-05-26T06:24:57Z</time>
      </trkpt>
      <trkpt lat="43.65595" lon="1.54024">
        <ele>203.94</ele>
        <time>2026-05-26T06:25:15Z</time>
      </trkpt>
      <trkpt lat="43.65587" lon="1.53984">
        <ele>202.98</ele>
        <time>2026-05-26T06:25:36Z</time>
      </trkpt>
      <trkpt lat="43.65582" lon="1.53958">
        <ele>202.49</ele>
        <time>2026-05-26T06:25:54Z</time>
      </trkpt>
      <trkpt lat="43.65581" lon="1.53957">
        <ele>202.49</ele>
        <time>2026-05-26T06:26:03Z</time>
      </trkpt>
      <trkpt lat="43.6558" lon="1.5395">
        <ele>201.53</ele>
        <time>2026-05-26T06:26:08Z</time>
      </trkpt>
      <trkpt lat="43.65579" lon="1.53949">
        <ele>201.53</ele>
        <time>2026-05-26T06:26:09Z</time>
      </trkpt>
      <trkpt lat="43.65578" lon="1.53929">
        <ele>201.53</ele>
        <time>2026-05-26T06:26:22Z</time>
      </trkpt>
      <trkpt lat="43.65572" lon="1.53901">
        <ele>200.09</ele>
        <time>2026-05-26T06:26:37Z</time>
      </trkpt>
      <trkpt lat="43.65566" lon="1.53871">
        <ele>198.65</ele>
        <time>2026-05-26T06:26:53Z</time>
      </trkpt>
      <trkpt lat="43.65558" lon="1.53841">
        <ele>197.21</ele>
        <time>2026-05-26T06:27:10Z</time>
      </trkpt>
      <trkpt lat="43.65558" lon="1.53806">
        <ele>195.77</ele>
        <time>2026-05-26T06:27:27Z</time>
      </trkpt>
      <trkpt lat="43.65562" lon="1.53798">
        <ele>194.32</ele>
        <time>2026-05-26T06:27:34Z</time>
      </trkpt>
      <trkpt lat="43.65563" lon="1.53796">
        <ele>194.32</ele>
        <time>2026-05-26T06:27:35Z</time>
      </trkpt>
      <trkpt lat="43.65564" lon="1.53795">
        <ele>194.32</ele>
        <time>2026-05-26T06:27:36Z</time>
      </trkpt>
      <trkpt lat="43.65587" lon="1.53769">
        <ele>194.32</ele>
        <time>2026-05-26T06:27:55Z</time>
      </trkpt>
      <trkpt lat="43.65606" lon="1.53736">
        <ele>193.84</ele>
        <time>2026-05-26T06:28:16Z</time>
      </trkpt>
      <trkpt lat="43.65615" lon="1.53702">
        <ele>192.4</ele>
        <time>2026-05-26T06:28:36Z</time>
      </trkpt>
      <trkpt lat="43.65622" lon="1.53667">
        <ele>191.92</ele>
        <time>2026-05-26T06:28:55Z</time>
      </trkpt>
      <trkpt lat="43.6563" lon="1.53628">
        <ele>190.48</ele>
        <time>2026-05-26T06:29:15Z</time>
      </trkpt>
      <trkpt lat="43.65634" lon="1.536">
        <ele>188.56</ele>
        <time>2026-05-26T06:29:30Z</time>
      </trkpt>
      <trkpt lat="43.65638" lon="1.5357">
        <ele>186.15</ele>
        <time>2026-05-26T06:29:46Z</time>
      </trkpt>
      <trkpt lat="43.65642" lon="1.53545">
        <ele>184.23</ele>
        <time>2026-05-26T06:30:00Z</time>
      </trkpt>
      <trkpt lat="43.65643" lon="1.53519">
        <ele>182.79</ele>
        <time>2026-05-26T06:30:14Z</time>
      </trkpt>
      <trkpt lat="43.65647" lon="1.5349">
        <ele>180.87</ele>
        <time>2026-05-26T06:30:29Z</time>
      </trkpt>
      <trkpt lat="43.65647" lon="1.53468">
        <ele>179.42</ele>
        <time>2026-05-26T06:30:41Z</time>
      </trkpt>
      <trkpt lat="43.65649" lon="1.53462">
        <ele>178.94</ele>
        <time>2026-05-26T06:30:45Z</time>
      </trkpt>
      <trkpt lat="43.65651" lon="1.53433">
        <ele>176.54</ele>
        <time>2026-05-26T06:31:00Z</time>
      </trkpt>
      <trkpt lat="43.65653" lon="1.53407">
        <ele>174.14</ele>
        <time>2026-05-26T06:31:16Z</time>
      </trkpt>
      <trkpt lat="43.65653" lon="1.53403">
        <ele>174.14</ele>
        <time>2026-05-26T06:31:18Z</time>
      </trkpt>
      <trkpt lat="43.65654" lon="1.53401">
        <ele>174.14</ele>
        <time>2026-05-26T06:31:19Z</time>
      </trkpt>
      <trkpt lat="43.65654" lon="1.53365">
        <ele>170.77</ele>
        <time>2026-05-26T06:31:38Z</time>
      </trkpt>
      <trkpt lat="43.65661" lon="1.53332">
        <ele>168.37</ele>
        <time>2026-05-26T06:31:57Z</time>
      </trkpt>
      <trkpt lat="43.65665" lon="1.53301">
        <ele>166.45</ele>
        <time>2026-05-26T06:32:14Z</time>
      </trkpt>
      <trkpt lat="43.65667" lon="1.53277">
        <ele>165.48</ele>
        <time>2026-05-26T06:32:27Z</time>
      </trkpt>
      <trkpt lat="43.6567" lon="1.53252">
        <ele>165</ele>
        <time>2026-05-26T06:32:43Z</time>
      </trkpt>
      <trkpt lat="43.65671" lon="1.53241">
        <ele>164.04</ele>
        <time>2026-05-26T06:32:58Z</time>
      </trkpt>
      <trkpt lat="43.65671" lon="1.53224">
        <ele>163.56</ele>
        <time>2026-05-26T06:33:10Z</time>
      </trkpt>
      <trkpt lat="43.65675" lon="1.53202">
        <ele>163.08</ele>
        <time>2026-05-26T06:33:23Z</time>
      </trkpt>
      <trkpt lat="43.65681" lon="1.53195">
        <ele>162.6</ele>
        <time>2026-05-26T06:33:37Z</time>
      </trkpt>
      <trkpt lat="43.6568" lon="1.5319">
        <ele>162.6</ele>
        <time>2026-05-26T06:33:54Z</time>
      </trkpt>
      <trkpt lat="43.6568" lon="1.53184">
        <ele>162.6</ele>
        <time>2026-05-26T06:34:19Z</time>
      </trkpt>
      <trkpt lat="43.6568" lon="1.53182">
        <ele>162.6</ele>
        <time>2026-05-26T06:34:20Z</time>
      </trkpt>
      <trkpt lat="43.65679" lon="1.53187">
        <ele>162.6</ele>
        <time>2026-05-26T06:34:31Z</time>
      </trkpt>
      <trkpt lat="43.65672" lon="1.53172">
        <ele>162.12</ele>
        <time>2026-05-26T06:35:09Z</time>
      </trkpt>
      <trkpt lat="43.6567" lon="1.53145">
        <ele>162.12</ele>
        <time>2026-05-26T06:35:25Z</time>
      </trkpt>
      <trkpt lat="43.65673" lon="1.53141">
        <ele>162.12</ele>
        <time>2026-05-26T06:35:30Z</time>
      </trkpt>
      <trkpt lat="43.65674" lon="1.5314">
        <ele>162.12</ele>
        <time>2026-05-26T06:35:31Z</time>
      </trkpt>
      <trkpt lat="43.65676" lon="1.53139">
        <ele>162.12</ele>
        <time>2026-05-26T06:35:32Z</time>
      </trkpt>
      <trkpt lat="43.65677" lon="1.53139">
        <ele>162.12</ele>
        <time>2026-05-26T06:35:33Z</time>
      </trkpt>
      <trkpt lat="43.65678" lon="1.53138">
        <ele>163.08</ele>
        <time>2026-05-26T06:35:34Z</time>
      </trkpt>
      <trkpt lat="43.6568" lon="1.53138">
        <ele>163.08</ele>
        <time>2026-05-26T06:35:35Z</time>
      </trkpt>
      <trkpt lat="43.65682" lon="1.53138">
        <ele>163.08</ele>
        <time>2026-05-26T06:35:36Z</time>
      </trkpt>
      <trkpt lat="43.65701" lon="1.5313">
        <ele>163.56</ele>
        <time>2026-05-26T06:35:52Z</time>
      </trkpt>
      <trkpt lat="43.65724" lon="1.53126">
        <ele>163.56</ele>
        <time>2026-05-26T06:36:09Z</time>
      </trkpt>
      <trkpt lat="43.65749" lon="1.53121">
        <ele>163.56</ele>
        <time>2026-05-26T06:36:28Z</time>
      </trkpt>
      <trkpt lat="43.6575" lon="1.5312">
        <ele>163.08</ele>
        <time>2026-05-26T06:36:29Z</time>
      </trkpt>
      <trkpt lat="43.65751" lon="1.53118">
        <ele>163.08</ele>
        <time>2026-05-26T06:36:30Z</time>
      </trkpt>
      <trkpt lat="43.65752" lon="1.53116">
        <ele>163.08</ele>
        <time>2026-05-26T06:36:31Z</time>
      </trkpt>
      <trkpt lat="43.65752" lon="1.53115">
        <ele>163.08</ele>
        <time>2026-05-26T06:36:32Z</time>
      </trkpt>
      <trkpt lat="43.65752" lon="1.53113">
        <ele>163.08</ele>
        <time>2026-05-26T06:36:33Z</time>
      </trkpt>
      <trkpt lat="43.65752" lon="1.53111">
        <ele>163.08</ele>
        <time>2026-05-26T06:36:34Z</time>
      </trkpt>
      <trkpt lat="43.65752" lon="1.53109">
        <ele>163.08</ele>
        <time>2026-05-26T06:36:35Z</time>
      </trkpt>
      <trkpt lat="43.65748" lon="1.53077">
        <ele>163.08</ele>
        <time>2026-05-26T06:36:52Z</time>
      </trkpt>
      <trkpt lat="43.65749" lon="1.53035">
        <ele>163.56</ele>
        <time>2026-05-26T06:37:13Z</time>
      </trkpt>
      <trkpt lat="43.65749" lon="1.52999">
        <ele>164.04</ele>
        <time>2026-05-26T06:37:32Z</time>
      </trkpt>
      <trkpt lat="43.65753" lon="1.5296">
        <ele>164.04</ele>
        <time>2026-05-26T06:37:54Z</time>
      </trkpt>
      <trkpt lat="43.65758" lon="1.52922">
        <ele>164.52</ele>
        <time>2026-05-26T06:38:16Z</time>
      </trkpt>
      <trkpt lat="43.65771" lon="1.52875">
        <ele>165</ele>
        <time>2026-05-26T06:38:42Z</time>
      </trkpt>
      <trkpt lat="43.65775" lon="1.5284">
        <ele>165</ele>
        <time>2026-05-26T06:39:01Z</time>
      </trkpt>
      <trkpt lat="43.65778" lon="1.52834">
        <ele>165.48</ele>
        <time>2026-05-26T06:39:06Z</time>
      </trkpt>
      <trkpt lat="43.65787" lon="1.52818">
        <ele>165.48</ele>
        <time>2026-05-26T06:39:16Z</time>
      </trkpt>
      <trkpt lat="43.65789" lon="1.52797">
        <ele>165.96</ele>
        <time>2026-05-26T06:39:29Z</time>
      </trkpt>
      <trkpt lat="43.65793" lon="1.52782">
        <ele>166.45</ele>
        <time>2026-05-26T06:39:38Z</time>
      </trkpt>
      <trkpt lat="43.65793" lon="1.52779">
        <ele>166.45</ele>
        <time>2026-05-26T06:39:39Z</time>
      </trkpt>
      <trkpt lat="43.65788" lon="1.5277">
        <ele>166.45</ele>
        <time>2026-05-26T06:39:46Z</time>
      </trkpt>
      <trkpt lat="43.65768" lon="1.52755">
        <ele>166.45</ele>
        <time>2026-05-26T06:40:00Z</time>
      </trkpt>
      <trkpt lat="43.65751" lon="1.52754">
        <ele>165</ele>
        <time>2026-05-26T06:40:14Z</time>
      </trkpt>
      <trkpt lat="43.65749" lon="1.52754">
        <ele>165</ele>
        <time>2026-05-26T06:40:15Z</time>
      </trkpt>
      <trkpt lat="43.65747" lon="1.52753">
        <ele>165</ele>
        <time>2026-05-26T06:40:16Z</time>
      </trkpt>
      <trkpt lat="43.6573" lon="1.5275">
        <ele>165</ele>
        <time>2026-05-26T06:40:30Z</time>
      </trkpt>
      <trkpt lat="43.6572" lon="1.52747">
        <ele>166.45</ele>
        <time>2026-05-26T06:40:40Z</time>
      </trkpt>
      <trkpt lat="43.65703" lon="1.52744">
        <ele>166.93</ele>
        <time>2026-05-26T06:40:53Z</time>
      </trkpt>
      <trkpt lat="43.65686" lon="1.52739">
        <ele>168.85</ele>
        <time>2026-05-26T06:41:07Z</time>
      </trkpt>
      <trkpt lat="43.65682" lon="1.52737">
        <ele>168.85</ele>
        <time>2026-05-26T06:41:13Z</time>
      </trkpt>
      <trkpt lat="43.6568" lon="1.52736">
        <ele>168.85</ele>
        <time>2026-05-26T06:41:14Z</time>
      </trkpt>
      <trkpt lat="43.65664" lon="1.52726">
        <ele>170.77</ele>
        <time>2026-05-26T06:41:28Z</time>
      </trkpt>
      <trkpt lat="43.65663" lon="1.52726">
        <ele>170.77</ele>
        <time>2026-05-26T06:41:29Z</time>
      </trkpt>
      <trkpt lat="43.65662" lon="1.52725">
        <ele>170.77</ele>
        <time>2026-05-26T06:41:30Z</time>
      </trkpt>
      <trkpt lat="43.6566" lon="1.52725">
        <ele>170.77</ele>
        <time>2026-05-26T06:41:31Z</time>
      </trkpt>
      <trkpt lat="43.65659" lon="1.52724">
        <ele>170.77</ele>
        <time>2026-05-26T06:41:32Z</time>
      </trkpt>
      <trkpt lat="43.65646" lon="1.52718">
        <ele>171.73</ele>
        <time>2026-05-26T06:41:44Z</time>
      </trkpt>
      <trkpt lat="43.65644" lon="1.52717">
        <ele>171.73</ele>
        <time>2026-05-26T06:41:45Z</time>
      </trkpt>
      <trkpt lat="43.65629" lon="1.52707">
        <ele>173.17</ele>
        <time>2026-05-26T06:42:00Z</time>
      </trkpt>
      <trkpt lat="43.65627" lon="1.52705">
        <ele>174.14</ele>
        <time>2026-05-26T06:42:11Z</time>
      </trkpt>
      <trkpt lat="43.65626" lon="1.52703">
        <ele>174.14</ele>
        <time>2026-05-26T06:42:12Z</time>
      </trkpt>
      <trkpt lat="43.65623" lon="1.52695">
        <ele>174.14</ele>
        <time>2026-05-26T06:42:18Z</time>
      </trkpt>
      <trkpt lat="43.65622" lon="1.52694">
        <ele>174.14</ele>
        <time>2026-05-26T06:42:19Z</time>
      </trkpt>
      <trkpt lat="43.65622" lon="1.52692">
        <ele>174.14</ele>
        <time>2026-05-26T06:42:20Z</time>
      </trkpt>
      <trkpt lat="43.65622" lon="1.5269">
        <ele>174.14</ele>
        <time>2026-05-26T06:42:21Z</time>
      </trkpt>
      <trkpt lat="43.65621" lon="1.52688">
        <ele>174.14</ele>
        <time>2026-05-26T06:42:22Z</time>
      </trkpt>
      <trkpt lat="43.65621" lon="1.52686">
        <ele>174.62</ele>
        <time>2026-05-26T06:42:24Z</time>
      </trkpt>
      <trkpt lat="43.65619" lon="1.52683">
        <ele>175.1</ele>
        <time>2026-05-26T06:42:29Z</time>
      </trkpt>
      <trkpt lat="43.65618" lon="1.5268">
        <ele>175.58</ele>
        <time>2026-05-26T06:42:31Z</time>
      </trkpt>
      <trkpt lat="43.65617" lon="1.52678">
        <ele>175.58</ele>
        <time>2026-05-26T06:42:32Z</time>
      </trkpt>
      <trkpt lat="43.65617" lon="1.52676">
        <ele>176.06</ele>
        <time>2026-05-26T06:42:33Z</time>
      </trkpt>
      <trkpt lat="43.65616" lon="1.52652">
        <ele>177.5</ele>
        <time>2026-05-26T06:42:48Z</time>
      </trkpt>
      <trkpt lat="43.65619" lon="1.52631">
        <ele>178.94</ele>
        <time>2026-05-26T06:43:03Z</time>
      </trkpt>
      <trkpt lat="43.65626" lon="1.52611">
        <ele>180.38</ele>
        <time>2026-05-26T06:43:17Z</time>
      </trkpt>
      <trkpt lat="43.65628" lon="1.52604">
        <ele>181.35</ele>
        <time>2026-05-26T06:43:23Z</time>
      </trkpt>
      <trkpt lat="43.65632" lon="1.52586">
        <ele>182.79</ele>
        <time>2026-05-26T06:43:35Z</time>
      </trkpt>
      <trkpt lat="43.65632" lon="1.52581">
        <ele>183.27</ele>
        <time>2026-05-26T06:43:38Z</time>
      </trkpt>
      <trkpt lat="43.65632" lon="1.52579">
        <ele>183.27</ele>
        <time>2026-05-26T06:43:39Z</time>
      </trkpt>
      <trkpt lat="43.65633" lon="1.52577">
        <ele>183.27</ele>
        <time>2026-05-26T06:43:40Z</time>
      </trkpt>
      <trkpt lat="43.65633" lon="1.52575">
        <ele>183.27</ele>
        <time>2026-05-26T06:43:41Z</time>
      </trkpt>
      <trkpt lat="43.65634" lon="1.52573">
        <ele>183.27</ele>
        <time>2026-05-26T06:43:42Z</time>
      </trkpt>
      <trkpt lat="43.65634" lon="1.52571">
        <ele>183.27</ele>
        <time>2026-05-26T06:43:43Z</time>
      </trkpt>
      <trkpt lat="43.65635" lon="1.52569">
        <ele>183.27</ele>
        <time>2026-05-26T06:43:44Z</time>
      </trkpt>
      <trkpt lat="43.65635" lon="1.52552">
        <ele>184.71</ele>
        <time>2026-05-26T06:43:57Z</time>
      </trkpt>
      <trkpt lat="43.65635" lon="1.5255">
        <ele>184.71</ele>
        <time>2026-05-26T06:43:58Z</time>
      </trkpt>
      <trkpt lat="43.65635" lon="1.52547">
        <ele>184.71</ele>
        <time>2026-05-26T06:43:59Z</time>
      </trkpt>
      <trkpt lat="43.65633" lon="1.52524">
        <ele>186.15</ele>
        <time>2026-05-26T06:44:14Z</time>
      </trkpt>
      <trkpt lat="43.65632" lon="1.52522">
        <ele>186.15</ele>
        <time>2026-05-26T06:44:15Z</time>
      </trkpt>
      <trkpt lat="43.65629" lon="1.525">
        <ele>188.08</ele>
        <time>2026-05-26T06:44:28Z</time>
      </trkpt>
      <trkpt lat="43.6562" lon="1.52477">
        <ele>189.52</ele>
        <time>2026-05-26T06:44:41Z</time>
      </trkpt>
      <trkpt lat="43.65609" lon="1.52454">
        <ele>190.96</ele>
        <time>2026-05-26T06:44:55Z</time>
      </trkpt>
      <trkpt lat="43.65597" lon="1.52431">
        <ele>192.4</ele>
        <time>2026-05-26T06:45:11Z</time>
      </trkpt>
      <trkpt lat="43.65592" lon="1.52426">
        <ele>192.88</ele>
        <time>2026-05-26T06:45:18Z</time>
      </trkpt>
      <trkpt lat="43.65591" lon="1.52425">
        <ele>192.88</ele>
        <time>2026-05-26T06:45:19Z</time>
      </trkpt>
      <trkpt lat="43.6559" lon="1.52424">
        <ele>192.88</ele>
        <time>2026-05-26T06:45:20Z</time>
      </trkpt>
      <trkpt lat="43.65589" lon="1.52422">
        <ele>192.88</ele>
        <time>2026-05-26T06:45:21Z</time>
      </trkpt>
      <trkpt lat="43.65587" lon="1.52421">
        <ele>193.36</ele>
        <time>2026-05-26T06:45:22Z</time>
      </trkpt>
      <trkpt lat="43.65586" lon="1.52419">
        <ele>193.36</ele>
        <time>2026-05-26T06:45:23Z</time>
      </trkpt>
      <trkpt lat="43.65585" lon="1.52417">
        <ele>193.36</ele>
        <time>2026-05-26T06:45:24Z</time>
      </trkpt>
      <trkpt lat="43.65584" lon="1.52416">
        <ele>193.36</ele>
        <time>2026-05-26T06:45:25Z</time>
      </trkpt>
      <trkpt lat="43.65573" lon="1.52399">
        <ele>195.28</ele>
        <time>2026-05-26T06:45:39Z</time>
      </trkpt>
      <trkpt lat="43.65563" lon="1.52383">
        <ele>196.25</ele>
        <time>2026-05-26T06:45:53Z</time>
      </trkpt>
      <trkpt lat="43.65562" lon="1.52382">
        <ele>196.73</ele>
        <time>2026-05-26T06:45:54Z</time>
      </trkpt>
      <trkpt lat="43.65551" lon="1.52366">
        <ele>197.69</ele>
        <time>2026-05-26T06:46:08Z</time>
      </trkpt>
      <trkpt lat="43.65539" lon="1.52347">
        <ele>199.61</ele>
        <time>2026-05-26T06:46:23Z</time>
      </trkpt>
      <trkpt lat="43.65528" lon="1.5233">
        <ele>200.57</ele>
        <time>2026-05-26T06:46:37Z</time>
      </trkpt>
      <trkpt lat="43.65516" lon="1.52311">
        <ele>202.01</ele>
        <time>2026-05-26T06:46:52Z</time>
      </trkpt>
      <trkpt lat="43.65505" lon="1.523">
        <ele>202.98</ele>
        <time>2026-05-26T06:47:03Z</time>
      </trkpt>
      <trkpt lat="43.65503" lon="1.52299">
        <ele>202.98</ele>
        <time>2026-05-26T06:47:04Z</time>
      </trkpt>
      <trkpt lat="43.65502" lon="1.52297">
        <ele>203.46</ele>
        <time>2026-05-26T06:47:20Z</time>
      </trkpt>
      <trkpt lat="43.65496" lon="1.52294">
        <ele>203.94</ele>
        <time>2026-05-26T06:47:48Z</time>
      </trkpt>
      <trkpt lat="43.6549" lon="1.52286">
        <ele>203.94</ele>
        <time>2026-05-26T06:48:00Z</time>
      </trkpt>
      <trkpt lat="43.65489" lon="1.52284">
        <ele>203.94</ele>
        <time>2026-05-26T06:48:03Z</time>
      </trkpt>
      <trkpt lat="43.65488" lon="1.52283">
        <ele>203.94</ele>
        <time>2026-05-26T06:48:04Z</time>
      </trkpt>
      <trkpt lat="43.65486" lon="1.5228">
        <ele>203.94</ele>
        <time>2026-05-26T06:48:06Z</time>
      </trkpt>
      <trkpt lat="43.65485" lon="1.52278">
        <ele>203.94</ele>
        <time>2026-05-26T06:48:07Z</time>
      </trkpt>
      <trkpt lat="43.65482" lon="1.52267">
        <ele>204.42</ele>
        <time>2026-05-26T06:48:22Z</time>
      </trkpt>
      <trkpt lat="43.65486" lon="1.52242">
        <ele>204.42</ele>
        <time>2026-05-26T06:48:39Z</time>
      </trkpt>
      <trkpt lat="43.65485" lon="1.52241">
        <ele>204.42</ele>
        <time>2026-05-26T06:48:40Z</time>
      </trkpt>
      <trkpt lat="43.65484" lon="1.52239">
        <ele>204.42</ele>
        <time>2026-05-26T06:48:41Z</time>
      </trkpt>
      <trkpt lat="43.65484" lon="1.52237">
        <ele>204.42</ele>
        <time>2026-05-26T06:48:42Z</time>
      </trkpt>
      <trkpt lat="43.65483" lon="1.52236">
        <ele>204.42</ele>
        <time>2026-05-26T06:48:43Z</time>
      </trkpt>
      <trkpt lat="43.65483" lon="1.52234">
        <ele>204.42</ele>
        <time>2026-05-26T06:48:44Z</time>
      </trkpt>
      <trkpt lat="43.65483" lon="1.52232">
        <ele>204.42</ele>
        <time>2026-05-26T06:48:45Z</time>
      </trkpt>
      <trkpt lat="43.65484" lon="1.5223">
        <ele>204.42</ele>
        <time>2026-05-26T06:48:46Z</time>
      </trkpt>
      <trkpt lat="43.65485" lon="1.52229">
        <ele>204.42</ele>
        <time>2026-05-26T06:48:47Z</time>
      </trkpt>
      <trkpt lat="43.65496" lon="1.52209">
        <ele>205.38</ele>
        <time>2026-05-26T06:49:02Z</time>
      </trkpt>
      <trkpt lat="43.65509" lon="1.52186">
        <ele>205.86</ele>
        <time>2026-05-26T06:49:18Z</time>
      </trkpt>
      <trkpt lat="43.65521" lon="1.52161">
        <ele>206.82</ele>
        <time>2026-05-26T06:49:33Z</time>
      </trkpt>
      <trkpt lat="43.65527" lon="1.52143">
        <ele>206.82</ele>
        <time>2026-05-26T06:49:48Z</time>
      </trkpt>
      <trkpt lat="43.65528" lon="1.52141">
        <ele>206.82</ele>
        <time>2026-05-26T06:49:59Z</time>
      </trkpt>
      <trkpt lat="43.65529" lon="1.5214">
        <ele>206.82</ele>
        <time>2026-05-26T06:50:00Z</time>
      </trkpt>
      <trkpt lat="43.6553" lon="1.52138">
        <ele>206.82</ele>
        <time>2026-05-26T06:50:01Z</time>
      </trkpt>
      <trkpt lat="43.65531" lon="1.52136">
        <ele>206.82</ele>
        <time>2026-05-26T06:50:02Z</time>
      </trkpt>
      <trkpt lat="43.65532" lon="1.52134">
        <ele>206.82</ele>
        <time>2026-05-26T06:50:03Z</time>
      </trkpt>
      <trkpt lat="43.65533" lon="1.52133">
        <ele>206.82</ele>
        <time>2026-05-26T06:50:04Z</time>
      </trkpt>
      <trkpt lat="43.65543" lon="1.52113">
        <ele>206.82</ele>
        <time>2026-05-26T06:50:17Z</time>
      </trkpt>
      <trkpt lat="43.65547" lon="1.52106">
        <ele>205.38</ele>
        <time>2026-05-26T06:50:21Z</time>
      </trkpt>
      <trkpt lat="43.65561" lon="1.52084">
        <ele>204.9</ele>
        <time>2026-05-26T06:50:37Z</time>
      </trkpt>
      <trkpt lat="43.65577" lon="1.52062">
        <ele>203.94</ele>
        <time>2026-05-26T06:50:54Z</time>
      </trkpt>
      <trkpt lat="43.65594" lon="1.52036">
        <ele>203.46</ele>
        <time>2026-05-26T06:51:11Z</time>
      </trkpt>
      <trkpt lat="43.65601" lon="1.52015">
        <ele>203.46</ele>
        <time>2026-05-26T06:51:26Z</time>
      </trkpt>
      <trkpt lat="43.65602" lon="1.52013">
        <ele>202.49</ele>
        <time>2026-05-26T06:51:27Z</time>
      </trkpt>
      <trkpt lat="43.65603" lon="1.52012">
        <ele>202.98</ele>
        <time>2026-05-26T06:51:28Z</time>
      </trkpt>
      <trkpt lat="43.65604" lon="1.52008">
        <ele>202.98</ele>
        <time>2026-05-26T06:51:41Z</time>
      </trkpt>
      <trkpt lat="43.65606" lon="1.52007">
        <ele>202.98</ele>
        <time>2026-05-26T06:51:57Z</time>
      </trkpt>
      <trkpt lat="43.65607" lon="1.52005">
        <ele>202.98</ele>
        <time>2026-05-26T06:51:59Z</time>
      </trkpt>
      <trkpt lat="43.65616" lon="1.51989">
        <ele>202.98</ele>
        <time>2026-05-26T06:52:10Z</time>
      </trkpt>
      <trkpt lat="43.65618" lon="1.51987">
        <ele>202.98</ele>
        <time>2026-05-26T06:52:12Z</time>
      </trkpt>
      <trkpt lat="43.65619" lon="1.51986">
        <ele>202.98</ele>
        <time>2026-05-26T06:52:13Z</time>
      </trkpt>
      <trkpt lat="43.65632" lon="1.51963">
        <ele>203.94</ele>
        <time>2026-05-26T06:52:28Z</time>
      </trkpt>
      <trkpt lat="43.65648" lon="1.51937">
        <ele>202.49</ele>
        <time>2026-05-26T06:52:45Z</time>
      </trkpt>
      <trkpt lat="43.65661" lon="1.51918">
        <ele>202.49</ele>
        <time>2026-05-26T06:52:59Z</time>
      </trkpt>
      <trkpt lat="43.65664" lon="1.51912">
        <ele>202.49</ele>
        <time>2026-05-26T06:53:04Z</time>
      </trkpt>
      <trkpt lat="43.65665" lon="1.51911">
        <ele>202.49</ele>
        <time>2026-05-26T06:53:05Z</time>
      </trkpt>
      <trkpt lat="43.65683" lon="1.51883">
        <ele>202.49</ele>
        <time>2026-05-26T06:53:22Z</time>
      </trkpt>
      <trkpt lat="43.65693" lon="1.51859">
        <ele>202.01</ele>
        <time>2026-05-26T06:53:38Z</time>
      </trkpt>
      <trkpt lat="43.65693" lon="1.51857">
        <ele>202.49</ele>
        <time>2026-05-26T06:53:39Z</time>
      </trkpt>
      <trkpt lat="43.65693" lon="1.51856">
        <ele>202.49</ele>
        <time>2026-05-26T06:53:40Z</time>
      </trkpt>
      <trkpt lat="43.65692" lon="1.51854">
        <ele>202.49</ele>
        <time>2026-05-26T06:53:41Z</time>
      </trkpt>
      <trkpt lat="43.65691" lon="1.51853">
        <ele>202.49</ele>
        <time>2026-05-26T06:53:42Z</time>
      </trkpt>
      <trkpt lat="43.6569" lon="1.51852">
        <ele>202.49</ele>
        <time>2026-05-26T06:53:43Z</time>
      </trkpt>
      <trkpt lat="43.65689" lon="1.5185">
        <ele>202.01</ele>
        <time>2026-05-26T06:53:44Z</time>
      </trkpt>
      <trkpt lat="43.65688" lon="1.51849">
        <ele>202.01</ele>
        <time>2026-05-26T06:53:45Z</time>
      </trkpt>
      <trkpt lat="43.65687" lon="1.51848">
        <ele>202.01</ele>
        <time>2026-05-26T06:53:46Z</time>
      </trkpt>
      <trkpt lat="43.65686" lon="1.51846">
        <ele>202.01</ele>
        <time>2026-05-26T06:53:47Z</time>
      </trkpt>
      <trkpt lat="43.65685" lon="1.51845">
        <ele>202.01</ele>
        <time>2026-05-26T06:53:48Z</time>
      </trkpt>
      <trkpt lat="43.65668" lon="1.51829">
        <ele>201.53</ele>
        <time>2026-05-26T06:54:03Z</time>
      </trkpt>
      <trkpt lat="43.65657" lon="1.51815">
        <ele>201.05</ele>
        <time>2026-05-26T06:54:17Z</time>
      </trkpt>
      <trkpt lat="43.65655" lon="1.51807">
        <ele>201.53</ele>
        <time>2026-05-26T06:54:32Z</time>
      </trkpt>
      <trkpt lat="43.65649" lon="1.51798">
        <ele>201.05</ele>
        <time>2026-05-26T06:54:44Z</time>
      </trkpt>
      <trkpt lat="43.65641" lon="1.5179">
        <ele>200.57</ele>
        <time>2026-05-26T06:54:58Z</time>
      </trkpt>
      <trkpt lat="43.65626" lon="1.51773">
        <ele>199.13</ele>
        <time>2026-05-26T06:55:13Z</time>
      </trkpt>
      <trkpt lat="43.65609" lon="1.51756">
        <ele>198.17</ele>
        <time>2026-05-26T06:55:29Z</time>
      </trkpt>
      <trkpt lat="43.65592" lon="1.51747">
        <ele>196.25</ele>
        <time>2026-05-26T06:55:44Z</time>
      </trkpt>
      <trkpt lat="43.65585" lon="1.51742">
        <ele>194.8</ele>
        <time>2026-05-26T06:55:56Z</time>
      </trkpt>
      <trkpt lat="43.65583" lon="1.51739">
        <ele>194.8</ele>
        <time>2026-05-26T06:55:59Z</time>
      </trkpt>
      <trkpt lat="43.65569" lon="1.51718">
        <ele>193.84</ele>
        <time>2026-05-26T06:56:15Z</time>
      </trkpt>
      <trkpt lat="43.65558" lon="1.51703">
        <ele>192.4</ele>
        <time>2026-05-26T06:56:27Z</time>
      </trkpt>
      <trkpt lat="43.65544" lon="1.51694">
        <ele>190.48</ele>
        <time>2026-05-26T06:56:41Z</time>
      </trkpt>
      <trkpt lat="43.65543" lon="1.51693">
        <ele>190.48</ele>
        <time>2026-05-26T06:56:42Z</time>
      </trkpt>
      <trkpt lat="43.65541" lon="1.51693">
        <ele>190.48</ele>
        <time>2026-05-26T06:56:43Z</time>
      </trkpt>
      <trkpt lat="43.6554" lon="1.51692">
        <ele>190.48</ele>
        <time>2026-05-26T06:56:44Z</time>
      </trkpt>
      <trkpt lat="43.65539" lon="1.51691">
        <ele>190</ele>
        <time>2026-05-26T06:56:45Z</time>
      </trkpt>
      <trkpt lat="43.65538" lon="1.5169">
        <ele>189.52</ele>
        <time>2026-05-26T06:56:46Z</time>
      </trkpt>
      <trkpt lat="43.65521" lon="1.51667">
        <ele>189.04</ele>
        <time>2026-05-26T06:57:01Z</time>
      </trkpt>
      <trkpt lat="43.65508" lon="1.51648">
        <ele>188.08</ele>
        <time>2026-05-26T06:57:14Z</time>
      </trkpt>
      <trkpt lat="43.65502" lon="1.51657">
        <ele>186.63</ele>
        <time>2026-05-26T06:57:20Z</time>
      </trkpt>
      <trkpt lat="43.65488" lon="1.51681">
        <ele>186.15</ele>
        <time>2026-05-26T06:57:35Z</time>
      </trkpt>
      <trkpt lat="43.65487" lon="1.51681">
        <ele>186.15</ele>
        <time>2026-05-26T06:57:36Z</time>
      </trkpt>
      <trkpt lat="43.65486" lon="1.51681">
        <ele>186.15</ele>
        <time>2026-05-26T06:57:37Z</time>
      </trkpt>
      <trkpt lat="43.65478" lon="1.51677">
        <ele>186.15</ele>
        <time>2026-05-26T06:57:43Z</time>
      </trkpt>
      <trkpt lat="43.65463" lon="1.51662">
        <ele>184.71</ele>
        <time>2026-05-26T06:57:57Z</time>
      </trkpt>
      <trkpt lat="43.65447" lon="1.51643">
        <ele>183.27</ele>
        <time>2026-05-26T06:58:12Z</time>
      </trkpt>
      <trkpt lat="43.65429" lon="1.51622">
        <ele>181.35</ele>
        <time>2026-05-26T06:58:29Z</time>
      </trkpt>
      <trkpt lat="43.6541" lon="1.51601">
        <ele>179.9</ele>
        <time>2026-05-26T06:58:46Z</time>
      </trkpt>
      <trkpt lat="43.65395" lon="1.5158">
        <ele>177.98</ele>
        <time>2026-05-26T06:59:02Z</time>
      </trkpt>
      <trkpt lat="43.65377" lon="1.5156">
        <ele>176.54</ele>
        <time>2026-05-26T06:59:17Z</time>
      </trkpt>
      <trkpt lat="43.65363" lon="1.51544">
        <ele>175.1</ele>
        <time>2026-05-26T06:59:32Z</time>
      </trkpt>
      <trkpt lat="43.65343" lon="1.51525">
        <ele>172.69</ele>
        <time>2026-05-26T06:59:49Z</time>
      </trkpt>
      <trkpt lat="43.65339" lon="1.51519">
        <ele>172.69</ele>
        <time>2026-05-26T06:59:54Z</time>
      </trkpt>
      <trkpt lat="43.65339" lon="1.51517">
        <ele>172.69</ele>
        <time>2026-05-26T06:59:55Z</time>
      </trkpt>
      <trkpt lat="43.65338" lon="1.51516">
        <ele>172.69</ele>
        <time>2026-05-26T06:59:56Z</time>
      </trkpt>
      <trkpt lat="43.65338" lon="1.51514">
        <ele>172.69</ele>
        <time>2026-05-26T06:59:57Z</time>
      </trkpt>
      <trkpt lat="43.65338" lon="1.51513">
        <ele>172.69</ele>
        <time>2026-05-26T06:59:58Z</time>
      </trkpt>
      <trkpt lat="43.65328" lon="1.51487">
        <ele>170.77</ele>
        <time>2026-05-26T07:00:14Z</time>
      </trkpt>
      <trkpt lat="43.65315" lon="1.51487">
        <ele>166.45</ele>
        <time>2026-05-26T07:00:24Z</time>
      </trkpt>
      <trkpt lat="43.65314" lon="1.51487">
        <ele>169.81</ele>
        <time>2026-05-26T07:00:25Z</time>
      </trkpt>
      <trkpt lat="43.65306" lon="1.51481">
        <ele>167.89</ele>
        <time>2026-05-26T07:00:33Z</time>
      </trkpt>
      <trkpt lat="43.65305" lon="1.51479">
        <ele>167.89</ele>
        <time>2026-05-26T07:00:34Z</time>
      </trkpt>
      <trkpt lat="43.65304" lon="1.51478">
        <ele>167.89</ele>
        <time>2026-05-26T07:00:35Z</time>
      </trkpt>
      <trkpt lat="43.65303" lon="1.51477">
        <ele>167.89</ele>
        <time>2026-05-26T07:00:36Z</time>
      </trkpt>
      <trkpt lat="43.65302" lon="1.51475">
        <ele>167.41</ele>
        <time>2026-05-26T07:00:37Z</time>
      </trkpt>
      <trkpt lat="43.653" lon="1.51474">
        <ele>166.93</ele>
        <time>2026-05-26T07:00:38Z</time>
      </trkpt>
      <trkpt lat="43.65299" lon="1.51472">
        <ele>166.93</ele>
        <time>2026-05-26T07:00:39Z</time>
      </trkpt>
      <trkpt lat="43.65297" lon="1.51471">
        <ele>166.93</ele>
        <time>2026-05-26T07:00:40Z</time>
      </trkpt>
      <trkpt lat="43.65296" lon="1.5147">
        <ele>166.45</ele>
        <time>2026-05-26T07:00:41Z</time>
      </trkpt>
      <trkpt lat="43.65285" lon="1.51459">
        <ele>165</ele>
        <time>2026-05-26T07:00:53Z</time>
      </trkpt>
      <trkpt lat="43.65274" lon="1.51447">
        <ele>163.56</ele>
        <time>2026-05-26T07:01:05Z</time>
      </trkpt>
      <trkpt lat="43.65262" lon="1.51434">
        <ele>162.6</ele>
        <time>2026-05-26T07:01:17Z</time>
      </trkpt>
      <trkpt lat="43.65248" lon="1.51419">
        <ele>160.68</ele>
        <time>2026-05-26T07:01:29Z</time>
      </trkpt>
      <trkpt lat="43.65239" lon="1.51406">
        <ele>158.27</ele>
        <time>2026-05-26T07:01:40Z</time>
      </trkpt>
      <trkpt lat="43.65227" lon="1.51392">
        <ele>157.31</ele>
        <time>2026-05-26T07:01:51Z</time>
      </trkpt>
      <trkpt lat="43.65213" lon="1.51373">
        <ele>156.35</ele>
        <time>2026-05-26T07:02:06Z</time>
      </trkpt>
      <trkpt lat="43.65201" lon="1.51357">
        <ele>155.87</ele>
        <time>2026-05-26T07:02:20Z</time>
      </trkpt>
      <trkpt lat="43.652" lon="1.51356">
        <ele>155.87</ele>
        <time>2026-05-26T07:02:21Z</time>
      </trkpt>
      <trkpt lat="43.65199" lon="1.51355">
        <ele>155.87</ele>
        <time>2026-05-26T07:02:22Z</time>
      </trkpt>
      <trkpt lat="43.65198" lon="1.51353">
        <ele>155.39</ele>
        <time>2026-05-26T07:02:23Z</time>
      </trkpt>
      <trkpt lat="43.65196" lon="1.51352">
        <ele>155.39</ele>
        <time>2026-05-26T07:02:24Z</time>
      </trkpt>
      <trkpt lat="43.65189" lon="1.51339">
        <ele>154.91</ele>
        <time>2026-05-26T07:02:36Z</time>
      </trkpt>
      <trkpt lat="43.65192" lon="1.51335">
        <ele>154.91</ele>
        <time>2026-05-26T07:02:41Z</time>
      </trkpt>
      <trkpt lat="43.6521" lon="1.51319">
        <ele>154.91</ele>
        <time>2026-05-26T07:02:59Z</time>
      </trkpt>
      <trkpt lat="43.65229" lon="1.51303">
        <ele>155.87</ele>
        <time>2026-05-26T07:03:17Z</time>
      </trkpt>
      <trkpt lat="43.65252" lon="1.51286">
        <ele>156.83</ele>
        <time>2026-05-26T07:03:36Z</time>
      </trkpt>
      <trkpt lat="43.65273" lon="1.51267">
        <ele>157.79</ele>
        <time>2026-05-26T07:03:55Z</time>
      </trkpt>
      <trkpt lat="43.65295" lon="1.51251">
        <ele>158.27</ele>
        <time>2026-05-26T07:04:15Z</time>
      </trkpt>
      <trkpt lat="43.65309" lon="1.51233">
        <ele>159.72</ele>
        <time>2026-05-26T07:04:31Z</time>
      </trkpt>
      <trkpt lat="43.65335" lon="1.51219">
        <ele>158.75</ele>
        <time>2026-05-26T07:04:50Z</time>
      </trkpt>
      <trkpt lat="43.65343" lon="1.51213">
        <ele>160.2</ele>
        <time>2026-05-26T07:04:59Z</time>
      </trkpt>
      <trkpt lat="43.65361" lon="1.51197">
        <ele>160.2</ele>
        <time>2026-05-26T07:05:14Z</time>
      </trkpt>
      <trkpt lat="43.65377" lon="1.51178">
        <ele>160.2</ele>
        <time>2026-05-26T07:05:31Z</time>
      </trkpt>
      <trkpt lat="43.65397" lon="1.51162">
        <ele>161.16</ele>
        <time>2026-05-26T07:05:48Z</time>
      </trkpt>
      <trkpt lat="43.65412" lon="1.51147">
        <ele>161.64</ele>
        <time>2026-05-26T07:06:03Z</time>
      </trkpt>
      <trkpt lat="43.65415" lon="1.51145">
        <ele>161.64</ele>
        <time>2026-05-26T07:06:06Z</time>
      </trkpt>
      <trkpt lat="43.65417" lon="1.51144">
        <ele>161.64</ele>
        <time>2026-05-26T07:06:07Z</time>
      </trkpt>
      <trkpt lat="43.65421" lon="1.51133">
        <ele>162.6</ele>
        <time>2026-05-26T07:06:22Z</time>
      </trkpt>
      <trkpt lat="43.65421" lon="1.51131">
        <ele>162.6</ele>
        <time>2026-05-26T07:06:23Z</time>
      </trkpt>
      <trkpt lat="43.6542" lon="1.51129">
        <ele>162.6</ele>
        <time>2026-05-26T07:06:24Z</time>
      </trkpt>
      <trkpt lat="43.65419" lon="1.51122">
        <ele>162.6</ele>
        <time>2026-05-26T07:06:30Z</time>
      </trkpt>
      <trkpt lat="43.65418" lon="1.51119">
        <ele>162.6</ele>
        <time>2026-05-26T07:06:32Z</time>
      </trkpt>
      <trkpt lat="43.65419" lon="1.51113">
        <ele>162.6</ele>
        <time>2026-05-26T07:06:35Z</time>
      </trkpt>
      <trkpt lat="43.65421" lon="1.5111">
        <ele>162.6</ele>
        <time>2026-05-26T07:06:37Z</time>
      </trkpt>
      <trkpt lat="43.65428" lon="1.51089">
        <ele>162.6</ele>
        <time>2026-05-26T07:06:52Z</time>
      </trkpt>
      <trkpt lat="43.65428" lon="1.51088">
        <ele>162.6</ele>
        <time>2026-05-26T07:06:53Z</time>
      </trkpt>
      <trkpt lat="43.65428" lon="1.51087">
        <ele>162.6</ele>
        <time>2026-05-26T07:06:54Z</time>
      </trkpt>
      <trkpt lat="43.65427" lon="1.51085">
        <ele>162.6</ele>
        <time>2026-05-26T07:06:55Z</time>
      </trkpt>
      <trkpt lat="43.65426" lon="1.51082">
        <ele>162.6</ele>
        <time>2026-05-26T07:06:56Z</time>
      </trkpt>
      <trkpt lat="43.65425" lon="1.5108">
        <ele>162.6</ele>
        <time>2026-05-26T07:06:57Z</time>
      </trkpt>
      <trkpt lat="43.65414" lon="1.51056">
        <ele>164.04</ele>
        <time>2026-05-26T07:07:14Z</time>
      </trkpt>
      <trkpt lat="43.65403" lon="1.51017">
        <ele>166.45</ele>
        <time>2026-05-26T07:07:35Z</time>
      </trkpt>
      <trkpt lat="43.65399" lon="1.50988">
        <ele>168.37</ele>
        <time>2026-05-26T07:07:52Z</time>
      </trkpt>
      <trkpt lat="43.65394" lon="1.50958">
        <ele>169.33</ele>
        <time>2026-05-26T07:08:11Z</time>
      </trkpt>
      <trkpt lat="43.65391" lon="1.50926">
        <ele>169.81</ele>
        <time>2026-05-26T07:08:29Z</time>
      </trkpt>
      <trkpt lat="43.65388" lon="1.50916">
        <ele>169.81</ele>
        <time>2026-05-26T07:08:34Z</time>
      </trkpt>
      <trkpt lat="43.6538" lon="1.50885">
        <ele>169.81</ele>
        <time>2026-05-26T07:08:50Z</time>
      </trkpt>
      <trkpt lat="43.6538" lon="1.50862">
        <ele>170.29</ele>
        <time>2026-05-26T07:09:03Z</time>
      </trkpt>
      <trkpt lat="43.6538" lon="1.50857">
        <ele>169.33</ele>
        <time>2026-05-26T07:09:06Z</time>
      </trkpt>
      <trkpt lat="43.6538" lon="1.50854">
        <ele>164.52</ele>
        <time>2026-05-26T07:09:08Z</time>
      </trkpt>
      <trkpt lat="43.65379" lon="1.50852">
        <ele>171.25</ele>
        <time>2026-05-26T07:09:09Z</time>
      </trkpt>
      <trkpt lat="43.65379" lon="1.5085">
        <ele>171.73</ele>
        <time>2026-05-26T07:09:10Z</time>
      </trkpt>
      <trkpt lat="43.65379" lon="1.50847">
        <ele>169.81</ele>
        <time>2026-05-26T07:09:12Z</time>
      </trkpt>
      <trkpt lat="43.65379" lon="1.50821">
        <ele>169.33</ele>
        <time>2026-05-26T07:09:27Z</time>
      </trkpt>
      <trkpt lat="43.6538" lon="1.50806">
        <ele>169.33</ele>
        <time>2026-05-26T07:09:35Z</time>
      </trkpt>
      <trkpt lat="43.65381" lon="1.50805">
        <ele>169.33</ele>
        <time>2026-05-26T07:09:36Z</time>
      </trkpt>
      <trkpt lat="43.65379" lon="1.50776">
        <ele>169.33</ele>
        <time>2026-05-26T07:09:48Z</time>
      </trkpt>
      <trkpt lat="43.6538" lon="1.50752">
        <ele>169.33</ele>
        <time>2026-05-26T07:10:05Z</time>
      </trkpt>
      <trkpt lat="43.65381" lon="1.50728">
        <ele>170.29</ele>
        <time>2026-05-26T07:10:16Z</time>
      </trkpt>
      <trkpt lat="43.6538" lon="1.50726">
        <ele>170.29</ele>
        <time>2026-05-26T07:10:17Z</time>
      </trkpt>
      <trkpt lat="43.65379" lon="1.50724">
        <ele>170.29</ele>
        <time>2026-05-26T07:10:18Z</time>
      </trkpt>
      <trkpt lat="43.65379" lon="1.50723">
        <ele>170.29</ele>
        <time>2026-05-26T07:10:19Z</time>
      </trkpt>
      <trkpt lat="43.65379" lon="1.50721">
        <ele>170.29</ele>
        <time>2026-05-26T07:10:20Z</time>
      </trkpt>
      <trkpt lat="43.65379" lon="1.50719">
        <ele>170.29</ele>
        <time>2026-05-26T07:10:21Z</time>
      </trkpt>
      <trkpt lat="43.65378" lon="1.50716">
        <ele>170.29</ele>
        <time>2026-05-26T07:10:22Z</time>
      </trkpt>
      <trkpt lat="43.65379" lon="1.50714">
        <ele>170.29</ele>
        <time>2026-05-26T07:10:23Z</time>
      </trkpt>
      <trkpt lat="43.65379" lon="1.50712">
        <ele>170.29</ele>
        <time>2026-05-26T07:10:24Z</time>
      </trkpt>
      <trkpt lat="43.65378" lon="1.50709">
        <ele>170.29</ele>
        <time>2026-05-26T07:10:25Z</time>
      </trkpt>
      <trkpt lat="43.65381" lon="1.50693">
        <ele>170.77</ele>
        <time>2026-05-26T07:10:39Z</time>
      </trkpt>
      <trkpt lat="43.65381" lon="1.50689">
        <ele>170.77</ele>
        <time>2026-05-26T07:10:42Z</time>
      </trkpt>
      <trkpt lat="43.65382" lon="1.50687">
        <ele>170.77</ele>
        <time>2026-05-26T07:10:43Z</time>
      </trkpt>
      <trkpt lat="43.65382" lon="1.50685">
        <ele>170.77</ele>
        <time>2026-05-26T07:10:44Z</time>
      </trkpt>
      <trkpt lat="43.65385" lon="1.50652">
        <ele>171.25</ele>
        <time>2026-05-26T07:10:59Z</time>
      </trkpt>
      <trkpt lat="43.65386" lon="1.50621">
        <ele>171.25</ele>
        <time>2026-05-26T07:11:18Z</time>
      </trkpt>
      <trkpt lat="43.65388" lon="1.5059">
        <ele>171.73</ele>
        <time>2026-05-26T07:11:31Z</time>
      </trkpt>
      <trkpt lat="43.65388" lon="1.50569">
        <ele>171.73</ele>
        <time>2026-05-26T07:11:45Z</time>
      </trkpt>
      <trkpt lat="43.65387" lon="1.50545">
        <ele>171.73</ele>
        <time>2026-05-26T07:11:58Z</time>
      </trkpt>
      <trkpt lat="43.65385" lon="1.50532">
        <ele>171.25</ele>
        <time>2026-05-26T07:12:10Z</time>
      </trkpt>
      <trkpt lat="43.65386" lon="1.50519">
        <ele>171.25</ele>
        <time>2026-05-26T07:12:21Z</time>
      </trkpt>
      <trkpt lat="43.654" lon="1.50482">
        <ele>171.25</ele>
        <time>2026-05-26T07:12:37Z</time>
      </trkpt>
      <trkpt lat="43.65401" lon="1.50458">
        <ele>170.29</ele>
        <time>2026-05-26T07:12:52Z</time>
      </trkpt>
      <trkpt lat="43.65401" lon="1.50418">
        <ele>170.29</ele>
        <time>2026-05-26T07:13:09Z</time>
      </trkpt>
      <trkpt lat="43.65403" lon="1.50393">
        <ele>169.33</ele>
        <time>2026-05-26T07:13:26Z</time>
      </trkpt>
      <trkpt lat="43.65402" lon="1.50344">
        <ele>168.37</ele>
        <time>2026-05-26T07:13:47Z</time>
      </trkpt>
      <trkpt lat="43.65402" lon="1.50343">
        <ele>168.37</ele>
        <time>2026-05-26T07:13:48Z</time>
      </trkpt>
      <trkpt lat="43.65395" lon="1.5034">
        <ele>167.89</ele>
        <time>2026-05-26T07:13:54Z</time>
      </trkpt>
      <trkpt lat="43.65396" lon="1.50315">
        <ele>167.89</ele>
        <time>2026-05-26T07:14:09Z</time>
      </trkpt>
      <trkpt lat="43.65393" lon="1.5029">
        <ele>166.93</ele>
        <time>2026-05-26T07:14:25Z</time>
      </trkpt>
      <trkpt lat="43.65393" lon="1.50288">
        <ele>166.93</ele>
        <time>2026-05-26T07:14:26Z</time>
      </trkpt>
      <trkpt lat="43.65393" lon="1.50286">
        <ele>166.93</ele>
        <time>2026-05-26T07:14:27Z</time>
      </trkpt>
      <trkpt lat="43.65394" lon="1.50285">
        <ele>166.45</ele>
        <time>2026-05-26T07:14:28Z</time>
      </trkpt>
      <trkpt lat="43.65394" lon="1.50283">
        <ele>166.45</ele>
        <time>2026-05-26T07:14:29Z</time>
      </trkpt>
      <trkpt lat="43.65394" lon="1.50281">
        <ele>166.45</ele>
        <time>2026-05-26T07:14:30Z</time>
      </trkpt>
      <trkpt lat="43.65394" lon="1.50278">
        <ele>166.45</ele>
        <time>2026-05-26T07:14:33Z</time>
      </trkpt>
      <trkpt lat="43.65393" lon="1.50276">
        <ele>166.45</ele>
        <time>2026-05-26T07:14:34Z</time>
      </trkpt>
      <trkpt lat="43.65393" lon="1.50274">
        <ele>166.45</ele>
        <time>2026-05-26T07:14:35Z</time>
      </trkpt>
      <trkpt lat="43.65388" lon="1.50239">
        <ele>165.48</ele>
        <time>2026-05-26T07:14:56Z</time>
      </trkpt>
      <trkpt lat="43.65389" lon="1.50228">
        <ele>165</ele>
        <time>2026-05-26T07:15:12Z</time>
      </trkpt>
      <trkpt lat="43.65389" lon="1.50225">
        <ele>165</ele>
        <time>2026-05-26T07:15:15Z</time>
      </trkpt>
      <trkpt lat="43.65389" lon="1.50224">
        <ele>165</ele>
        <time>2026-05-26T07:15:16Z</time>
      </trkpt>
      <trkpt lat="43.65389" lon="1.50222">
        <ele>165</ele>
        <time>2026-05-26T07:15:17Z</time>
      </trkpt>
      <trkpt lat="43.65389" lon="1.5022">
        <ele>165</ele>
        <time>2026-05-26T07:15:18Z</time>
      </trkpt>
      <trkpt lat="43.65389" lon="1.50218">
        <ele>165</ele>
        <time>2026-05-26T07:15:19Z</time>
      </trkpt>
      <trkpt lat="43.6539" lon="1.50216">
        <ele>165</ele>
        <time>2026-05-26T07:15:20Z</time>
      </trkpt>
      <trkpt lat="43.6539" lon="1.50214">
        <ele>165</ele>
        <time>2026-05-26T07:15:21Z</time>
      </trkpt>
      <trkpt lat="43.6539" lon="1.50212">
        <ele>165</ele>
        <time>2026-05-26T07:15:22Z</time>
      </trkpt>
      <trkpt lat="43.65389" lon="1.50211">
        <ele>165</ele>
        <time>2026-05-26T07:15:23Z</time>
      </trkpt>
      <trkpt lat="43.65386" lon="1.5018">
        <ele>163.56</ele>
        <time>2026-05-26T07:15:41Z</time>
      </trkpt>
      <trkpt lat="43.65381" lon="1.50147">
        <ele>162.6</ele>
        <time>2026-05-26T07:16:00Z</time>
      </trkpt>
      <trkpt lat="43.65376" lon="1.50118">
        <ele>162.12</ele>
        <time>2026-05-26T07:16:16Z</time>
      </trkpt>
      <trkpt lat="43.65374" lon="1.50089">
        <ele>161.16</ele>
        <time>2026-05-26T07:16:31Z</time>
      </trkpt>
      <trkpt lat="43.65373" lon="1.50086">
        <ele>161.16</ele>
        <time>2026-05-26T07:16:33Z</time>
      </trkpt>
      <trkpt lat="43.65371" lon="1.50085">
        <ele>161.16</ele>
        <time>2026-05-26T07:16:34Z</time>
      </trkpt>
      <trkpt lat="43.6536" lon="1.50064">
        <ele>160.68</ele>
        <time>2026-05-26T07:16:47Z</time>
      </trkpt>
      <trkpt lat="43.6536" lon="1.50063">
        <ele>160.68</ele>
        <time>2026-05-26T07:16:48Z</time>
      </trkpt>
      <trkpt lat="43.65358" lon="1.5005">
        <ele>159.72</ele>
        <time>2026-05-26T07:16:55Z</time>
      </trkpt>
      <trkpt lat="43.6535" lon="1.50019">
        <ele>159.24</ele>
        <time>2026-05-26T07:17:11Z</time>
      </trkpt>
      <trkpt lat="43.65349" lon="1.50014">
        <ele>159.24</ele>
        <time>2026-05-26T07:17:16Z</time>
      </trkpt>
      <trkpt lat="43.65348" lon="1.50011">
        <ele>158.75</ele>
        <time>2026-05-26T07:17:18Z</time>
      </trkpt>
      <trkpt lat="43.65345" lon="1.49972">
        <ele>158.27</ele>
        <time>2026-05-26T07:17:38Z</time>
      </trkpt>
      <trkpt lat="43.65358" lon="1.4994">
        <ele>158.75</ele>
        <time>2026-05-26T07:17:56Z</time>
      </trkpt>
      <trkpt lat="43.65371" lon="1.49916">
        <ele>158.75</ele>
        <time>2026-05-26T07:18:11Z</time>
      </trkpt>
      <trkpt lat="43.65354" lon="1.49889">
        <ele>160.2</ele>
        <time>2026-05-26T07:18:26Z</time>
      </trkpt>
      <trkpt lat="43.65327" lon="1.49869">
        <ele>161.16</ele>
        <time>2026-05-26T07:18:44Z</time>
      </trkpt>
      <trkpt lat="43.65308" lon="1.49849">
        <ele>161.64</ele>
        <time>2026-05-26T07:19:01Z</time>
      </trkpt>
      <trkpt lat="43.65307" lon="1.49847">
        <ele>161.64</ele>
        <time>2026-05-26T07:19:03Z</time>
      </trkpt>
      <trkpt lat="43.65306" lon="1.49846">
        <ele>161.64</ele>
        <time>2026-05-26T07:19:04Z</time>
      </trkpt>
      <trkpt lat="43.65292" lon="1.49832">
        <ele>163.08</ele>
        <time>2026-05-26T07:19:19Z</time>
      </trkpt>
      <trkpt lat="43.65279" lon="1.49813">
        <ele>164.04</ele>
        <time>2026-05-26T07:19:34Z</time>
      </trkpt>
      <trkpt lat="43.65266" lon="1.49796">
        <ele>165</ele>
        <time>2026-05-26T07:19:50Z</time>
      </trkpt>
      <trkpt lat="43.65248" lon="1.49782">
        <ele>166.93</ele>
        <time>2026-05-26T07:20:07Z</time>
      </trkpt>
      <trkpt lat="43.65225" lon="1.49774">
        <ele>167.89</ele>
        <time>2026-05-26T07:20:23Z</time>
      </trkpt>
      <trkpt lat="43.65213" lon="1.49766">
        <ele>168.37</ele>
        <time>2026-05-26T07:20:33Z</time>
      </trkpt>
      <trkpt lat="43.65212" lon="1.49766">
        <ele>168.37</ele>
        <time>2026-05-26T07:20:34Z</time>
      </trkpt>
      <trkpt lat="43.65211" lon="1.49765">
        <ele>168.37</ele>
        <time>2026-05-26T07:20:35Z</time>
      </trkpt>
      <trkpt lat="43.65198" lon="1.49768">
        <ele>168.37</ele>
        <time>2026-05-26T07:20:47Z</time>
      </trkpt>
      <trkpt lat="43.65178" lon="1.49769">
        <ele>166.93</ele>
        <time>2026-05-26T07:21:03Z</time>
      </trkpt>
      <trkpt lat="43.65159" lon="1.49759">
        <ele>165.48</ele>
        <time>2026-05-26T07:21:18Z</time>
      </trkpt>
      <trkpt lat="43.65137" lon="1.49746">
        <ele>164.04</ele>
        <time>2026-05-26T07:21:36Z</time>
      </trkpt>
      <trkpt lat="43.65128" lon="1.49739">
        <ele>164.04</ele>
        <time>2026-05-26T07:21:45Z</time>
      </trkpt>
      <trkpt lat="43.65116" lon="1.49731">
        <ele>162.6</ele>
        <time>2026-05-26T07:21:57Z</time>
      </trkpt>
      <trkpt lat="43.65102" lon="1.49723">
        <ele>161.64</ele>
        <time>2026-05-26T07:22:11Z</time>
      </trkpt>
      <trkpt lat="43.65086" lon="1.4971">
        <ele>160.2</ele>
        <time>2026-05-26T07:22:25Z</time>
      </trkpt>
      <trkpt lat="43.65069" lon="1.49702">
        <ele>159.24</ele>
        <time>2026-05-26T07:22:37Z</time>
      </trkpt>
      <trkpt lat="43.65053" lon="1.49693">
        <ele>158.27</ele>
        <time>2026-05-26T07:22:50Z</time>
      </trkpt>
      <trkpt lat="43.65035" lon="1.49686">
        <ele>156.83</ele>
        <time>2026-05-26T07:23:04Z</time>
      </trkpt>
      <trkpt lat="43.65017" lon="1.49683">
        <ele>155.39</ele>
        <time>2026-05-26T07:23:18Z</time>
      </trkpt>
      <trkpt lat="43.64996" lon="1.49667">
        <ele>152.51</ele>
        <time>2026-05-26T07:23:33Z</time>
      </trkpt>
      <trkpt lat="43.64975" lon="1.49657">
        <ele>151.06</ele>
        <time>2026-05-26T07:23:48Z</time>
      </trkpt>
      <trkpt lat="43.64959" lon="1.49646">
        <ele>150.1</ele>
        <time>2026-05-26T07:24:03Z</time>
      </trkpt>
      <trkpt lat="43.64934" lon="1.49633">
        <ele>149.14</ele>
        <time>2026-05-26T07:24:19Z</time>
      </trkpt>
      <trkpt lat="43.64909" lon="1.4962">
        <ele>147.22</ele>
        <time>2026-05-26T07:24:38Z</time>
      </trkpt>
      <trkpt lat="43.64893" lon="1.49608">
        <ele>146.26</ele>
        <time>2026-05-26T07:24:53Z</time>
      </trkpt>
      <trkpt lat="43.64871" lon="1.49591">
        <ele>145.78</ele>
        <time>2026-05-26T07:25:08Z</time>
      </trkpt>
      <trkpt lat="43.64859" lon="1.4958">
        <ele>146.26</ele>
        <time>2026-05-26T07:25:23Z</time>
      </trkpt>
      <trkpt lat="43.64858" lon="1.49579">
        <ele>146.26</ele>
        <time>2026-05-26T07:25:24Z</time>
      </trkpt>
      <trkpt lat="43.64857" lon="1.49579">
        <ele>146.26</ele>
        <time>2026-05-26T07:25:25Z</time>
      </trkpt>
      <trkpt lat="43.64855" lon="1.49579">
        <ele>144.34</ele>
        <time>2026-05-26T07:25:26Z</time>
      </trkpt>
      <trkpt lat="43.64854" lon="1.49579">
        <ele>142.89</ele>
        <time>2026-05-26T07:25:27Z</time>
      </trkpt>
      <trkpt lat="43.64852" lon="1.49579">
        <ele>147.22</ele>
        <time>2026-05-26T07:25:28Z</time>
      </trkpt>
      <trkpt lat="43.64851" lon="1.49578">
        <ele>147.22</ele>
        <time>2026-05-26T07:25:29Z</time>
      </trkpt>
      <trkpt lat="43.6485" lon="1.49578">
        <ele>145.3</ele>
        <time>2026-05-26T07:25:30Z</time>
      </trkpt>
      <trkpt lat="43.64849" lon="1.49577">
        <ele>144.34</ele>
        <time>2026-05-26T07:25:31Z</time>
      </trkpt>
      <trkpt lat="43.64848" lon="1.49577">
        <ele>144.34</ele>
        <time>2026-05-26T07:25:32Z</time>
      </trkpt>
      <trkpt lat="43.64847" lon="1.49576">
        <ele>145.3</ele>
        <time>2026-05-26T07:25:34Z</time>
      </trkpt>
      <trkpt lat="43.64845" lon="1.49575">
        <ele>145.3</ele>
        <time>2026-05-26T07:25:36Z</time>
      </trkpt>
      <trkpt lat="43.64844" lon="1.49574">
        <ele>145.3</ele>
        <time>2026-05-26T07:25:37Z</time>
      </trkpt>
      <trkpt lat="43.64842" lon="1.49573">
        <ele>145.78</ele>
        <time>2026-05-26T07:25:38Z</time>
      </trkpt>
      <trkpt lat="43.6484" lon="1.49572">
        <ele>145.78</ele>
        <time>2026-05-26T07:25:40Z</time>
      </trkpt>
      <trkpt lat="43.64839" lon="1.49571">
        <ele>144.34</ele>
        <time>2026-05-26T07:25:41Z</time>
      </trkpt>
      <trkpt lat="43.64839" lon="1.4957">
        <ele>144.34</ele>
        <time>2026-05-26T07:25:42Z</time>
      </trkpt>
      <trkpt lat="43.64838" lon="1.49568">
        <ele>144.34</ele>
        <time>2026-05-26T07:25:43Z</time>
      </trkpt>
      <trkpt lat="43.64837" lon="1.49567">
        <ele>144.34</ele>
        <time>2026-05-26T07:25:44Z</time>
      </trkpt>
      <trkpt lat="43.64836" lon="1.49566">
        <ele>144.34</ele>
        <time>2026-05-26T07:25:45Z</time>
      </trkpt>
      <trkpt lat="43.64835" lon="1.49565">
        <ele>144.34</ele>
        <time>2026-05-26T07:25:46Z</time>
      </trkpt>
      <trkpt lat="43.64812" lon="1.49549">
        <ele>143.85</ele>
        <time>2026-05-26T07:26:04Z</time>
      </trkpt>
      <trkpt lat="43.64792" lon="1.49531">
        <ele>143.85</ele>
        <time>2026-05-26T07:26:24Z</time>
      </trkpt>
      <trkpt lat="43.64765" lon="1.49512">
        <ele>143.85</ele>
        <time>2026-05-26T07:26:44Z</time>
      </trkpt>
      <trkpt lat="43.6474" lon="1.49493">
        <ele>143.85</ele>
        <time>2026-05-26T07:27:06Z</time>
      </trkpt>
      <trkpt lat="43.6473" lon="1.49488">
        <ele>143.85</ele>
        <time>2026-05-26T07:27:14Z</time>
      </trkpt>
      <trkpt lat="43.64729" lon="1.49488">
        <ele>143.85</ele>
        <time>2026-05-26T07:27:15Z</time>
      </trkpt>
      <trkpt lat="43.64728" lon="1.49488">
        <ele>143.85</ele>
        <time>2026-05-26T07:27:16Z</time>
      </trkpt>
      <trkpt lat="43.64709" lon="1.4947">
        <ele>143.85</ele>
        <time>2026-05-26T07:27:34Z</time>
      </trkpt>
      <trkpt lat="43.64709" lon="1.49467">
        <ele>143.85</ele>
        <time>2026-05-26T07:27:36Z</time>
      </trkpt>
      <trkpt lat="43.64709" lon="1.49465">
        <ele>143.85</ele>
        <time>2026-05-26T07:27:37Z</time>
      </trkpt>
      <trkpt lat="43.64709" lon="1.49464">
        <ele>143.85</ele>
        <time>2026-05-26T07:27:38Z</time>
      </trkpt>
      <trkpt lat="43.64709" lon="1.49462">
        <ele>143.85</ele>
        <time>2026-05-26T07:27:39Z</time>
      </trkpt>
      <trkpt lat="43.64709" lon="1.49459">
        <ele>143.85</ele>
        <time>2026-05-26T07:27:40Z</time>
      </trkpt>
      <trkpt lat="43.64709" lon="1.49457">
        <ele>143.85</ele>
        <time>2026-05-26T07:27:41Z</time>
      </trkpt>
      <trkpt lat="43.64708" lon="1.49448">
        <ele>143.37</ele>
        <time>2026-05-26T07:27:46Z</time>
      </trkpt>
      <trkpt lat="43.64705" lon="1.49443">
        <ele>143.37</ele>
        <time>2026-05-26T07:27:50Z</time>
      </trkpt>
      <trkpt lat="43.64683" lon="1.49418">
        <ele>143.37</ele>
        <time>2026-05-26T07:28:09Z</time>
      </trkpt>
      <trkpt lat="43.6468" lon="1.49417">
        <ele>143.37</ele>
        <time>2026-05-26T07:28:11Z</time>
      </trkpt>
      <trkpt lat="43.64679" lon="1.49416">
        <ele>143.37</ele>
        <time>2026-05-26T07:28:12Z</time>
      </trkpt>
      <trkpt lat="43.64677" lon="1.49416">
        <ele>143.37</ele>
        <time>2026-05-26T07:28:13Z</time>
      </trkpt>
      <trkpt lat="43.64658" lon="1.49408">
        <ele>143.37</ele>
        <time>2026-05-26T07:28:30Z</time>
      </trkpt>
      <trkpt lat="43.64654" lon="1.494">
        <ele>143.37</ele>
        <time>2026-05-26T07:28:37Z</time>
      </trkpt>
      <trkpt lat="43.64653" lon="1.49398">
        <ele>143.37</ele>
        <time>2026-05-26T07:28:38Z</time>
      </trkpt>
      <trkpt lat="43.6465" lon="1.4939">
        <ele>143.37</ele>
        <time>2026-05-26T07:28:47Z</time>
      </trkpt>
      <trkpt lat="43.6465" lon="1.4937">
        <ele>142.89</ele>
        <time>2026-05-26T07:29:00Z</time>
      </trkpt>
      <trkpt lat="43.6465" lon="1.49366">
        <ele>143.37</ele>
        <time>2026-05-26T07:29:02Z</time>
      </trkpt>
      <trkpt lat="43.64649" lon="1.4935">
        <ele>143.37</ele>
        <time>2026-05-26T07:29:14Z</time>
      </trkpt>
      <trkpt lat="43.64648" lon="1.49334">
        <ele>144.82</ele>
        <time>2026-05-26T07:29:25Z</time>
      </trkpt>
      <trkpt lat="43.64647" lon="1.49334">
        <ele>144.82</ele>
        <time>2026-05-26T07:29:26Z</time>
      </trkpt>
      <trkpt lat="43.64632" lon="1.49324">
        <ele>144.34</ele>
        <time>2026-05-26T07:29:40Z</time>
      </trkpt>
      <trkpt lat="43.64631" lon="1.49322">
        <ele>144.34</ele>
        <time>2026-05-26T07:29:41Z</time>
      </trkpt>
      <trkpt lat="43.64631" lon="1.4932">
        <ele>144.34</ele>
        <time>2026-05-26T07:29:42Z</time>
      </trkpt>
      <trkpt lat="43.64631" lon="1.49308">
        <ele>142.89</ele>
        <time>2026-05-26T07:29:48Z</time>
      </trkpt>
      <trkpt lat="43.64635" lon="1.49292">
        <ele>141.93</ele>
        <time>2026-05-26T07:30:00Z</time>
      </trkpt>
      <trkpt lat="43.64635" lon="1.4929">
        <ele>141.45</ele>
        <time>2026-05-26T07:30:09Z</time>
      </trkpt>
      <trkpt lat="43.64635" lon="1.49288">
        <ele>141.45</ele>
        <time>2026-05-26T07:30:10Z</time>
      </trkpt>
      <trkpt lat="43.64636" lon="1.49286">
        <ele>141.45</ele>
        <time>2026-05-26T07:30:11Z</time>
      </trkpt>
      <trkpt lat="43.64639" lon="1.49278">
        <ele>141.45</ele>
        <time>2026-05-26T07:30:17Z</time>
      </trkpt>
      <trkpt lat="43.6464" lon="1.49277">
        <ele>141.45</ele>
        <time>2026-05-26T07:30:18Z</time>
      </trkpt>
      <trkpt lat="43.6464" lon="1.49275">
        <ele>141.45</ele>
        <time>2026-05-26T07:30:19Z</time>
      </trkpt>
      <trkpt lat="43.64658" lon="1.49255">
        <ele>141.45</ele>
        <time>2026-05-26T07:30:37Z</time>
      </trkpt>
      <trkpt lat="43.64659" lon="1.49254">
        <ele>141.45</ele>
        <time>2026-05-26T07:30:38Z</time>
      </trkpt>
      <trkpt lat="43.64661" lon="1.49253">
        <ele>141.45</ele>
        <time>2026-05-26T07:30:39Z</time>
      </trkpt>
      <trkpt lat="43.64662" lon="1.49251">
        <ele>141.45</ele>
        <time>2026-05-26T07:30:40Z</time>
      </trkpt>
      <trkpt lat="43.64674" lon="1.49231">
        <ele>141.45</ele>
        <time>2026-05-26T07:30:54Z</time>
      </trkpt>
      <trkpt lat="43.64687" lon="1.49203">
        <ele>141.45</ele>
        <time>2026-05-26T07:31:09Z</time>
      </trkpt>
      <trkpt lat="43.64697" lon="1.49187">
        <ele>140.97</ele>
        <time>2026-05-26T07:31:23Z</time>
      </trkpt>
      <trkpt lat="43.64699" lon="1.49183">
        <ele>140.97</ele>
        <time>2026-05-26T07:31:25Z</time>
      </trkpt>
      <trkpt lat="43.647" lon="1.49182">
        <ele>140.97</ele>
        <time>2026-05-26T07:31:26Z</time>
      </trkpt>
      <trkpt lat="43.64701" lon="1.4918">
        <ele>140.97</ele>
        <time>2026-05-26T07:31:27Z</time>
      </trkpt>
      <trkpt lat="43.64703" lon="1.49178">
        <ele>140.97</ele>
        <time>2026-05-26T07:31:28Z</time>
      </trkpt>
      <trkpt lat="43.64704" lon="1.49177">
        <ele>140.97</ele>
        <time>2026-05-26T07:31:29Z</time>
      </trkpt>
      <trkpt lat="43.64706" lon="1.49175">
        <ele>140.97</ele>
        <time>2026-05-26T07:31:30Z</time>
      </trkpt>
      <trkpt lat="43.64718" lon="1.49165">
        <ele>141.45</ele>
        <time>2026-05-26T07:31:42Z</time>
      </trkpt>
      <trkpt lat="43.64719" lon="1.49164">
        <ele>141.45</ele>
        <time>2026-05-26T07:31:43Z</time>
      </trkpt>
      <trkpt lat="43.64722" lon="1.49161">
        <ele>141.45</ele>
        <time>2026-05-26T07:31:46Z</time>
      </trkpt>
      <trkpt lat="43.64735" lon="1.49141">
        <ele>140.97</ele>
        <time>2026-05-26T07:31:58Z</time>
      </trkpt>
      <trkpt lat="43.64749" lon="1.49124">
        <ele>140.97</ele>
        <time>2026-05-26T07:32:15Z</time>
      </trkpt>
      <trkpt lat="43.64758" lon="1.49104">
        <ele>140.97</ele>
        <time>2026-05-26T07:32:29Z</time>
      </trkpt>
      <trkpt lat="43.64764" lon="1.4907">
        <ele>141.93</ele>
        <time>2026-05-26T07:32:45Z</time>
      </trkpt>
      <trkpt lat="43.64764" lon="1.49066">
        <ele>140.97</ele>
        <time>2026-05-26T07:32:48Z</time>
      </trkpt>
      <trkpt lat="43.64761" lon="1.49059">
        <ele>140.97</ele>
        <time>2026-05-26T07:32:54Z</time>
      </trkpt>
      <trkpt lat="43.64739" lon="1.49043">
        <ele>140.97</ele>
        <time>2026-05-26T07:33:09Z</time>
      </trkpt>
      <trkpt lat="43.64727" lon="1.49039">
        <ele>140.97</ele>
        <time>2026-05-26T07:33:22Z</time>
      </trkpt>
      <trkpt lat="43.64699" lon="1.49031">
        <ele>140.97</ele>
        <time>2026-05-26T07:33:39Z</time>
      </trkpt>
      <trkpt lat="43.64684" lon="1.49018">
        <ele>140.97</ele>
        <time>2026-05-26T07:33:54Z</time>
      </trkpt>
      <trkpt lat="43.64683" lon="1.49016">
        <ele>140.97</ele>
        <time>2026-05-26T07:33:55Z</time>
      </trkpt>
      <trkpt lat="43.64682" lon="1.49014">
        <ele>140.97</ele>
        <time>2026-05-26T07:33:56Z</time>
      </trkpt>
      <trkpt lat="43.64682" lon="1.49012">
        <ele>140.97</ele>
        <time>2026-05-26T07:33:57Z</time>
      </trkpt>
      <trkpt lat="43.64681" lon="1.4901">
        <ele>140.97</ele>
        <time>2026-05-26T07:33:58Z</time>
      </trkpt>
      <trkpt lat="43.64677" lon="1.49001">
        <ele>140.97</ele>
        <time>2026-05-26T07:34:06Z</time>
      </trkpt>
      <trkpt lat="43.6468" lon="1.48997">
        <ele>141.45</ele>
        <time>2026-05-26T07:34:20Z</time>
      </trkpt>
      <trkpt lat="43.64675" lon="1.48994">
        <ele>141.45</ele>
        <time>2026-05-26T07:34:46Z</time>
      </trkpt>
      <trkpt lat="43.64675" lon="1.48994">
        <ele>141.45</ele>
        <time>2026-05-26T07:34:47Z</time>
      </trkpt>
      <trkpt lat="43.64673" lon="1.48983">
        <ele>141.45</ele>
        <time>2026-05-26T07:34:59Z</time>
      </trkpt>
      <trkpt lat="43.64673" lon="1.48982">
        <ele>141.45</ele>
        <time>2026-05-26T07:35:00Z</time>
      </trkpt>
      <trkpt lat="43.64672" lon="1.4898">
        <ele>141.45</ele>
        <time>2026-05-26T07:35:01Z</time>
      </trkpt>
      <trkpt lat="43.64672" lon="1.48979">
        <ele>141.45</ele>
        <time>2026-05-26T07:35:02Z</time>
      </trkpt>
      <trkpt lat="43.64665" lon="1.48956">
        <ele>141.45</ele>
        <time>2026-05-26T07:35:17Z</time>
      </trkpt>
      <trkpt lat="43.64658" lon="1.4893">
        <ele>141.45</ele>
        <time>2026-05-26T07:35:33Z</time>
      </trkpt>
      <trkpt lat="43.64643" lon="1.48907">
        <ele>140.01</ele>
        <time>2026-05-26T07:35:47Z</time>
      </trkpt>
      <trkpt lat="43.6463" lon="1.48893">
        <ele>137.13</ele>
        <time>2026-05-26T07:36:02Z</time>
      </trkpt>
      <trkpt lat="43.64629" lon="1.48892">
        <ele>141.93</ele>
        <time>2026-05-26T07:36:03Z</time>
      </trkpt>
      <trkpt lat="43.64629" lon="1.4889">
        <ele>141.93</ele>
        <time>2026-05-26T07:36:04Z</time>
      </trkpt>
      <trkpt lat="43.64628" lon="1.48889">
        <ele>141.93</ele>
        <time>2026-05-26T07:36:05Z</time>
      </trkpt>
      <trkpt lat="43.64627" lon="1.48889">
        <ele>140.49</ele>
        <time>2026-05-26T07:36:07Z</time>
      </trkpt>
      <trkpt lat="43.64618" lon="1.48884">
        <ele>140.49</ele>
        <time>2026-05-26T07:36:15Z</time>
      </trkpt>
      <trkpt lat="43.64616" lon="1.48883">
        <ele>140.49</ele>
        <time>2026-05-26T07:36:16Z</time>
      </trkpt>
      <trkpt lat="43.64615" lon="1.48883">
        <ele>140.49</ele>
        <time>2026-05-26T07:36:17Z</time>
      </trkpt>
      <trkpt lat="43.64614" lon="1.48883">
        <ele>140.49</ele>
        <time>2026-05-26T07:36:18Z</time>
      </trkpt>
      <trkpt lat="43.64612" lon="1.48883">
        <ele>140.49</ele>
        <time>2026-05-26T07:36:19Z</time>
      </trkpt>
      <trkpt lat="43.64611" lon="1.48883">
        <ele>140.49</ele>
        <time>2026-05-26T07:36:20Z</time>
      </trkpt>
      <trkpt lat="43.64591" lon="1.4888">
        <ele>140.49</ele>
        <time>2026-05-26T07:36:35Z</time>
      </trkpt>
      <trkpt lat="43.64569" lon="1.48877">
        <ele>140.01</ele>
        <time>2026-05-26T07:36:52Z</time>
      </trkpt>
      <trkpt lat="43.6454" lon="1.48874">
        <ele>140.01</ele>
        <time>2026-05-26T07:37:10Z</time>
      </trkpt>
      <trkpt lat="43.64527" lon="1.48873">
        <ele>140.01</ele>
        <time>2026-05-26T07:37:22Z</time>
      </trkpt>
      <trkpt lat="43.64526" lon="1.48873">
        <ele>140.01</ele>
        <time>2026-05-26T07:37:23Z</time>
      </trkpt>
      <trkpt lat="43.64525" lon="1.48873">
        <ele>140.01</ele>
        <time>2026-05-26T07:37:24Z</time>
      </trkpt>
      <trkpt lat="43.64524" lon="1.48872">
        <ele>140.01</ele>
        <time>2026-05-26T07:37:25Z</time>
      </trkpt>
      <trkpt lat="43.64522" lon="1.48872">
        <ele>140.01</ele>
        <time>2026-05-26T07:37:26Z</time>
      </trkpt>
      <trkpt lat="43.64521" lon="1.48872">
        <ele>140.01</ele>
        <time>2026-05-26T07:37:27Z</time>
      </trkpt>
      <trkpt lat="43.64488" lon="1.4887">
        <ele>140.01</ele>
        <time>2026-05-26T07:37:49Z</time>
      </trkpt>
      <trkpt lat="43.6446" lon="1.48865">
        <ele>140.01</ele>
        <time>2026-05-26T07:38:11Z</time>
      </trkpt>
      <trkpt lat="43.64441" lon="1.48857">
        <ele>139.53</ele>
        <time>2026-05-26T07:38:26Z</time>
      </trkpt>
      <trkpt lat="43.64416" lon="1.48856">
        <ele>139.53</ele>
        <time>2026-05-26T07:38:42Z</time>
      </trkpt>
      <trkpt lat="43.64406" lon="1.48858">
        <ele>139.53</ele>
        <time>2026-05-26T07:38:52Z</time>
      </trkpt>
      <trkpt lat="43.64405" lon="1.48859">
        <ele>139.53</ele>
        <time>2026-05-26T07:38:53Z</time>
      </trkpt>
      <trkpt lat="43.64381" lon="1.48855">
        <ele>139.53</ele>
        <time>2026-05-26T07:39:07Z</time>
      </trkpt>
      <trkpt lat="43.64364" lon="1.48853">
        <ele>139.53</ele>
        <time>2026-05-26T07:39:22Z</time>
      </trkpt>
      <trkpt lat="43.64353" lon="1.48858">
        <ele>140.49</ele>
        <time>2026-05-26T07:39:38Z</time>
      </trkpt>
      <trkpt lat="43.64355" lon="1.48858">
        <ele>141.93</ele>
        <time>2026-05-26T07:39:40Z</time>
      </trkpt>
      <trkpt lat="43.64356" lon="1.48857">
        <ele>141.93</ele>
        <time>2026-05-26T07:39:41Z</time>
      </trkpt>
      <trkpt lat="43.64358" lon="1.48856">
        <ele>140.49</ele>
        <time>2026-05-26T07:39:43Z</time>
      </trkpt>
      <trkpt lat="43.64355" lon="1.4886">
        <ele>140.49</ele>
        <time>2026-05-26T07:39:58Z</time>
      </trkpt>
      <trkpt lat="43.64354" lon="1.4886">
        <ele>140.49</ele>
        <time>2026-05-26T07:40:00Z</time>
      </trkpt>
      <trkpt lat="43.64336" lon="1.48855">
        <ele>140.49</ele>
        <time>2026-05-26T07:40:15Z</time>
      </trkpt>
      <trkpt lat="43.64323" lon="1.48846">
        <ele>140.01</ele>
        <time>2026-05-26T07:40:29Z</time>
      </trkpt>
      <trkpt lat="43.64323" lon="1.48844">
        <ele>140.01</ele>
        <time>2026-05-26T07:40:57Z</time>
      </trkpt>
      <trkpt lat="43.64324" lon="1.48845">
        <ele>140.01</ele>
        <time>2026-05-26T07:41:29Z</time>
      </trkpt>
      <trkpt lat="43.64309" lon="1.48838">
        <ele>139.53</ele>
        <time>2026-05-26T07:41:51Z</time>
      </trkpt>
      <trkpt lat="43.64303" lon="1.48837">
        <ele>139.53</ele>
        <time>2026-05-26T07:41:58Z</time>
      </trkpt>
      <trkpt lat="43.643" lon="1.48837">
        <ele>139.53</ele>
        <time>2026-05-26T07:41:59Z</time>
      </trkpt>
      <trkpt lat="43.64299" lon="1.48836">
        <ele>139.53</ele>
        <time>2026-05-26T07:42:00Z</time>
      </trkpt>
      <trkpt lat="43.6429" lon="1.48829">
        <ele>140.97</ele>
        <time>2026-05-26T07:42:09Z</time>
      </trkpt>
      <trkpt lat="43.6429" lon="1.48827">
        <ele>140.97</ele>
        <time>2026-05-26T07:42:10Z</time>
      </trkpt>
      <trkpt lat="43.6429" lon="1.48825">
        <ele>140.97</ele>
        <time>2026-05-26T07:42:11Z</time>
      </trkpt>
      <trkpt lat="43.64289" lon="1.48823">
        <ele>140.97</ele>
        <time>2026-05-26T07:42:12Z</time>
      </trkpt>
      <trkpt lat="43.64289" lon="1.48821">
        <ele>140.97</ele>
        <time>2026-05-26T07:42:13Z</time>
      </trkpt>
      <trkpt lat="43.64288" lon="1.48819">
        <ele>140.97</ele>
        <time>2026-05-26T07:42:14Z</time>
      </trkpt>
      <trkpt lat="43.64288" lon="1.48818">
        <ele>140.97</ele>
        <time>2026-05-26T07:42:15Z</time>
      </trkpt>
      <trkpt lat="43.64288" lon="1.48816">
        <ele>140.97</ele>
        <time>2026-05-26T07:42:16Z</time>
      </trkpt>
      <trkpt lat="43.64289" lon="1.48791">
        <ele>141.45</ele>
        <time>2026-05-26T07:42:30Z</time>
      </trkpt>
      <trkpt lat="43.64286" lon="1.48759">
        <ele>141.45</ele>
        <time>2026-05-26T07:42:47Z</time>
      </trkpt>
      <trkpt lat="43.64284" lon="1.48726">
        <ele>141.45</ele>
        <time>2026-05-26T07:43:04Z</time>
      </trkpt>
      <trkpt lat="43.64285" lon="1.48698">
        <ele>141.45</ele>
        <time>2026-05-26T07:43:20Z</time>
      </trkpt>
      <trkpt lat="43.6429" lon="1.48659">
        <ele>140.01</ele>
        <time>2026-05-26T07:43:39Z</time>
      </trkpt>
      <trkpt lat="43.64294" lon="1.4864">
        <ele>140.01</ele>
        <time>2026-05-26T07:43:50Z</time>
      </trkpt>
      <trkpt lat="43.64296" lon="1.48612">
        <ele>140.01</ele>
        <time>2026-05-26T07:44:05Z</time>
      </trkpt>
      <trkpt lat="43.64297" lon="1.48579">
        <ele>139.53</ele>
        <time>2026-05-26T07:44:24Z</time>
      </trkpt>
      <trkpt lat="43.64298" lon="1.48572">
        <ele>139.53</ele>
        <time>2026-05-26T07:44:28Z</time>
      </trkpt>
      <trkpt lat="43.643" lon="1.48555">
        <ele>139.53</ele>
        <time>2026-05-26T07:44:37Z</time>
      </trkpt>
      <trkpt lat="43.64301" lon="1.48552">
        <ele>139.53</ele>
        <time>2026-05-26T07:44:38Z</time>
      </trkpt>
      <trkpt lat="43.64301" lon="1.48551">
        <ele>139.53</ele>
        <time>2026-05-26T07:44:39Z</time>
      </trkpt>
      <trkpt lat="43.64301" lon="1.48549">
        <ele>139.53</ele>
        <time>2026-05-26T07:44:40Z</time>
      </trkpt>
      <trkpt lat="43.64302" lon="1.48547">
        <ele>139.53</ele>
        <time>2026-05-26T07:44:41Z</time>
      </trkpt>
      <trkpt lat="43.64302" lon="1.48545">
        <ele>139.53</ele>
        <time>2026-05-26T07:44:42Z</time>
      </trkpt>
      <trkpt lat="43.64303" lon="1.48543">
        <ele>139.53</ele>
        <time>2026-05-26T07:44:43Z</time>
      </trkpt>
      <trkpt lat="43.64304" lon="1.48541">
        <ele>139.53</ele>
        <time>2026-05-26T07:44:44Z</time>
      </trkpt>
      <trkpt lat="43.64304" lon="1.48539">
        <ele>139.53</ele>
        <time>2026-05-26T07:44:45Z</time>
      </trkpt>
      <trkpt lat="43.64308" lon="1.48512">
        <ele>139.53</ele>
        <time>2026-05-26T07:45:01Z</time>
      </trkpt>
      <trkpt lat="43.64309" lon="1.48504">
        <ele>139.05</ele>
        <time>2026-05-26T07:45:05Z</time>
      </trkpt>
      <trkpt lat="43.64314" lon="1.4846">
        <ele>139.05</ele>
        <time>2026-05-26T07:45:24Z</time>
      </trkpt>
      <trkpt lat="43.64316" lon="1.48431">
        <ele>138.57</ele>
        <time>2026-05-26T07:45:43Z</time>
      </trkpt>
      <trkpt lat="43.64321" lon="1.48389">
        <ele>138.57</ele>
        <time>2026-05-26T07:46:02Z</time>
      </trkpt>
      <trkpt lat="43.64324" lon="1.48353">
        <ele>138.09</ele>
        <time>2026-05-26T07:46:20Z</time>
      </trkpt>
      <trkpt lat="43.64318" lon="1.48321">
        <ele>138.09</ele>
        <time>2026-05-26T07:46:38Z</time>
      </trkpt>
      <trkpt lat="43.64309" lon="1.48298">
        <ele>137.61</ele>
        <time>2026-05-26T07:46:51Z</time>
      </trkpt>
      <trkpt lat="43.64295" lon="1.48275">
        <ele>138.57</ele>
        <time>2026-05-26T07:47:08Z</time>
      </trkpt>
      <trkpt lat="43.64295" lon="1.48273">
        <ele>138.57</ele>
        <time>2026-05-26T07:47:09Z</time>
      </trkpt>
      <trkpt lat="43.64296" lon="1.48271">
        <ele>138.57</ele>
        <time>2026-05-26T07:47:11Z</time>
      </trkpt>
      <trkpt lat="43.64297" lon="1.48271">
        <ele>138.57</ele>
        <time>2026-05-26T07:47:12Z</time>
      </trkpt>
      <trkpt lat="43.64312" lon="1.48257">
        <ele>138.57</ele>
        <time>2026-05-26T07:47:27Z</time>
      </trkpt>
      <trkpt lat="43.64322" lon="1.48241">
        <ele>139.53</ele>
        <time>2026-05-26T07:47:43Z</time>
      </trkpt>
      <trkpt lat="43.6432" lon="1.48243">
        <ele>140.01</ele>
        <time>2026-05-26T07:47:53Z</time>
      </trkpt>
      <trkpt lat="43.64306" lon="1.48262">
        <ele>140.01</ele>
        <time>2026-05-26T07:48:10Z</time>
      </trkpt>
      <trkpt lat="43.64294" lon="1.48268">
        <ele>138.57</ele>
        <time>2026-05-26T07:48:20Z</time>
      </trkpt>
      <trkpt lat="43.64287" lon="1.48264">
        <ele>137.61</ele>
        <time>2026-05-26T07:48:30Z</time>
      </trkpt>
      <trkpt lat="43.6429" lon="1.48258">
        <ele>137.61</ele>
        <time>2026-05-26T07:48:35Z</time>
      </trkpt>
      <trkpt lat="43.6429" lon="1.48257">
        <ele>137.61</ele>
        <time>2026-05-26T07:48:36Z</time>
      </trkpt>
      <trkpt lat="43.6429" lon="1.48255">
        <ele>137.61</ele>
        <time>2026-05-26T07:48:37Z</time>
      </trkpt>
      <trkpt lat="43.64291" lon="1.48233">
        <ele>137.61</ele>
        <time>2026-05-26T07:48:50Z</time>
      </trkpt>
      <trkpt lat="43.64296" lon="1.48225">
        <ele>138.09</ele>
        <time>2026-05-26T07:48:55Z</time>
      </trkpt>
      <trkpt lat="43.64298" lon="1.48223">
        <ele>138.09</ele>
        <time>2026-05-26T07:48:56Z</time>
      </trkpt>
      <trkpt lat="43.64299" lon="1.48222">
        <ele>138.09</ele>
        <time>2026-05-26T07:48:57Z</time>
      </trkpt>
      <trkpt lat="43.643" lon="1.4822">
        <ele>138.09</ele>
        <time>2026-05-26T07:48:58Z</time>
      </trkpt>
      <trkpt lat="43.64301" lon="1.48218">
        <ele>138.09</ele>
        <time>2026-05-26T07:48:59Z</time>
      </trkpt>
      <trkpt lat="43.64317" lon="1.48189">
        <ele>138.09</ele>
        <time>2026-05-26T07:49:16Z</time>
      </trkpt>
      <trkpt lat="43.6433" lon="1.48161">
        <ele>138.09</ele>
        <time>2026-05-26T07:49:35Z</time>
      </trkpt>
      <trkpt lat="43.64355" lon="1.48131">
        <ele>138.09</ele>
        <time>2026-05-26T07:50:00Z</time>
      </trkpt>
      <trkpt lat="43.64381" lon="1.48115">
        <ele>138.09</ele>
        <time>2026-05-26T07:50:21Z</time>
      </trkpt>
      <trkpt lat="43.64397" lon="1.48092">
        <ele>137.13</ele>
        <time>2026-05-26T07:50:37Z</time>
      </trkpt>
      <trkpt lat="43.64393" lon="1.48065">
        <ele>137.13</ele>
        <time>2026-05-26T07:50:54Z</time>
      </trkpt>
      <trkpt lat="43.64391" lon="1.48058">
        <ele>137.13</ele>
        <time>2026-05-26T07:50:58Z</time>
      </trkpt>
      <trkpt lat="43.64376" lon="1.48016">
        <ele>137.13</ele>
        <time>2026-05-26T07:51:19Z</time>
      </trkpt>
      <trkpt lat="43.64363" lon="1.47988">
        <ele>137.13</ele>
        <time>2026-05-26T07:51:37Z</time>
      </trkpt>
      <trkpt lat="43.64352" lon="1.47954">
        <ele>137.13</ele>
        <time>2026-05-26T07:51:59Z</time>
      </trkpt>
      <trkpt lat="43.6434" lon="1.47916">
        <ele>137.13</ele>
        <time>2026-05-26T07:52:18Z</time>
      </trkpt>
      <trkpt lat="43.64326" lon="1.4789">
        <ele>137.13</ele>
        <time>2026-05-26T07:52:35Z</time>
      </trkpt>
      <trkpt lat="43.64313" lon="1.47852">
        <ele>137.13</ele>
        <time>2026-05-26T07:52:57Z</time>
      </trkpt>
      <trkpt lat="43.64303" lon="1.47818">
        <ele>137.13</ele>
        <time>2026-05-26T07:53:16Z</time>
      </trkpt>
      <trkpt lat="43.64287" lon="1.47789">
        <ele>137.13</ele>
        <time>2026-05-26T07:53:35Z</time>
      </trkpt>
      <trkpt lat="43.6427" lon="1.47756">
        <ele>136.64</ele>
        <time>2026-05-26T07:53:57Z</time>
      </trkpt>
      <trkpt lat="43.64253" lon="1.47722">
        <ele>136.64</ele>
        <time>2026-05-26T07:54:19Z</time>
      </trkpt>
      <trkpt lat="43.64243" lon="1.4769">
        <ele>136.16</ele>
        <time>2026-05-26T07:54:38Z</time>
      </trkpt>
      <trkpt lat="43.64238" lon="1.47685">
        <ele>136.16</ele>
        <time>2026-05-26T07:54:44Z</time>
      </trkpt>
      <trkpt lat="43.64211" lon="1.47684">
        <ele>135.68</ele>
        <time>2026-05-26T07:55:01Z</time>
      </trkpt>
      <trkpt lat="43.64201" lon="1.47702">
        <ele>135.2</ele>
        <time>2026-05-26T07:55:13Z</time>
      </trkpt>
      <trkpt lat="43.642" lon="1.47705">
        <ele>136.64</ele>
        <time>2026-05-26T07:55:16Z</time>
      </trkpt>
      <trkpt lat="43.64196" lon="1.47712">
        <ele>136.64</ele>
        <time>2026-05-26T07:55:21Z</time>
      </trkpt>
      <trkpt lat="43.64195" lon="1.47713">
        <ele>136.64</ele>
        <time>2026-05-26T07:55:22Z</time>
      </trkpt>
      <trkpt lat="43.64187" lon="1.47724">
        <ele>136.64</ele>
        <time>2026-05-26T07:55:35Z</time>
      </trkpt>
      <trkpt lat="43.64187" lon="1.47726">
        <ele>136.64</ele>
        <time>2026-05-26T07:55:41Z</time>
      </trkpt>
      <trkpt lat="43.64186" lon="1.47727">
        <ele>136.64</ele>
        <time>2026-05-26T07:55:42Z</time>
      </trkpt>
      <trkpt lat="43.64175" lon="1.47742">
        <ele>136.64</ele>
        <time>2026-05-26T07:55:55Z</time>
      </trkpt>
      <trkpt lat="43.64152" lon="1.47769">
        <ele>136.64</ele>
        <time>2026-05-26T07:56:15Z</time>
      </trkpt>
      <trkpt lat="43.6414" lon="1.47779">
        <ele>136.64</ele>
        <time>2026-05-26T07:56:28Z</time>
      </trkpt>
      <trkpt lat="43.64117" lon="1.47791">
        <ele>137.13</ele>
        <time>2026-05-26T07:56:46Z</time>
      </trkpt>
      <trkpt lat="43.64091" lon="1.47797">
        <ele>137.13</ele>
        <time>2026-05-26T07:57:02Z</time>
      </trkpt>
      <trkpt lat="43.64083" lon="1.47804">
        <ele>137.13</ele>
        <time>2026-05-26T07:57:13Z</time>
      </trkpt>
      <trkpt lat="43.6406" lon="1.47813">
        <ele>137.13</ele>
        <time>2026-05-26T07:57:30Z</time>
      </trkpt>
      <trkpt lat="43.64059" lon="1.47813">
        <ele>137.13</ele>
        <time>2026-05-26T07:57:32Z</time>
      </trkpt>
      <trkpt lat="43.64058" lon="1.47814">
        <ele>137.13</ele>
        <time>2026-05-26T07:57:33Z</time>
      </trkpt>
      <trkpt lat="43.64033" lon="1.47817">
        <ele>137.13</ele>
        <time>2026-05-26T07:57:51Z</time>
      </trkpt>
      <trkpt lat="43.64006" lon="1.47822">
        <ele>137.13</ele>
        <time>2026-05-26T07:58:10Z</time>
      </trkpt>
      <trkpt lat="43.63997" lon="1.47822">
        <ele>137.13</ele>
        <time>2026-05-26T07:58:26Z</time>
      </trkpt>
      <trkpt lat="43.63987" lon="1.47825">
        <ele>137.13</ele>
        <time>2026-05-26T07:58:58Z</time>
      </trkpt>
      <trkpt lat="43.63963" lon="1.47826">
        <ele>137.13</ele>
        <time>2026-05-26T07:59:16Z</time>
      </trkpt>
      <trkpt lat="43.63935" lon="1.47829">
        <ele>137.13</ele>
        <time>2026-05-26T07:59:36Z</time>
      </trkpt>
      <trkpt lat="43.63913" lon="1.47829">
        <ele>137.13</ele>
        <time>2026-05-26T07:59:51Z</time>
      </trkpt>
      <trkpt lat="43.63903" lon="1.47833">
        <ele>137.13</ele>
        <time>2026-05-26T08:00:08Z</time>
      </trkpt>
      <trkpt lat="43.63905" lon="1.47833">
        <ele>136.16</ele>
        <time>2026-05-26T08:00:18Z</time>
      </trkpt>
      <trkpt lat="43.63904" lon="1.47834">
        <ele>137.61</ele>
        <time>2026-05-26T08:00:20Z</time>
      </trkpt>
      <trkpt lat="43.63903" lon="1.47834">
        <ele>136.64</ele>
        <time>2026-05-26T08:00:35Z</time>
      </trkpt>
      <trkpt lat="43.63985" lon="1.4782">
        <ele>142.41</ele>
        <time>2026-05-26T08:02:03Z</time>
      </trkpt>
      <trkpt lat="43.63984" lon="1.47822">
        <ele>140.97</ele>
        <time>2026-05-26T08:02:28Z</time>
      </trkpt>
      <trkpt lat="43.6399" lon="1.4782">
        <ele>140.97</ele>
        <time>2026-05-26T08:02:49Z</time>
      </trkpt>
      <trkpt lat="43.63993" lon="1.4782">
        <ele>140.97</ele>
        <time>2026-05-26T08:03:01Z</time>
      </trkpt>
      <trkpt lat="43.63988" lon="1.4782">
        <ele>140.97</ele>
        <time>2026-05-26T08:03:09Z</time>
      </trkpt>
      <trkpt lat="43.63987" lon="1.4782">
        <ele>142.41</ele>
        <time>2026-05-26T08:03:12Z</time>
      </trkpt>
      <trkpt lat="43.63986" lon="1.4782">
        <ele>140.97</ele>
        <time>2026-05-26T08:03:13Z</time>
      </trkpt>
      <trkpt lat="43.63984" lon="1.47821">
        <ele>140.97</ele>
        <time>2026-05-26T08:03:16Z</time>
      </trkpt>
      <trkpt lat="43.63971" lon="1.47823">
        <ele>141.93</ele>
        <time>2026-05-26T08:03:26Z</time>
      </trkpt>
      <trkpt lat="43.63945" lon="1.47828">
        <ele>141.93</ele>
        <time>2026-05-26T08:03:41Z</time>
      </trkpt>
      <trkpt lat="43.63926" lon="1.47834">
        <ele>141.93</ele>
        <time>2026-05-26T08:03:53Z</time>
      </trkpt>
      <trkpt lat="43.63906" lon="1.47834">
        <ele>142.41</ele>
        <time>2026-05-26T08:04:08Z</time>
      </trkpt>
      <trkpt lat="43.63889" lon="1.4784">
        <ele>141.45</ele>
        <time>2026-05-26T08:04:22Z</time>
      </trkpt>
      <trkpt lat="43.63881" lon="1.4785">
        <ele>141.45</ele>
        <time>2026-05-26T08:04:42Z</time>
      </trkpt>
      <trkpt lat="43.63853" lon="1.47843">
        <ele>141.45</ele>
        <time>2026-05-26T08:05:01Z</time>
      </trkpt>
      <trkpt lat="43.63812" lon="1.47841">
        <ele>141.45</ele>
        <time>2026-05-26T08:05:29Z</time>
      </trkpt>
      <trkpt lat="43.63788" lon="1.47845">
        <ele>140.97</ele>
        <time>2026-05-26T08:05:48Z</time>
      </trkpt>
      <trkpt lat="43.63784" lon="1.47846">
        <ele>142.41</ele>
        <time>2026-05-26T08:05:50Z</time>
      </trkpt>
      <trkpt lat="43.63752" lon="1.47857">
        <ele>142.89</ele>
        <time>2026-05-26T08:06:09Z</time>
      </trkpt>
      <trkpt lat="43.63697" lon="1.47867">
        <ele>142.89</ele>
        <time>2026-05-26T08:06:28Z</time>
      </trkpt>
      <trkpt lat="43.63693" lon="1.47868">
        <ele>142.89</ele>
        <time>2026-05-26T08:06:29Z</time>
      </trkpt>
      <trkpt lat="43.63691" lon="1.47868">
        <ele>142.89</ele>
        <time>2026-05-26T08:06:30Z</time>
      </trkpt>
      <trkpt lat="43.63688" lon="1.47869">
        <ele>142.41</ele>
        <time>2026-05-26T08:06:31Z</time>
      </trkpt>
      <trkpt lat="43.63686" lon="1.4787">
        <ele>142.89</ele>
        <time>2026-05-26T08:06:32Z</time>
      </trkpt>
      <trkpt lat="43.63683" lon="1.4787">
        <ele>142.89</ele>
        <time>2026-05-26T08:06:33Z</time>
      </trkpt>
      <trkpt lat="43.63681" lon="1.4787">
        <ele>142.89</ele>
        <time>2026-05-26T08:06:34Z</time>
      </trkpt>
      <trkpt lat="43.63666" lon="1.4787">
        <ele>141.45</ele>
        <time>2026-05-26T08:06:40Z</time>
      </trkpt>
      <trkpt lat="43.63655" lon="1.47873">
        <ele>141.45</ele>
        <time>2026-05-26T08:06:47Z</time>
      </trkpt>
      <trkpt lat="43.63654" lon="1.47874">
        <ele>141.45</ele>
        <time>2026-05-26T08:06:48Z</time>
      </trkpt>
      <trkpt lat="43.63653" lon="1.47875">
        <ele>141.45</ele>
        <time>2026-05-26T08:06:49Z</time>
      </trkpt>
      <trkpt lat="43.63649" lon="1.47876">
        <ele>141.45</ele>
        <time>2026-05-26T08:06:51Z</time>
      </trkpt>
      <trkpt lat="43.63647" lon="1.47875">
        <ele>141.45</ele>
        <time>2026-05-26T08:06:52Z</time>
      </trkpt>
      <trkpt lat="43.63646" lon="1.47875">
        <ele>141.45</ele>
        <time>2026-05-26T08:06:53Z</time>
      </trkpt>
      <trkpt lat="43.63644" lon="1.47875">
        <ele>141.45</ele>
        <time>2026-05-26T08:06:54Z</time>
      </trkpt>
      <trkpt lat="43.63642" lon="1.47875">
        <ele>141.45</ele>
        <time>2026-05-26T08:06:55Z</time>
      </trkpt>
      <trkpt lat="43.63591" lon="1.47877">
        <ele>140.97</ele>
        <time>2026-05-26T08:07:11Z</time>
      </trkpt>
      <trkpt lat="43.63576" lon="1.47887">
        <ele>141.93</ele>
        <time>2026-05-26T08:07:32Z</time>
      </trkpt>
      <trkpt lat="43.63577" lon="1.47889">
        <ele>141.93</ele>
        <time>2026-05-26T08:07:34Z</time>
      </trkpt>
      <trkpt lat="43.63579" lon="1.47893">
        <ele>142.41</ele>
        <time>2026-05-26T08:07:39Z</time>
      </trkpt>
      <trkpt lat="43.6358" lon="1.47906">
        <ele>142.41</ele>
        <time>2026-05-26T08:07:48Z</time>
      </trkpt>
      <trkpt lat="43.63583" lon="1.47926">
        <ele>141.93</ele>
        <time>2026-05-26T08:08:06Z</time>
      </trkpt>
      <trkpt lat="43.63587" lon="1.47927">
        <ele>141.93</ele>
        <time>2026-05-26T08:08:23Z</time>
      </trkpt>
      <trkpt lat="43.63582" lon="1.47919">
        <ele>141.93</ele>
        <time>2026-05-26T08:08:36Z</time>
      </trkpt>
      <trkpt lat="43.63582" lon="1.47915">
        <ele>141.93</ele>
        <time>2026-05-26T08:08:38Z</time>
      </trkpt>
      <trkpt lat="43.63582" lon="1.47912">
        <ele>141.93</ele>
        <time>2026-05-26T08:08:39Z</time>
      </trkpt>
      <trkpt lat="43.63582" lon="1.4791">
        <ele>141.93</ele>
        <time>2026-05-26T08:08:40Z</time>
      </trkpt>
      <trkpt lat="43.63584" lon="1.47888">
        <ele>141.93</ele>
        <time>2026-05-26T08:08:53Z</time>
      </trkpt>
      <trkpt lat="43.63594" lon="1.47881">
        <ele>141.93</ele>
        <time>2026-05-26T08:09:06Z</time>
      </trkpt>
      <trkpt lat="43.63613" lon="1.47878">
        <ele>140.49</ele>
        <time>2026-05-26T08:09:24Z</time>
      </trkpt>
      <trkpt lat="43.63621" lon="1.4788">
        <ele>140.49</ele>
        <time>2026-05-26T08:09:31Z</time>
      </trkpt>
      <trkpt lat="43.63623" lon="1.47879">
        <ele>140.49</ele>
        <time>2026-05-26T08:09:32Z</time>
      </trkpt>
      <trkpt lat="43.63633" lon="1.47879">
        <ele>140.49</ele>
        <time>2026-05-26T08:09:42Z</time>
      </trkpt>
      <trkpt lat="43.63635" lon="1.4788">
        <ele>140.49</ele>
        <time>2026-05-26T08:09:43Z</time>
      </trkpt>
      <trkpt lat="43.63636" lon="1.4788">
        <ele>140.49</ele>
        <time>2026-05-26T08:09:44Z</time>
      </trkpt>
      <trkpt lat="43.63643" lon="1.47881">
        <ele>141.93</ele>
        <time>2026-05-26T08:09:53Z</time>
      </trkpt>
      <trkpt lat="43.63643" lon="1.47882">
        <ele>141.93</ele>
        <time>2026-05-26T08:09:54Z</time>
      </trkpt>
      <trkpt lat="43.63642" lon="1.47884">
        <ele>141.93</ele>
        <time>2026-05-26T08:09:55Z</time>
      </trkpt>
      <trkpt lat="43.63644" lon="1.47927">
        <ele>142.41</ele>
        <time>2026-05-26T08:10:16Z</time>
      </trkpt>
      <trkpt lat="43.63643" lon="1.47955">
        <ele>141.93</ele>
        <time>2026-05-26T08:10:32Z</time>
      </trkpt>
      <trkpt lat="43.63633" lon="1.48001">
        <ele>141.93</ele>
        <time>2026-05-26T08:10:56Z</time>
      </trkpt>
      <trkpt lat="43.63639" lon="1.48046">
        <ele>141.93</ele>
        <time>2026-05-26T08:11:18Z</time>
      </trkpt>
      <trkpt lat="43.63645" lon="1.4807">
        <ele>140.97</ele>
        <time>2026-05-26T08:11:34Z</time>
      </trkpt>
      <trkpt lat="43.63659" lon="1.48101">
        <ele>140.97</ele>
        <time>2026-05-26T08:11:55Z</time>
      </trkpt>
      <trkpt lat="43.63659" lon="1.48102">
        <ele>142.41</ele>
        <time>2026-05-26T08:11:57Z</time>
      </trkpt>
      <trkpt lat="43.63654" lon="1.48105">
        <ele>142.41</ele>
        <time>2026-05-26T08:12:05Z</time>
      </trkpt>
      <trkpt lat="43.63641" lon="1.48115">
        <ele>142.41</ele>
        <time>2026-05-26T08:12:15Z</time>
      </trkpt>
      <trkpt lat="43.63638" lon="1.48114">
        <ele>140.97</ele>
        <time>2026-05-26T08:12:18Z</time>
      </trkpt>
      <trkpt lat="43.63624" lon="1.48094">
        <ele>140.97</ele>
        <time>2026-05-26T08:12:34Z</time>
      </trkpt>
      <trkpt lat="43.63614" lon="1.4807">
        <ele>140.97</ele>
        <time>2026-05-26T08:12:50Z</time>
      </trkpt>
      <trkpt lat="43.63607" lon="1.48046">
        <ele>142.41</ele>
        <time>2026-05-26T08:13:03Z</time>
      </trkpt>
      <trkpt lat="43.63607" lon="1.48045">
        <ele>142.41</ele>
        <time>2026-05-26T08:13:04Z</time>
      </trkpt>
      <trkpt lat="43.63596" lon="1.48018">
        <ele>143.37</ele>
        <time>2026-05-26T08:13:20Z</time>
      </trkpt>
      <trkpt lat="43.63585" lon="1.48002">
        <ele>142.89</ele>
        <time>2026-05-26T08:13:29Z</time>
      </trkpt>
      <trkpt lat="43.63575" lon="1.47979">
        <ele>143.37</ele>
        <time>2026-05-26T08:13:45Z</time>
      </trkpt>
      <trkpt lat="43.63565" lon="1.47948">
        <ele>143.37</ele>
        <time>2026-05-26T08:14:01Z</time>
      </trkpt>
      <trkpt lat="43.63555" lon="1.47927">
        <ele>143.37</ele>
        <time>2026-05-26T08:14:16Z</time>
      </trkpt>
      <trkpt lat="43.63541" lon="1.47902">
        <ele>143.37</ele>
        <time>2026-05-26T08:14:31Z</time>
      </trkpt>
      <trkpt lat="43.63533" lon="1.47885">
        <ele>143.37</ele>
        <time>2026-05-26T08:14:47Z</time>
      </trkpt>
      <trkpt lat="43.63523" lon="1.47887">
        <ele>138.09</ele>
        <time>2026-05-26T08:15:07Z</time>
      </trkpt>
      <trkpt lat="43.63523" lon="1.47887">
        <ele>143.37</ele>
        <time>2026-05-26T08:15:08Z</time>
      </trkpt>
      <trkpt lat="43.63522" lon="1.47887">
        <ele>141.93</ele>
        <time>2026-05-26T08:15:09Z</time>
      </trkpt>
      <trkpt lat="43.63522" lon="1.47888">
        <ele>140.97</ele>
        <time>2026-05-26T08:15:11Z</time>
      </trkpt>
      <trkpt lat="43.6352" lon="1.4789">
        <ele>140.97</ele>
        <time>2026-05-26T08:15:14Z</time>
      </trkpt>
      <trkpt lat="43.63519" lon="1.4789">
        <ele>140.49</ele>
        <time>2026-05-26T08:15:15Z</time>
      </trkpt>
      <trkpt lat="43.63518" lon="1.47891">
        <ele>140.97</ele>
        <time>2026-05-26T08:15:16Z</time>
      </trkpt>
      <trkpt lat="43.63517" lon="1.47891">
        <ele>140.49</ele>
        <time>2026-05-26T08:15:17Z</time>
      </trkpt>
      <trkpt lat="43.63508" lon="1.47894">
        <ele>140.97</ele>
        <time>2026-05-26T08:15:24Z</time>
      </trkpt>
      <trkpt lat="43.63507" lon="1.47894">
        <ele>140.97</ele>
        <time>2026-05-26T08:15:25Z</time>
      </trkpt>
      <trkpt lat="43.63486" lon="1.47892">
        <ele>141.45</ele>
        <time>2026-05-26T08:15:40Z</time>
      </trkpt>
      <trkpt lat="43.63475" lon="1.47896">
        <ele>141.45</ele>
        <time>2026-05-26T08:15:50Z</time>
      </trkpt>
      <trkpt lat="43.63472" lon="1.47897">
        <ele>141.45</ele>
        <time>2026-05-26T08:15:52Z</time>
      </trkpt>
      <trkpt lat="43.63444" lon="1.47904">
        <ele>141.45</ele>
        <time>2026-05-26T08:16:11Z</time>
      </trkpt>
      <trkpt lat="43.63442" lon="1.47904">
        <ele>141.45</ele>
        <time>2026-05-26T08:16:13Z</time>
      </trkpt>
      <trkpt lat="43.63439" lon="1.47905">
        <ele>140.97</ele>
        <time>2026-05-26T08:16:29Z</time>
      </trkpt>
      <trkpt lat="43.63426" lon="1.47905">
        <ele>140.49</ele>
        <time>2026-05-26T08:16:42Z</time>
      </trkpt>
      <trkpt lat="43.63398" lon="1.47906">
        <ele>140.01</ele>
        <time>2026-05-26T08:17:03Z</time>
      </trkpt>
      <trkpt lat="43.6337" lon="1.47913">
        <ele>140.01</ele>
        <time>2026-05-26T08:17:22Z</time>
      </trkpt>
      <trkpt lat="43.63348" lon="1.47915">
        <ele>140.01</ele>
        <time>2026-05-26T08:17:40Z</time>
      </trkpt>
      <trkpt lat="43.63316" lon="1.4792">
        <ele>140.01</ele>
        <time>2026-05-26T08:18:02Z</time>
      </trkpt>
      <trkpt lat="43.63287" lon="1.47922">
        <ele>140.49</ele>
        <time>2026-05-26T08:18:22Z</time>
      </trkpt>
      <trkpt lat="43.63265" lon="1.47928">
        <ele>140.49</ele>
        <time>2026-05-26T08:18:40Z</time>
      </trkpt>
      <trkpt lat="43.63236" lon="1.47933">
        <ele>140.49</ele>
        <time>2026-05-26T08:18:59Z</time>
      </trkpt>
      <trkpt lat="43.63212" lon="1.47937">
        <ele>140.49</ele>
        <time>2026-05-26T08:19:18Z</time>
      </trkpt>
      <trkpt lat="43.63201" lon="1.47938">
        <ele>140.49</ele>
        <time>2026-05-26T08:19:35Z</time>
      </trkpt>
      <trkpt lat="43.63188" lon="1.47939">
        <ele>140.49</ele>
        <time>2026-05-26T08:19:51Z</time>
      </trkpt>
      <trkpt lat="43.63166" lon="1.47943">
        <ele>140.49</ele>
        <time>2026-05-26T08:20:08Z</time>
      </trkpt>
      <trkpt lat="43.63138" lon="1.47952">
        <ele>140.49</ele>
        <time>2026-05-26T08:20:28Z</time>
      </trkpt>
      <trkpt lat="43.63109" lon="1.47956">
        <ele>141.45</ele>
        <time>2026-05-26T08:20:50Z</time>
      </trkpt>
      <trkpt lat="43.63087" lon="1.47958">
        <ele>141.45</ele>
        <time>2026-05-26T08:21:10Z</time>
      </trkpt>
      <trkpt lat="43.63053" lon="1.47965">
        <ele>141.93</ele>
        <time>2026-05-26T08:21:33Z</time>
      </trkpt>
      <trkpt lat="43.63027" lon="1.47962">
        <ele>142.41</ele>
        <time>2026-05-26T08:21:51Z</time>
      </trkpt>
      <trkpt lat="43.63001" lon="1.4797">
        <ele>142.41</ele>
        <time>2026-05-26T08:22:13Z</time>
      </trkpt>
      <trkpt lat="43.62981" lon="1.47974">
        <ele>142.41</ele>
        <time>2026-05-26T08:22:31Z</time>
      </trkpt>
      <trkpt lat="43.62956" lon="1.47983">
        <ele>142.41</ele>
        <time>2026-05-26T08:22:47Z</time>
      </trkpt>
      <trkpt lat="43.62931" lon="1.47984">
        <ele>142.89</ele>
        <time>2026-05-26T08:23:05Z</time>
      </trkpt>
      <trkpt lat="43.62907" lon="1.47984">
        <ele>141.45</ele>
        <time>2026-05-26T08:23:26Z</time>
      </trkpt>
      <trkpt lat="43.62892" lon="1.4799">
        <ele>141.45</ele>
        <time>2026-05-26T08:23:45Z</time>
      </trkpt>
      <trkpt lat="43.62884" lon="1.47996">
        <ele>141.45</ele>
        <time>2026-05-26T08:24:18Z</time>
      </trkpt>
      <trkpt lat="43.62864" lon="1.47995">
        <ele>141.93</ele>
        <time>2026-05-26T08:24:31Z</time>
      </trkpt>
      <trkpt lat="43.62863" lon="1.47996">
        <ele>141.93</ele>
        <time>2026-05-26T08:24:32Z</time>
      </trkpt>
      <trkpt lat="43.6284" lon="1.48003">
        <ele>141.93</ele>
        <time>2026-05-26T08:24:50Z</time>
      </trkpt>
      <trkpt lat="43.62818" lon="1.4801">
        <ele>141.93</ele>
        <time>2026-05-26T08:25:04Z</time>
      </trkpt>
      <trkpt lat="43.62794" lon="1.48012">
        <ele>141.45</ele>
        <time>2026-05-26T08:25:24Z</time>
      </trkpt>
      <trkpt lat="43.62793" lon="1.48014">
        <ele>141.45</ele>
        <time>2026-05-26T08:25:25Z</time>
      </trkpt>
      <trkpt lat="43.62792" lon="1.48017">
        <ele>141.45</ele>
        <time>2026-05-26T08:25:27Z</time>
      </trkpt>
      <trkpt lat="43.6279" lon="1.48019">
        <ele>141.45</ele>
        <time>2026-05-26T08:25:28Z</time>
      </trkpt>
      <trkpt lat="43.62788" lon="1.48021">
        <ele>141.45</ele>
        <time>2026-05-26T08:25:29Z</time>
      </trkpt>
      <trkpt lat="43.62787" lon="1.48022">
        <ele>141.45</ele>
        <time>2026-05-26T08:25:30Z</time>
      </trkpt>
      <trkpt lat="43.62786" lon="1.48023">
        <ele>141.45</ele>
        <time>2026-05-26T08:25:31Z</time>
      </trkpt>
      <trkpt lat="43.62785" lon="1.48036">
        <ele>142.89</ele>
        <time>2026-05-26T08:25:40Z</time>
      </trkpt>
      <trkpt lat="43.62786" lon="1.48038">
        <ele>142.89</ele>
        <time>2026-05-26T08:25:41Z</time>
      </trkpt>
      <trkpt lat="43.628" lon="1.48059">
        <ele>142.41</ele>
        <time>2026-05-26T08:25:55Z</time>
      </trkpt>
      <trkpt lat="43.62807" lon="1.48069">
        <ele>143.37</ele>
        <time>2026-05-26T08:26:03Z</time>
      </trkpt>
      <trkpt lat="43.62808" lon="1.4807">
        <ele>143.37</ele>
        <time>2026-05-26T08:26:04Z</time>
      </trkpt>
      <trkpt lat="43.6281" lon="1.48072">
        <ele>143.37</ele>
        <time>2026-05-26T08:26:05Z</time>
      </trkpt>
      <trkpt lat="43.62811" lon="1.48073">
        <ele>143.37</ele>
        <time>2026-05-26T08:26:06Z</time>
      </trkpt>
      <trkpt lat="43.62812" lon="1.48075">
        <ele>143.37</ele>
        <time>2026-05-26T08:26:07Z</time>
      </trkpt>
      <trkpt lat="43.62813" lon="1.48076">
        <ele>143.37</ele>
        <time>2026-05-26T08:26:08Z</time>
      </trkpt>
      <trkpt lat="43.62814" lon="1.48079">
        <ele>143.37</ele>
        <time>2026-05-26T08:26:09Z</time>
      </trkpt>
      <trkpt lat="43.62816" lon="1.48081">
        <ele>143.37</ele>
        <time>2026-05-26T08:26:10Z</time>
      </trkpt>
      <trkpt lat="43.62836" lon="1.48102">
        <ele>143.37</ele>
        <time>2026-05-26T08:26:26Z</time>
      </trkpt>
      <trkpt lat="43.62837" lon="1.48104">
        <ele>143.37</ele>
        <time>2026-05-26T08:26:27Z</time>
      </trkpt>
      <trkpt lat="43.62838" lon="1.48105">
        <ele>142.89</ele>
        <time>2026-05-26T08:26:28Z</time>
      </trkpt>
      <trkpt lat="43.62852" lon="1.48123">
        <ele>143.37</ele>
        <time>2026-05-26T08:26:43Z</time>
      </trkpt>
      <trkpt lat="43.62864" lon="1.48138">
        <ele>143.37</ele>
        <time>2026-05-26T08:26:56Z</time>
      </trkpt>
      <trkpt lat="43.62878" lon="1.48155">
        <ele>143.85</ele>
        <time>2026-05-26T08:27:11Z</time>
      </trkpt>
      <trkpt lat="43.62879" lon="1.48159">
        <ele>143.85</ele>
        <time>2026-05-26T08:27:14Z</time>
      </trkpt>
      <trkpt lat="43.62879" lon="1.48162">
        <ele>143.85</ele>
        <time>2026-05-26T08:27:15Z</time>
      </trkpt>
      <trkpt lat="43.62875" lon="1.48185">
        <ele>143.85</ele>
        <time>2026-05-26T08:27:29Z</time>
      </trkpt>
      <trkpt lat="43.62875" lon="1.48213">
        <ele>143.37</ele>
        <time>2026-05-26T08:27:42Z</time>
      </trkpt>
      <trkpt lat="43.62876" lon="1.48218">
        <ele>143.37</ele>
        <time>2026-05-26T08:27:46Z</time>
      </trkpt>
      <trkpt lat="43.62877" lon="1.4822">
        <ele>143.37</ele>
        <time>2026-05-26T08:27:47Z</time>
      </trkpt>
      <trkpt lat="43.62878" lon="1.48221">
        <ele>143.37</ele>
        <time>2026-05-26T08:27:48Z</time>
      </trkpt>
      <trkpt lat="43.62888" lon="1.48232">
        <ele>143.37</ele>
        <time>2026-05-26T08:28:00Z</time>
      </trkpt>
      <trkpt lat="43.62889" lon="1.48234">
        <ele>143.37</ele>
        <time>2026-05-26T08:28:05Z</time>
      </trkpt>
      <trkpt lat="43.62898" lon="1.48256">
        <ele>141.93</ele>
        <time>2026-05-26T08:28:19Z</time>
      </trkpt>
      <trkpt lat="43.62902" lon="1.48284">
        <ele>141.93</ele>
        <time>2026-05-26T08:28:33Z</time>
      </trkpt>
      <trkpt lat="43.62904" lon="1.48281">
        <ele>140.97</ele>
        <time>2026-05-26T08:28:45Z</time>
      </trkpt>
      <trkpt lat="43.62905" lon="1.48277">
        <ele>142.41</ele>
        <time>2026-05-26T08:28:48Z</time>
      </trkpt>
      <trkpt lat="43.62905" lon="1.48276">
        <ele>142.41</ele>
        <time>2026-05-26T08:28:49Z</time>
      </trkpt>
      <trkpt lat="43.62901" lon="1.48264">
        <ele>142.41</ele>
        <time>2026-05-26T08:28:57Z</time>
      </trkpt>
      <trkpt lat="43.62891" lon="1.48241">
        <ele>142.41</ele>
        <time>2026-05-26T08:29:13Z</time>
      </trkpt>
      <trkpt lat="43.62883" lon="1.48241">
        <ele>142.41</ele>
        <time>2026-05-26T08:29:27Z</time>
      </trkpt>
      <trkpt lat="43.62882" lon="1.48238">
        <ele>132.32</ele>
        <time>2026-05-26T08:29:49Z</time>
      </trkpt>
      <trkpt lat="43.62882" lon="1.48238">
        <ele>150.1</ele>
        <time>2026-05-26T08:29:50Z</time>
      </trkpt>
      <trkpt lat="43.62882" lon="1.48238">
        <ele>144.82</ele>
        <time>2026-05-26T08:29:51Z</time>
      </trkpt>
      <trkpt lat="43.62882" lon="1.48237">
        <ele>141.93</ele>
        <time>2026-05-26T08:29:54Z</time>
      </trkpt>
      <trkpt lat="43.6288" lon="1.48237">
        <ele>141.45</ele>
        <time>2026-05-26T08:30:07Z</time>
      </trkpt>
      <trkpt lat="43.62881" lon="1.48224">
        <ele>142.41</ele>
        <time>2026-05-26T08:30:30Z</time>
      </trkpt>
      <trkpt lat="43.62881" lon="1.48218">
        <ele>142.41</ele>
        <time>2026-05-26T08:30:54Z</time>
      </trkpt>
      <trkpt lat="43.62871" lon="1.48208">
        <ele>142.41</ele>
        <time>2026-05-26T08:31:23Z</time>
      </trkpt>
      <trkpt lat="43.62871" lon="1.48203">
        <ele>142.41</ele>
        <time>2026-05-26T08:31:46Z</time>
      </trkpt>
      <trkpt lat="43.62859" lon="1.48196">
        <ele>142.89</ele>
        <time>2026-05-26T08:32:15Z</time>
      </trkpt>
      <trkpt lat="43.62862" lon="1.48198">
        <ele>142.89</ele>
        <time>2026-05-26T08:32:40Z</time>
      </trkpt>
      <trkpt lat="43.62873" lon="1.4822">
        <ele>142.89</ele>
        <time>2026-05-26T08:33:00Z</time>
      </trkpt>
      <trkpt lat="43.62874" lon="1.48217">
        <ele>143.37</ele>
        <time>2026-05-26T08:33:13Z</time>
      </trkpt>
      <trkpt lat="43.62874" lon="1.48223">
        <ele>143.85</ele>
        <time>2026-05-26T08:33:31Z</time>
      </trkpt>
      <trkpt lat="43.62874" lon="1.48224">
        <ele>140.01</ele>
        <time>2026-05-26T08:33:46Z</time>
      </trkpt>
      <trkpt lat="43.62874" lon="1.48224">
        <ele>146.74</ele>
        <time>2026-05-26T08:33:48Z</time>
      </trkpt>
      <trkpt lat="43.62874" lon="1.48224">
        <ele>144.34</ele>
        <time>2026-05-26T08:33:49Z</time>
      </trkpt>
      <trkpt lat="43.6287" lon="1.48221">
        <ele>141.93</ele>
        <time>2026-05-26T08:34:02Z</time>
      </trkpt>
      <trkpt lat="43.62869" lon="1.48221">
        <ele>143.37</ele>
        <time>2026-05-26T08:34:04Z</time>
      </trkpt>
      <trkpt lat="43.62869" lon="1.48222">
        <ele>146.26</ele>
        <time>2026-05-26T08:34:23Z</time>
      </trkpt>
      <trkpt lat="43.62869" lon="1.48221">
        <ele>144.34</ele>
        <time>2026-05-26T08:34:25Z</time>
      </trkpt>
      <trkpt lat="43.62871" lon="1.48217">
        <ele>143.37</ele>
        <time>2026-05-26T08:34:58Z</time>
      </trkpt>
      <trkpt lat="43.62873" lon="1.48219">
        <ele>145.3</ele>
        <time>2026-05-26T08:35:01Z</time>
      </trkpt>
      <trkpt lat="43.62876" lon="1.48221">
        <ele>144.34</ele>
        <time>2026-05-26T08:35:32Z</time>
      </trkpt>
      <trkpt lat="43.62876" lon="1.48222">
        <ele>146.26</ele>
        <time>2026-05-26T08:35:34Z</time>
      </trkpt>
      <trkpt lat="43.62882" lon="1.4823">
        <ele>146.26</ele>
        <time>2026-05-26T08:36:07Z</time>
      </trkpt>
      <trkpt lat="43.62882" lon="1.4823">
        <ele>144.34</ele>
        <time>2026-05-26T08:36:09Z</time>
      </trkpt>
      <trkpt lat="43.62881" lon="1.48224">
        <ele>147.7</ele>
        <time>2026-05-26T08:36:25Z</time>
      </trkpt>
      <trkpt lat="43.62881" lon="1.48224">
        <ele>145.78</ele>
        <time>2026-05-26T08:36:26Z</time>
      </trkpt>
      <trkpt lat="43.62879" lon="1.48224">
        <ele>145.3</ele>
        <time>2026-05-26T08:37:00Z</time>
      </trkpt>
      <trkpt lat="43.6288" lon="1.48227">
        <ele>146.26</ele>
        <time>2026-05-26T08:37:34Z</time>
      </trkpt>
      <trkpt lat="43.6288" lon="1.4823">
        <ele>146.26</ele>
        <time>2026-05-26T08:38:06Z</time>
      </trkpt>
      <trkpt lat="43.62879" lon="1.4823">
        <ele>146.74</ele>
        <time>2026-05-26T08:38:45Z</time>
      </trkpt>
      <trkpt lat="43.62881" lon="1.48232">
        <ele>145.78</ele>
        <time>2026-05-26T08:39:20Z</time>
      </trkpt>
      <trkpt lat="43.62881" lon="1.48233">
        <ele>147.7</ele>
        <time>2026-05-26T08:39:28Z</time>
      </trkpt>
      <trkpt lat="43.62882" lon="1.48235">
        <ele>147.22</ele>
        <time>2026-05-26T08:40:00Z</time>
      </trkpt>
      <trkpt lat="43.62882" lon="1.48232">
        <ele>147.7</ele>
        <time>2026-05-26T08:40:40Z</time>
      </trkpt>
      <trkpt lat="43.62884" lon="1.4823">
        <ele>144.82</ele>
        <time>2026-05-26T08:41:06Z</time>
      </trkpt>
      <trkpt lat="43.62883" lon="1.48229">
        <ele>150.1</ele>
        <time>2026-05-26T08:41:12Z</time>
      </trkpt>
      <trkpt lat="43.62881" lon="1.48229">
        <ele>147.22</ele>
        <time>2026-05-26T08:41:15Z</time>
      </trkpt>
      <trkpt lat="43.62882" lon="1.48228">
        <ele>146.74</ele>
        <time>2026-05-26T08:41:46Z</time>
      </trkpt>
      <trkpt lat="43.62883" lon="1.48234">
        <ele>148.18</ele>
        <time>2026-05-26T08:41:56Z</time>
      </trkpt>
      <trkpt lat="43.62885" lon="1.48239">
        <ele>148.18</ele>
        <time>2026-05-26T08:42:21Z</time>
      </trkpt>
      <trkpt lat="43.62884" lon="1.48242">
        <ele>147.7</ele>
        <time>2026-05-26T08:42:49Z</time>
      </trkpt>
      <trkpt lat="43.6288" lon="1.48243">
        <ele>147.22</ele>
        <time>2026-05-26T08:43:20Z</time>
      </trkpt>
      <trkpt lat="43.6287" lon="1.48235">
        <ele>149.14</ele>
        <time>2026-05-26T08:43:53Z</time>
      </trkpt>
      <trkpt lat="43.62868" lon="1.4823">
        <ele>147.7</ele>
        <time>2026-05-26T08:44:07Z</time>
      </trkpt>
      <trkpt lat="43.62868" lon="1.48231">
        <ele>149.14</ele>
        <time>2026-05-26T08:44:17Z</time>
      </trkpt>
      <trkpt lat="43.62869" lon="1.48233">
        <ele>145.78</ele>
        <time>2026-05-26T08:44:34Z</time>
      </trkpt>
      <trkpt lat="43.62869" lon="1.48233">
        <ele>149.62</ele>
        <time>2026-05-26T08:44:36Z</time>
      </trkpt>
      <trkpt lat="43.6287" lon="1.48234">
        <ele>149.62</ele>
        <time>2026-05-26T08:44:37Z</time>
      </trkpt>
      <trkpt lat="43.62873" lon="1.48234">
        <ele>148.66</ele>
        <time>2026-05-26T08:45:12Z</time>
      </trkpt>
      <trkpt lat="43.62871" lon="1.48231">
        <ele>149.14</ele>
        <time>2026-05-26T08:45:41Z</time>
      </trkpt>
      <trkpt lat="43.62872" lon="1.4823">
        <ele>148.66</ele>
        <time>2026-05-26T08:46:08Z</time>
      </trkpt>
      <trkpt lat="43.62872" lon="1.48227">
        <ele>149.14</ele>
        <time>2026-05-26T08:46:41Z</time>
      </trkpt>
      <trkpt lat="43.6287" lon="1.48229">
        <ele>149.62</ele>
        <time>2026-05-26T08:47:16Z</time>
      </trkpt>
      <trkpt lat="43.62867" lon="1.48228">
        <ele>148.66</ele>
        <time>2026-05-26T08:47:46Z</time>
      </trkpt>
      <trkpt lat="43.62867" lon="1.48227">
        <ele>150.1</ele>
        <time>2026-05-26T08:47:52Z</time>
      </trkpt>
      <trkpt lat="43.62869" lon="1.48229">
        <ele>148.66</ele>
        <time>2026-05-26T08:48:23Z</time>
      </trkpt>
      <trkpt lat="43.62871" lon="1.48226">
        <ele>149.14</ele>
        <time>2026-05-26T08:48:54Z</time>
      </trkpt>
      <trkpt lat="43.62871" lon="1.48226">
        <ele>150.58</ele>
        <time>2026-05-26T08:49:08Z</time>
      </trkpt>
      <trkpt lat="43.62873" lon="1.48226">
        <ele>147.7</ele>
        <time>2026-05-26T08:49:17Z</time>
      </trkpt>
      <trkpt lat="43.62873" lon="1.48226">
        <ele>151.54</ele>
        <time>2026-05-26T08:49:20Z</time>
      </trkpt>
      <trkpt lat="43.62872" lon="1.48226">
        <ele>151.54</ele>
        <time>2026-05-26T08:49:21Z</time>
      </trkpt>
      <trkpt lat="43.62872" lon="1.48226">
        <ele>147.7</ele>
        <time>2026-05-26T08:49:22Z</time>
      </trkpt>
      <trkpt lat="43.62872" lon="1.48226">
        <ele>147.7</ele>
        <time>2026-05-26T08:49:23Z</time>
      </trkpt>
      <trkpt lat="43.62873" lon="1.48225">
        <ele>149.14</ele>
        <time>2026-05-26T08:49:25Z</time>
      </trkpt>
      <trkpt lat="43.62876" lon="1.48227">
        <ele>150.1</ele>
        <time>2026-05-26T08:50:03Z</time>
      </trkpt>
      <trkpt lat="43.62874" lon="1.48228">
        <ele>149.62</ele>
        <time>2026-05-26T08:50:40Z</time>
      </trkpt>
      <trkpt lat="43.62883" lon="1.48235">
        <ele>149.62</ele>
        <time>2026-05-26T08:51:15Z</time>
      </trkpt>
      <trkpt lat="43.6288" lon="1.48232">
        <ele>151.06</ele>
        <time>2026-05-26T08:51:50Z</time>
      </trkpt>
      <trkpt lat="43.62878" lon="1.48227">
        <ele>152.51</ele>
        <time>2026-05-26T08:52:11Z</time>
      </trkpt>
      <trkpt lat="43.62877" lon="1.48226">
        <ele>150.58</ele>
        <time>2026-05-26T08:52:14Z</time>
      </trkpt>
      <trkpt lat="43.62878" lon="1.4823">
        <ele>151.06</ele>
        <time>2026-05-26T08:52:39Z</time>
      </trkpt>
      <trkpt lat="43.62877" lon="1.48229">
        <ele>151.54</ele>
        <time>2026-05-26T08:53:06Z</time>
      </trkpt>
      <trkpt lat="43.62873" lon="1.48218">
        <ele>151.54</ele>
        <time>2026-05-26T08:53:45Z</time>
      </trkpt>
      <trkpt lat="43.6287" lon="1.48211">
        <ele>151.54</ele>
        <time>2026-05-26T08:54:12Z</time>
      </trkpt>
      <trkpt lat="43.62867" lon="1.48212">
        <ele>152.03</ele>
        <time>2026-05-26T08:54:52Z</time>
      </trkpt>
      <trkpt lat="43.6287" lon="1.48214">
        <ele>152.51</ele>
        <time>2026-05-26T08:55:20Z</time>
      </trkpt>
      <trkpt lat="43.62871" lon="1.48223">
        <ele>152.51</ele>
        <time>2026-05-26T08:55:55Z</time>
      </trkpt>
      <trkpt lat="43.62868" lon="1.48211">
        <ele>152.03</ele>
        <time>2026-05-26T08:56:18Z</time>
      </trkpt>
      <trkpt lat="43.62874" lon="1.48222">
        <ele>152.99</ele>
        <time>2026-05-26T08:56:39Z</time>
      </trkpt>
      <trkpt lat="43.62876" lon="1.48221">
        <ele>153.47</ele>
        <time>2026-05-26T08:57:07Z</time>
      </trkpt>
      <trkpt lat="43.62879" lon="1.48222">
        <ele>153.47</ele>
        <time>2026-05-26T08:57:09Z</time>
      </trkpt>
      <trkpt lat="43.6288" lon="1.4822">
        <ele>153.47</ele>
        <time>2026-05-26T08:57:13Z</time>
      </trkpt>
      <trkpt lat="43.62884" lon="1.48206">
        <ele>153.47</ele>
        <time>2026-05-26T08:57:27Z</time>
      </trkpt>
      <trkpt lat="43.62883" lon="1.48192">
        <ele>152.03</ele>
        <time>2026-05-26T08:57:41Z</time>
      </trkpt>
      <trkpt lat="43.62883" lon="1.48191">
        <ele>152.03</ele>
        <time>2026-05-26T08:57:42Z</time>
      </trkpt>
      <trkpt lat="43.62884" lon="1.48171">
        <ele>152.03</ele>
        <time>2026-05-26T08:57:56Z</time>
      </trkpt>
      <trkpt lat="43.62885" lon="1.48164">
        <ele>153.47</ele>
        <time>2026-05-26T08:57:59Z</time>
      </trkpt>
      <trkpt lat="43.62883" lon="1.4815">
        <ele>152.99</ele>
        <time>2026-05-26T08:58:07Z</time>
      </trkpt>
      <trkpt lat="43.62875" lon="1.48143">
        <ele>152.99</ele>
        <time>2026-05-26T08:58:22Z</time>
      </trkpt>
      <trkpt lat="43.62875" lon="1.48143">
        <ele>152.99</ele>
        <time>2026-05-26T08:58:49Z</time>
      </trkpt>
      <trkpt lat="43.62874" lon="1.48145">
        <ele>152.99</ele>
        <time>2026-05-26T08:59:10Z</time>
      </trkpt>
      <trkpt lat="43.62874" lon="1.48143">
        <ele>151.54</ele>
        <time>2026-05-26T08:59:17Z</time>
      </trkpt>
      <trkpt lat="43.62874" lon="1.48142">
        <ele>151.54</ele>
        <time>2026-05-26T08:59:18Z</time>
      </trkpt>
      <trkpt lat="43.62871" lon="1.48139">
        <ele>151.54</ele>
        <time>2026-05-26T08:59:22Z</time>
      </trkpt>
      <trkpt lat="43.62858" lon="1.48126">
        <ele>151.06</ele>
        <time>2026-05-26T08:59:36Z</time>
      </trkpt>
      <trkpt lat="43.62856" lon="1.48124">
        <ele>151.06</ele>
        <time>2026-05-26T08:59:38Z</time>
      </trkpt>
      <trkpt lat="43.62849" lon="1.48117">
        <ele>150.58</ele>
        <time>2026-05-26T08:59:45Z</time>
      </trkpt>
      <trkpt lat="43.62836" lon="1.48103">
        <ele>150.1</ele>
        <time>2026-05-26T09:00:01Z</time>
      </trkpt>
      <trkpt lat="43.62835" lon="1.48102">
        <ele>150.1</ele>
        <time>2026-05-26T09:00:03Z</time>
      </trkpt>
      <trkpt lat="43.62821" lon="1.48086">
        <ele>150.1</ele>
        <time>2026-05-26T09:00:17Z</time>
      </trkpt>
      <trkpt lat="43.62814" lon="1.48079">
        <ele>150.1</ele>
        <time>2026-05-26T09:00:23Z</time>
      </trkpt>
      <trkpt lat="43.62797" lon="1.48061">
        <ele>150.1</ele>
        <time>2026-05-26T09:00:39Z</time>
      </trkpt>
      <trkpt lat="43.62785" lon="1.48038">
        <ele>150.1</ele>
        <time>2026-05-26T09:00:51Z</time>
      </trkpt>
      <trkpt lat="43.62783" lon="1.48032">
        <ele>150.1</ele>
        <time>2026-05-26T09:00:54Z</time>
      </trkpt>
      <trkpt lat="43.62769" lon="1.4803">
        <ele>150.1</ele>
        <time>2026-05-26T09:01:06Z</time>
      </trkpt>
      <trkpt lat="43.62748" lon="1.48036">
        <ele>149.62</ele>
        <time>2026-05-26T09:01:21Z</time>
      </trkpt>
      <trkpt lat="43.62728" lon="1.48041">
        <ele>150.58</ele>
        <time>2026-05-26T09:01:36Z</time>
      </trkpt>
      <trkpt lat="43.62709" lon="1.48046">
        <ele>150.58</ele>
        <time>2026-05-26T09:01:53Z</time>
      </trkpt>
      <trkpt lat="43.62685" lon="1.48056">
        <ele>150.58</ele>
        <time>2026-05-26T09:02:11Z</time>
      </trkpt>
      <trkpt lat="43.62658" lon="1.48063">
        <ele>150.1</ele>
        <time>2026-05-26T09:02:29Z</time>
      </trkpt>
      <trkpt lat="43.62644" lon="1.48069">
        <ele>150.1</ele>
        <time>2026-05-26T09:02:40Z</time>
      </trkpt>
      <trkpt lat="43.62619" lon="1.48075">
        <ele>150.1</ele>
        <time>2026-05-26T09:02:57Z</time>
      </trkpt>
      <trkpt lat="43.62612" lon="1.48075">
        <ele>147.7</ele>
        <time>2026-05-26T09:03:13Z</time>
      </trkpt>
      <trkpt lat="43.62603" lon="1.4808">
        <ele>148.18</ele>
        <time>2026-05-26T09:03:33Z</time>
      </trkpt>
      <trkpt lat="43.62601" lon="1.48082">
        <ele>148.18</ele>
        <time>2026-05-26T09:03:36Z</time>
      </trkpt>
      <trkpt lat="43.62599" lon="1.48082">
        <ele>148.18</ele>
        <time>2026-05-26T09:03:38Z</time>
      </trkpt>
      <trkpt lat="43.62576" lon="1.48089">
        <ele>148.18</ele>
        <time>2026-05-26T09:03:54Z</time>
      </trkpt>
      <trkpt lat="43.62558" lon="1.48094">
        <ele>147.7</ele>
        <time>2026-05-26T09:04:10Z</time>
      </trkpt>
      <trkpt lat="43.62538" lon="1.48102">
        <ele>147.7</ele>
        <time>2026-05-26T09:04:24Z</time>
      </trkpt>
      <trkpt lat="43.62534" lon="1.48105">
        <ele>147.7</ele>
        <time>2026-05-26T09:04:37Z</time>
      </trkpt>
      <trkpt lat="43.62532" lon="1.48105">
        <ele>147.7</ele>
        <time>2026-05-26T09:04:57Z</time>
      </trkpt>
      <trkpt lat="43.62533" lon="1.48104">
        <ele>147.22</ele>
        <time>2026-05-26T09:05:15Z</time>
      </trkpt>
      <trkpt lat="43.6253" lon="1.48105">
        <ele>147.22</ele>
        <time>2026-05-26T09:05:30Z</time>
      </trkpt>
      <trkpt lat="43.62529" lon="1.48105">
        <ele>147.22</ele>
        <time>2026-05-26T09:05:34Z</time>
      </trkpt>
      <trkpt lat="43.62525" lon="1.48107">
        <ele>147.22</ele>
        <time>2026-05-26T09:05:44Z</time>
      </trkpt>
      <trkpt lat="43.6252" lon="1.48108">
        <ele>147.22</ele>
        <time>2026-05-26T09:05:54Z</time>
      </trkpt>
      <trkpt lat="43.62505" lon="1.4811">
        <ele>147.22</ele>
        <time>2026-05-26T09:06:06Z</time>
      </trkpt>
      <trkpt lat="43.62487" lon="1.48117">
        <ele>146.74</ele>
        <time>2026-05-26T09:06:21Z</time>
      </trkpt>
      <trkpt lat="43.62484" lon="1.48118">
        <ele>146.74</ele>
        <time>2026-05-26T09:06:23Z</time>
      </trkpt>
      <trkpt lat="43.62468" lon="1.48122">
        <ele>146.74</ele>
        <time>2026-05-26T09:06:37Z</time>
      </trkpt>
      <trkpt lat="43.62449" lon="1.48128">
        <ele>146.74</ele>
        <time>2026-05-26T09:06:52Z</time>
      </trkpt>
      <trkpt lat="43.6243" lon="1.48134">
        <ele>146.74</ele>
        <time>2026-05-26T09:07:06Z</time>
      </trkpt>
      <trkpt lat="43.62408" lon="1.48141">
        <ele>146.26</ele>
        <time>2026-05-26T09:07:22Z</time>
      </trkpt>
      <trkpt lat="43.62399" lon="1.48143">
        <ele>146.26</ele>
        <time>2026-05-26T09:07:30Z</time>
      </trkpt>
      <trkpt lat="43.62377" lon="1.4815">
        <ele>146.26</ele>
        <time>2026-05-26T09:07:47Z</time>
      </trkpt>
      <trkpt lat="43.62357" lon="1.48158">
        <ele>146.26</ele>
        <time>2026-05-26T09:08:02Z</time>
      </trkpt>
      <trkpt lat="43.62339" lon="1.48161">
        <ele>146.26</ele>
        <time>2026-05-26T09:08:16Z</time>
      </trkpt>
      <trkpt lat="43.62317" lon="1.48166">
        <ele>145.78</ele>
        <time>2026-05-26T09:08:31Z</time>
      </trkpt>
      <trkpt lat="43.62296" lon="1.48177">
        <ele>145.78</ele>
        <time>2026-05-26T09:08:47Z</time>
      </trkpt>
      <trkpt lat="43.62274" lon="1.48181">
        <ele>145.78</ele>
        <time>2026-05-26T09:09:05Z</time>
      </trkpt>
      <trkpt lat="43.62248" lon="1.48189">
        <ele>145.3</ele>
        <time>2026-05-26T09:09:22Z</time>
      </trkpt>
      <trkpt lat="43.62229" lon="1.48195">
        <ele>145.3</ele>
        <time>2026-05-26T09:09:38Z</time>
      </trkpt>
      <trkpt lat="43.62218" lon="1.48199">
        <ele>145.3</ele>
        <time>2026-05-26T09:09:51Z</time>
      </trkpt>
      <trkpt lat="43.62194" lon="1.48206">
        <ele>145.3</ele>
        <time>2026-05-26T09:10:09Z</time>
      </trkpt>
      <trkpt lat="43.62172" lon="1.48213">
        <ele>146.26</ele>
        <time>2026-05-26T09:10:25Z</time>
      </trkpt>
      <trkpt lat="43.62169" lon="1.48214">
        <ele>146.26</ele>
        <time>2026-05-26T09:10:27Z</time>
      </trkpt>
      <trkpt lat="43.62153" lon="1.48218">
        <ele>146.26</ele>
        <time>2026-05-26T09:10:41Z</time>
      </trkpt>
      <trkpt lat="43.62126" lon="1.48227">
        <ele>146.26</ele>
        <time>2026-05-26T09:10:58Z</time>
      </trkpt>
      <trkpt lat="43.62109" lon="1.48232">
        <ele>145.78</ele>
        <time>2026-05-26T09:11:14Z</time>
      </trkpt>
      <trkpt lat="43.62085" lon="1.48243">
        <ele>145.78</ele>
        <time>2026-05-26T09:11:30Z</time>
      </trkpt>
      <trkpt lat="43.62067" lon="1.48247">
        <ele>145.78</ele>
        <time>2026-05-26T09:11:46Z</time>
      </trkpt>
      <trkpt lat="43.62047" lon="1.48254">
        <ele>145.3</ele>
        <time>2026-05-26T09:12:00Z</time>
      </trkpt>
      <trkpt lat="43.62028" lon="1.4826">
        <ele>145.78</ele>
        <time>2026-05-26T09:12:15Z</time>
      </trkpt>
      <trkpt lat="43.61999" lon="1.48268">
        <ele>145.78</ele>
        <time>2026-05-26T09:12:33Z</time>
      </trkpt>
      <trkpt lat="43.61983" lon="1.48272">
        <ele>145.3</ele>
        <time>2026-05-26T09:12:47Z</time>
      </trkpt>
      <trkpt lat="43.61957" lon="1.48281">
        <ele>145.3</ele>
        <time>2026-05-26T09:13:05Z</time>
      </trkpt>
      <trkpt lat="43.61936" lon="1.48286">
        <ele>145.3</ele>
        <time>2026-05-26T09:13:21Z</time>
      </trkpt>
      <trkpt lat="43.61914" lon="1.48295">
        <ele>145.3</ele>
        <time>2026-05-26T09:13:38Z</time>
      </trkpt>
      <trkpt lat="43.61888" lon="1.483">
        <ele>145.3</ele>
        <time>2026-05-26T09:13:57Z</time>
      </trkpt>
      <trkpt lat="43.61861" lon="1.4831">
        <ele>144.82</ele>
        <time>2026-05-26T09:14:18Z</time>
      </trkpt>
      <trkpt lat="43.61843" lon="1.48317">
        <ele>144.82</ele>
        <time>2026-05-26T09:14:33Z</time>
      </trkpt>
      <trkpt lat="43.6182" lon="1.48325">
        <ele>144.82</ele>
        <time>2026-05-26T09:14:49Z</time>
      </trkpt>
      <trkpt lat="43.61795" lon="1.48331">
        <ele>144.34</ele>
        <time>2026-05-26T09:15:05Z</time>
      </trkpt>
      <trkpt lat="43.61778" lon="1.48335">
        <ele>144.82</ele>
        <time>2026-05-26T09:15:20Z</time>
      </trkpt>
      <trkpt lat="43.61764" lon="1.4834">
        <ele>144.82</ele>
        <time>2026-05-26T09:15:35Z</time>
      </trkpt>
      <trkpt lat="43.61765" lon="1.48342">
        <ele>145.3</ele>
        <time>2026-05-26T09:16:05Z</time>
      </trkpt>
      <trkpt lat="43.61765" lon="1.48343">
        <ele>144.82</ele>
        <time>2026-05-26T09:16:28Z</time>
      </trkpt>
      <trkpt lat="43.61752" lon="1.48346">
        <ele>144.82</ele>
        <time>2026-05-26T09:16:43Z</time>
      </trkpt>
      <trkpt lat="43.61726" lon="1.48355">
        <ele>144.82</ele>
        <time>2026-05-26T09:17:01Z</time>
      </trkpt>
      <trkpt lat="43.61694" lon="1.48362">
        <ele>144.82</ele>
        <time>2026-05-26T09:17:23Z</time>
      </trkpt>
      <trkpt lat="43.61665" lon="1.4837">
        <ele>144.82</ele>
        <time>2026-05-26T09:17:48Z</time>
      </trkpt>
      <trkpt lat="43.61643" lon="1.48379">
        <ele>144.34</ele>
        <time>2026-05-26T09:18:06Z</time>
      </trkpt>
      <trkpt lat="43.61619" lon="1.48387">
        <ele>144.34</ele>
        <time>2026-05-26T09:18:25Z</time>
      </trkpt>
      <trkpt lat="43.61593" lon="1.48396">
        <ele>144.34</ele>
        <time>2026-05-26T09:18:44Z</time>
      </trkpt>
      <trkpt lat="43.61566" lon="1.48403">
        <ele>144.34</ele>
        <time>2026-05-26T09:19:05Z</time>
      </trkpt>
      <trkpt lat="43.61535" lon="1.48413">
        <ele>144.34</ele>
        <time>2026-05-26T09:19:27Z</time>
      </trkpt>
      <trkpt lat="43.61505" lon="1.48421">
        <ele>144.34</ele>
        <time>2026-05-26T09:19:48Z</time>
      </trkpt>
      <trkpt lat="43.6148" lon="1.48429">
        <ele>144.34</ele>
        <time>2026-05-26T09:20:08Z</time>
      </trkpt>
      <trkpt lat="43.61455" lon="1.48436">
        <ele>144.34</ele>
        <time>2026-05-26T09:20:28Z</time>
      </trkpt>
      <trkpt lat="43.61453" lon="1.48439">
        <ele>143.85</ele>
        <time>2026-05-26T09:20:51Z</time>
      </trkpt>
      <trkpt lat="43.61454" lon="1.4844">
        <ele>143.85</ele>
        <time>2026-05-26T09:21:26Z</time>
      </trkpt>
      <trkpt lat="43.61437" lon="1.48447">
        <ele>143.85</ele>
        <time>2026-05-26T09:21:41Z</time>
      </trkpt>
      <trkpt lat="43.61416" lon="1.48451">
        <ele>143.85</ele>
        <time>2026-05-26T09:21:58Z</time>
      </trkpt>
      <trkpt lat="43.6139" lon="1.48457">
        <ele>143.85</ele>
        <time>2026-05-26T09:22:18Z</time>
      </trkpt>
      <trkpt lat="43.61366" lon="1.48467">
        <ele>143.85</ele>
        <time>2026-05-26T09:22:37Z</time>
      </trkpt>
      <trkpt lat="43.61338" lon="1.48479">
        <ele>143.85</ele>
        <time>2026-05-26T09:22:59Z</time>
      </trkpt>
      <trkpt lat="43.61309" lon="1.48487">
        <ele>143.85</ele>
        <time>2026-05-26T09:23:21Z</time>
      </trkpt>
      <trkpt lat="43.61284" lon="1.48493">
        <ele>143.37</ele>
        <time>2026-05-26T09:23:40Z</time>
      </trkpt>
      <trkpt lat="43.6126" lon="1.48499">
        <ele>143.37</ele>
        <time>2026-05-26T09:23:59Z</time>
      </trkpt>
      <trkpt lat="43.6123" lon="1.48509">
        <ele>143.37</ele>
        <time>2026-05-26T09:24:19Z</time>
      </trkpt>
      <trkpt lat="43.6121" lon="1.48516">
        <ele>143.85</ele>
        <time>2026-05-26T09:24:36Z</time>
      </trkpt>
      <trkpt lat="43.61193" lon="1.48534">
        <ele>143.37</ele>
        <time>2026-05-26T09:24:57Z</time>
      </trkpt>
      <trkpt lat="43.61194" lon="1.48539">
        <ele>143.37</ele>
        <time>2026-05-26T09:24:59Z</time>
      </trkpt>
      <trkpt lat="43.61195" lon="1.48541">
        <ele>143.37</ele>
        <time>2026-05-26T09:25:00Z</time>
      </trkpt>
      <trkpt lat="43.61194" lon="1.48546">
        <ele>143.37</ele>
        <time>2026-05-26T09:25:12Z</time>
      </trkpt>
      <trkpt lat="43.61193" lon="1.48546">
        <ele>143.37</ele>
        <time>2026-05-26T09:25:13Z</time>
      </trkpt>
      <trkpt lat="43.61179" lon="1.48551">
        <ele>143.37</ele>
        <time>2026-05-26T09:25:24Z</time>
      </trkpt>
      <trkpt lat="43.61178" lon="1.48551">
        <ele>143.37</ele>
        <time>2026-05-26T09:25:25Z</time>
      </trkpt>
      <trkpt lat="43.61174" lon="1.4855">
        <ele>143.37</ele>
        <time>2026-05-26T09:25:29Z</time>
      </trkpt>
      <trkpt lat="43.61172" lon="1.48548">
        <ele>143.37</ele>
        <time>2026-05-26T09:25:31Z</time>
      </trkpt>
      <trkpt lat="43.61172" lon="1.48547">
        <ele>143.37</ele>
        <time>2026-05-26T09:25:32Z</time>
      </trkpt>
      <trkpt lat="43.61157" lon="1.4854">
        <ele>143.37</ele>
        <time>2026-05-26T09:25:47Z</time>
      </trkpt>
      <trkpt lat="43.61137" lon="1.48545">
        <ele>143.37</ele>
        <time>2026-05-26T09:26:02Z</time>
      </trkpt>
      <trkpt lat="43.61112" lon="1.48552">
        <ele>142.89</ele>
        <time>2026-05-26T09:26:20Z</time>
      </trkpt>
      <trkpt lat="43.61089" lon="1.48562">
        <ele>142.89</ele>
        <time>2026-05-26T09:26:38Z</time>
      </trkpt>
      <trkpt lat="43.61071" lon="1.48568">
        <ele>142.89</ele>
        <time>2026-05-26T09:26:53Z</time>
      </trkpt>
      <trkpt lat="43.6107" lon="1.48561">
        <ele>143.85</ele>
        <time>2026-05-26T09:27:01Z</time>
      </trkpt>
      <trkpt lat="43.6107" lon="1.48559">
        <ele>143.85</ele>
        <time>2026-05-26T09:27:02Z</time>
      </trkpt>
      <trkpt lat="43.61067" lon="1.48534">
        <ele>143.85</ele>
        <time>2026-05-26T09:27:18Z</time>
      </trkpt>
      <trkpt lat="43.61063" lon="1.48501">
        <ele>143.85</ele>
        <time>2026-05-26T09:27:35Z</time>
      </trkpt>
      <trkpt lat="43.61056" lon="1.48467">
        <ele>142.41</ele>
        <time>2026-05-26T09:27:59Z</time>
      </trkpt>
      <trkpt lat="43.61061" lon="1.48435">
        <ele>142.89</ele>
        <time>2026-05-26T09:28:35Z</time>
      </trkpt>
      <trkpt lat="43.61068" lon="1.48423">
        <ele>142.89</ele>
        <time>2026-05-26T09:28:36Z</time>
      </trkpt>
      <trkpt lat="43.61061" lon="1.48424">
        <ele>140.97</ele>
        <time>2026-05-26T09:28:42Z</time>
      </trkpt>
      <trkpt lat="43.61056" lon="1.48417">
        <ele>142.41</ele>
        <time>2026-05-26T09:28:48Z</time>
      </trkpt>
      <trkpt lat="43.61055" lon="1.4841">
        <ele>142.41</ele>
        <time>2026-05-26T09:29:02Z</time>
      </trkpt>
      <trkpt lat="43.61062" lon="1.48411">
        <ele>142.41</ele>
        <time>2026-05-26T09:29:09Z</time>
      </trkpt>
      <trkpt lat="43.61072" lon="1.48407">
        <ele>140.97</ele>
        <time>2026-05-26T09:29:23Z</time>
      </trkpt>
      <trkpt lat="43.6109" lon="1.48405">
        <ele>140.97</ele>
        <time>2026-05-26T09:29:38Z</time>
      </trkpt>
      <trkpt lat="43.61114" lon="1.48403">
        <ele>140.97</ele>
        <time>2026-05-26T09:29:54Z</time>
      </trkpt>
      <trkpt lat="43.61133" lon="1.48399">
        <ele>140.97</ele>
        <time>2026-05-26T09:30:09Z</time>
      </trkpt>
      <trkpt lat="43.61148" lon="1.48396">
        <ele>140.97</ele>
        <time>2026-05-26T09:30:21Z</time>
      </trkpt>
      <trkpt lat="43.61167" lon="1.4839">
        <ele>140.97</ele>
        <time>2026-05-26T09:30:34Z</time>
      </trkpt>
      <trkpt lat="43.61183" lon="1.48384">
        <ele>140.97</ele>
        <time>2026-05-26T09:30:49Z</time>
      </trkpt>
      <trkpt lat="43.61207" lon="1.48378">
        <ele>140.97</ele>
        <time>2026-05-26T09:31:04Z</time>
      </trkpt>
      <trkpt lat="43.61226" lon="1.4837">
        <ele>140.97</ele>
        <time>2026-05-26T09:31:20Z</time>
      </trkpt>
      <trkpt lat="43.61245" lon="1.48366">
        <ele>140.97</ele>
        <time>2026-05-26T09:31:36Z</time>
      </trkpt>
      <trkpt lat="43.61246" lon="1.48366">
        <ele>140.97</ele>
        <time>2026-05-26T09:31:37Z</time>
      </trkpt>
      <trkpt lat="43.61258" lon="1.48358">
        <ele>140.97</ele>
        <time>2026-05-26T09:31:46Z</time>
      </trkpt>
      <trkpt lat="43.61255" lon="1.48358">
        <ele>140.97</ele>
        <time>2026-05-26T09:31:49Z</time>
      </trkpt>
      <trkpt lat="43.61255" lon="1.48338">
        <ele>141.93</ele>
        <time>2026-05-26T09:32:02Z</time>
      </trkpt>
      <trkpt lat="43.6126" lon="1.48323">
        <ele>141.93</ele>
        <time>2026-05-26T09:32:11Z</time>
      </trkpt>
      <trkpt lat="43.61261" lon="1.48308">
        <ele>141.93</ele>
        <time>2026-05-26T09:32:21Z</time>
      </trkpt>
      <trkpt lat="43.61261" lon="1.48285">
        <ele>141.93</ele>
        <time>2026-05-26T09:32:34Z</time>
      </trkpt>
      <trkpt lat="43.61263" lon="1.48283">
        <ele>141.93</ele>
        <time>2026-05-26T09:32:36Z</time>
      </trkpt>
      <trkpt lat="43.61283" lon="1.48265">
        <ele>141.93</ele>
        <time>2026-05-26T09:32:52Z</time>
      </trkpt>
      <trkpt lat="43.61295" lon="1.48253">
        <ele>141.93</ele>
        <time>2026-05-26T09:33:06Z</time>
      </trkpt>
      <trkpt lat="43.61299" lon="1.48249">
        <ele>141.93</ele>
        <time>2026-05-26T09:33:09Z</time>
      </trkpt>
      <trkpt lat="43.61319" lon="1.48234">
        <ele>140.49</ele>
        <time>2026-05-26T09:33:26Z</time>
      </trkpt>
      <trkpt lat="43.61334" lon="1.48223">
        <ele>140.49</ele>
        <time>2026-05-26T09:33:39Z</time>
      </trkpt>
      <trkpt lat="43.61354" lon="1.48204">
        <ele>140.49</ele>
        <time>2026-05-26T09:33:56Z</time>
      </trkpt>
      <trkpt lat="43.61363" lon="1.48197">
        <ele>140.49</ele>
        <time>2026-05-26T09:34:06Z</time>
      </trkpt>
      <trkpt lat="43.61381" lon="1.4818">
        <ele>140.49</ele>
        <time>2026-05-26T09:34:23Z</time>
      </trkpt>
      <trkpt lat="43.61396" lon="1.48163">
        <ele>140.49</ele>
        <time>2026-05-26T09:34:39Z</time>
      </trkpt>
      <trkpt lat="43.61414" lon="1.48143">
        <ele>140.49</ele>
        <time>2026-05-26T09:34:54Z</time>
      </trkpt>
      <trkpt lat="43.6143" lon="1.48127">
        <ele>140.49</ele>
        <time>2026-05-26T09:35:06Z</time>
      </trkpt>
      <trkpt lat="43.61442" lon="1.48117">
        <ele>140.49</ele>
        <time>2026-05-26T09:35:17Z</time>
      </trkpt>
      <trkpt lat="43.61444" lon="1.48113">
        <ele>140.49</ele>
        <time>2026-05-26T09:35:20Z</time>
      </trkpt>
      <trkpt lat="43.61444" lon="1.48111">
        <ele>140.49</ele>
        <time>2026-05-26T09:35:21Z</time>
      </trkpt>
      <trkpt lat="43.61446" lon="1.48101">
        <ele>140.49</ele>
        <time>2026-05-26T09:35:27Z</time>
      </trkpt>
      <trkpt lat="43.61446" lon="1.48099">
        <ele>140.49</ele>
        <time>2026-05-26T09:35:29Z</time>
      </trkpt>
      <trkpt lat="43.61437" lon="1.48084">
        <ele>140.49</ele>
        <time>2026-05-26T09:35:44Z</time>
      </trkpt>
      <trkpt lat="43.61436" lon="1.48082">
        <ele>140.49</ele>
        <time>2026-05-26T09:35:45Z</time>
      </trkpt>
      <trkpt lat="43.61423" lon="1.48063">
        <ele>140.49</ele>
        <time>2026-05-26T09:36:00Z</time>
      </trkpt>
      <trkpt lat="43.61417" lon="1.48041">
        <ele>140.49</ele>
        <time>2026-05-26T09:36:11Z</time>
      </trkpt>
      <trkpt lat="43.61416" lon="1.48038">
        <ele>140.49</ele>
        <time>2026-05-26T09:36:12Z</time>
      </trkpt>
      <trkpt lat="43.61401" lon="1.48011">
        <ele>140.97</ele>
        <time>2026-05-26T09:36:27Z</time>
      </trkpt>
      <trkpt lat="43.61397" lon="1.48001">
        <ele>142.41</ele>
        <time>2026-05-26T09:36:36Z</time>
      </trkpt>
      <trkpt lat="43.61383" lon="1.4798">
        <ele>142.41</ele>
        <time>2026-05-26T09:36:52Z</time>
      </trkpt>
      <trkpt lat="43.61371" lon="1.47948">
        <ele>142.41</ele>
        <time>2026-05-26T09:37:10Z</time>
      </trkpt>
      <trkpt lat="43.61357" lon="1.47932">
        <ele>142.89</ele>
        <time>2026-05-26T09:37:25Z</time>
      </trkpt>
      <trkpt lat="43.61343" lon="1.47904">
        <ele>142.89</ele>
        <time>2026-05-26T09:37:43Z</time>
      </trkpt>
      <trkpt lat="43.61332" lon="1.47874">
        <ele>143.37</ele>
        <time>2026-05-26T09:38:00Z</time>
      </trkpt>
      <trkpt lat="43.61318" lon="1.47845">
        <ele>143.85</ele>
        <time>2026-05-26T09:38:18Z</time>
      </trkpt>
      <trkpt lat="43.61303" lon="1.47812">
        <ele>144.34</ele>
        <time>2026-05-26T09:38:38Z</time>
      </trkpt>
      <trkpt lat="43.6129" lon="1.47782">
        <ele>144.34</ele>
        <time>2026-05-26T09:38:56Z</time>
      </trkpt>
      <trkpt lat="43.61288" lon="1.47778">
        <ele>144.82</ele>
        <time>2026-05-26T09:39:01Z</time>
      </trkpt>
      <trkpt lat="43.61284" lon="1.47775">
        <ele>144.82</ele>
        <time>2026-05-26T09:39:04Z</time>
      </trkpt>
      <trkpt lat="43.61278" lon="1.47752">
        <ele>145.3</ele>
        <time>2026-05-26T09:39:17Z</time>
      </trkpt>
      <trkpt lat="43.61282" lon="1.47745">
        <ele>145.3</ele>
        <time>2026-05-26T09:39:22Z</time>
      </trkpt>
      <trkpt lat="43.61278" lon="1.47736">
        <ele>145.3</ele>
        <time>2026-05-26T09:39:34Z</time>
      </trkpt>
      <trkpt lat="43.61269" lon="1.47718">
        <ele>145.3</ele>
        <time>2026-05-26T09:39:45Z</time>
      </trkpt>
      <trkpt lat="43.61268" lon="1.47718">
        <ele>145.3</ele>
        <time>2026-05-26T09:39:46Z</time>
      </trkpt>
      <trkpt lat="43.61267" lon="1.47717">
        <ele>145.3</ele>
        <time>2026-05-26T09:39:47Z</time>
      </trkpt>
      <trkpt lat="43.61266" lon="1.47716">
        <ele>145.3</ele>
        <time>2026-05-26T09:39:48Z</time>
      </trkpt>
      <trkpt lat="43.61265" lon="1.47715">
        <ele>145.3</ele>
        <time>2026-05-26T09:39:49Z</time>
      </trkpt>
      <trkpt lat="43.61263" lon="1.47714">
        <ele>145.3</ele>
        <time>2026-05-26T09:39:50Z</time>
      </trkpt>
      <trkpt lat="43.61259" lon="1.47711">
        <ele>145.3</ele>
        <time>2026-05-26T09:39:56Z</time>
      </trkpt>
      <trkpt lat="43.61255" lon="1.47705">
        <ele>145.78</ele>
        <time>2026-05-26T09:40:00Z</time>
      </trkpt>
      <trkpt lat="43.61254" lon="1.47704">
        <ele>145.78</ele>
        <time>2026-05-26T09:40:01Z</time>
      </trkpt>
      <trkpt lat="43.61254" lon="1.47702">
        <ele>145.78</ele>
        <time>2026-05-26T09:40:02Z</time>
      </trkpt>
      <trkpt lat="43.61253" lon="1.47701">
        <ele>145.78</ele>
        <time>2026-05-26T09:40:03Z</time>
      </trkpt>
      <trkpt lat="43.61252" lon="1.477">
        <ele>145.78</ele>
        <time>2026-05-26T09:40:04Z</time>
      </trkpt>
      <trkpt lat="43.61251" lon="1.47699">
        <ele>146.74</ele>
        <time>2026-05-26T09:40:05Z</time>
      </trkpt>
      <trkpt lat="43.61242" lon="1.47677">
        <ele>146.74</ele>
        <time>2026-05-26T09:40:20Z</time>
      </trkpt>
      <trkpt lat="43.61231" lon="1.47659">
        <ele>146.74</ele>
        <time>2026-05-26T09:40:35Z</time>
      </trkpt>
      <trkpt lat="43.61218" lon="1.47634">
        <ele>147.22</ele>
        <time>2026-05-26T09:40:50Z</time>
      </trkpt>
      <trkpt lat="43.61206" lon="1.47604">
        <ele>147.22</ele>
        <time>2026-05-26T09:41:09Z</time>
      </trkpt>
      <trkpt lat="43.61195" lon="1.47588">
        <ele>147.7</ele>
        <time>2026-05-26T09:41:24Z</time>
      </trkpt>
      <trkpt lat="43.61181" lon="1.4756">
        <ele>148.18</ele>
        <time>2026-05-26T09:41:43Z</time>
      </trkpt>
      <trkpt lat="43.61163" lon="1.4753">
        <ele>149.14</ele>
        <time>2026-05-26T09:42:02Z</time>
      </trkpt>
      <trkpt lat="43.61149" lon="1.47502">
        <ele>149.62</ele>
        <time>2026-05-26T09:42:20Z</time>
      </trkpt>
      <trkpt lat="43.61136" lon="1.47478">
        <ele>149.62</ele>
        <time>2026-05-26T09:42:36Z</time>
      </trkpt>
      <trkpt lat="43.61123" lon="1.47454">
        <ele>150.1</ele>
        <time>2026-05-26T09:42:52Z</time>
      </trkpt>
      <trkpt lat="43.61112" lon="1.47434">
        <ele>150.58</ele>
        <time>2026-05-26T09:43:09Z</time>
      </trkpt>
      <trkpt lat="43.61103" lon="1.47407">
        <ele>151.06</ele>
        <time>2026-05-26T09:43:23Z</time>
      </trkpt>
      <trkpt lat="43.61091" lon="1.47388">
        <ele>152.03</ele>
        <time>2026-05-26T09:43:39Z</time>
      </trkpt>
      <trkpt lat="43.61081" lon="1.4737">
        <ele>152.51</ele>
        <time>2026-05-26T09:43:53Z</time>
      </trkpt>
      <trkpt lat="43.61073" lon="1.47345">
        <ele>152.99</ele>
        <time>2026-05-26T09:44:07Z</time>
      </trkpt>
      <trkpt lat="43.61065" lon="1.47319">
        <ele>153.95</ele>
        <time>2026-05-26T09:44:21Z</time>
      </trkpt>
      <trkpt lat="43.61055" lon="1.47295">
        <ele>154.91</ele>
        <time>2026-05-26T09:44:37Z</time>
      </trkpt>
      <trkpt lat="43.61047" lon="1.47278">
        <ele>155.87</ele>
        <time>2026-05-26T09:44:49Z</time>
      </trkpt>
      <trkpt lat="43.61036" lon="1.47259">
        <ele>156.83</ele>
        <time>2026-05-26T09:45:04Z</time>
      </trkpt>
      <trkpt lat="43.61032" lon="1.4725">
        <ele>156.35</ele>
        <time>2026-05-26T09:45:18Z</time>
      </trkpt>
      <trkpt lat="43.61031" lon="1.47246">
        <ele>156.83</ele>
        <time>2026-05-26T09:45:37Z</time>
      </trkpt>
      <trkpt lat="43.61024" lon="1.47239">
        <ele>156.83</ele>
        <time>2026-05-26T09:45:45Z</time>
      </trkpt>
      <trkpt lat="43.61023" lon="1.47239">
        <ele>157.31</ele>
        <time>2026-05-26T09:45:46Z</time>
      </trkpt>
      <trkpt lat="43.61021" lon="1.47238">
        <ele>157.31</ele>
        <time>2026-05-26T09:45:47Z</time>
      </trkpt>
      <trkpt lat="43.61017" lon="1.47232">
        <ele>157.31</ele>
        <time>2026-05-26T09:45:54Z</time>
      </trkpt>
      <trkpt lat="43.61016" lon="1.47231">
        <ele>157.79</ele>
        <time>2026-05-26T09:45:55Z</time>
      </trkpt>
      <trkpt lat="43.61011" lon="1.47215">
        <ele>158.75</ele>
        <time>2026-05-26T09:46:07Z</time>
      </trkpt>
      <trkpt lat="43.61011" lon="1.47213">
        <ele>158.75</ele>
        <time>2026-05-26T09:46:08Z</time>
      </trkpt>
      <trkpt lat="43.6101" lon="1.47212">
        <ele>158.75</ele>
        <time>2026-05-26T09:46:09Z</time>
      </trkpt>
      <trkpt lat="43.61009" lon="1.4721">
        <ele>158.75</ele>
        <time>2026-05-26T09:46:10Z</time>
      </trkpt>
      <trkpt lat="43.61008" lon="1.47209">
        <ele>158.75</ele>
        <time>2026-05-26T09:46:11Z</time>
      </trkpt>
      <trkpt lat="43.61007" lon="1.47207">
        <ele>158.75</ele>
        <time>2026-05-26T09:46:12Z</time>
      </trkpt>
      <trkpt lat="43.61007" lon="1.47205">
        <ele>158.75</ele>
        <time>2026-05-26T09:46:13Z</time>
      </trkpt>
      <trkpt lat="43.61007" lon="1.47203">
        <ele>159.24</ele>
        <time>2026-05-26T09:46:14Z</time>
      </trkpt>
      <trkpt lat="43.61006" lon="1.47195">
        <ele>160.2</ele>
        <time>2026-05-26T09:46:21Z</time>
      </trkpt>
      <trkpt lat="43.61006" lon="1.47193">
        <ele>160.2</ele>
        <time>2026-05-26T09:46:22Z</time>
      </trkpt>
      <trkpt lat="43.61005" lon="1.47191">
        <ele>160.2</ele>
        <time>2026-05-26T09:46:23Z</time>
      </trkpt>
      <trkpt lat="43.61003" lon="1.47179">
        <ele>161.64</ele>
        <time>2026-05-26T09:46:32Z</time>
      </trkpt>
      <trkpt lat="43.61002" lon="1.47177">
        <ele>161.64</ele>
        <time>2026-05-26T09:46:33Z</time>
      </trkpt>
      <trkpt lat="43.61002" lon="1.47175">
        <ele>161.64</ele>
        <time>2026-05-26T09:46:34Z</time>
      </trkpt>
      <trkpt lat="43.60995" lon="1.47156">
        <ele>163.56</ele>
        <time>2026-05-26T09:46:47Z</time>
      </trkpt>
      <trkpt lat="43.60986" lon="1.47142">
        <ele>164.52</ele>
        <time>2026-05-26T09:46:59Z</time>
      </trkpt>
      <trkpt lat="43.60977" lon="1.47124">
        <ele>166.45</ele>
        <time>2026-05-26T09:47:13Z</time>
      </trkpt>
      <trkpt lat="43.60973" lon="1.47116">
        <ele>167.41</ele>
        <time>2026-05-26T09:47:20Z</time>
      </trkpt>
      <trkpt lat="43.60972" lon="1.47115">
        <ele>167.41</ele>
        <time>2026-05-26T09:47:21Z</time>
      </trkpt>
      <trkpt lat="43.60971" lon="1.47113">
        <ele>167.41</ele>
        <time>2026-05-26T09:47:22Z</time>
      </trkpt>
      <trkpt lat="43.60969" lon="1.47112">
        <ele>167.41</ele>
        <time>2026-05-26T09:47:23Z</time>
      </trkpt>
      <trkpt lat="43.60968" lon="1.47109">
        <ele>167.89</ele>
        <time>2026-05-26T09:47:24Z</time>
      </trkpt>
      <trkpt lat="43.60967" lon="1.47109">
        <ele>167.89</ele>
        <time>2026-05-26T09:47:25Z</time>
      </trkpt>
      <trkpt lat="43.60961" lon="1.47106">
        <ele>168.37</ele>
        <time>2026-05-26T09:47:31Z</time>
      </trkpt>
      <trkpt lat="43.60959" lon="1.47106">
        <ele>168.37</ele>
        <time>2026-05-26T09:47:32Z</time>
      </trkpt>
      <trkpt lat="43.60945" lon="1.47099">
        <ele>170.29</ele>
        <time>2026-05-26T09:47:45Z</time>
      </trkpt>
      <trkpt lat="43.60937" lon="1.47089">
        <ele>171.25</ele>
        <time>2026-05-26T09:47:59Z</time>
      </trkpt>
      <trkpt lat="43.60933" lon="1.4709">
        <ele>172.69</ele>
        <time>2026-05-26T09:48:09Z</time>
      </trkpt>
      <trkpt lat="43.60936" lon="1.47083">
        <ele>173.17</ele>
        <time>2026-05-26T09:48:19Z</time>
      </trkpt>
      <trkpt lat="43.60935" lon="1.47077">
        <ele>173.17</ele>
        <time>2026-05-26T09:48:23Z</time>
      </trkpt>
      <trkpt lat="43.60934" lon="1.47076">
        <ele>173.17</ele>
        <time>2026-05-26T09:48:24Z</time>
      </trkpt>
      <trkpt lat="43.60932" lon="1.4706">
        <ele>172.69</ele>
        <time>2026-05-26T09:48:37Z</time>
      </trkpt>
      <trkpt lat="43.60928" lon="1.47064">
        <ele>172.69</ele>
        <time>2026-05-26T09:48:41Z</time>
      </trkpt>
      <trkpt lat="43.60924" lon="1.47071">
        <ele>171.73</ele>
        <time>2026-05-26T09:48:45Z</time>
      </trkpt>
      <trkpt lat="43.60916" lon="1.47081">
        <ele>172.69</ele>
        <time>2026-05-26T09:48:52Z</time>
      </trkpt>
      <trkpt lat="43.60905" lon="1.4708">
        <ele>173.66</ele>
        <time>2026-05-26T09:49:02Z</time>
      </trkpt>
      <trkpt lat="43.60904" lon="1.47077">
        <ele>173.66</ele>
        <time>2026-05-26T09:49:03Z</time>
      </trkpt>
      <trkpt lat="43.609" lon="1.47068">
        <ele>174.62</ele>
        <time>2026-05-26T09:49:07Z</time>
      </trkpt>
      <trkpt lat="43.60899" lon="1.47067">
        <ele>174.62</ele>
        <time>2026-05-26T09:49:08Z</time>
      </trkpt>
      <trkpt lat="43.60895" lon="1.47058">
        <ele>175.58</ele>
        <time>2026-05-26T09:49:17Z</time>
      </trkpt>
      <trkpt lat="43.60889" lon="1.47037">
        <ele>177.5</ele>
        <time>2026-05-26T09:49:31Z</time>
      </trkpt>
      <trkpt lat="43.60879" lon="1.47014">
        <ele>178.46</ele>
        <time>2026-05-26T09:49:48Z</time>
      </trkpt>
      <trkpt lat="43.60867" lon="1.46997">
        <ele>179.9</ele>
        <time>2026-05-26T09:50:03Z</time>
      </trkpt>
      <trkpt lat="43.60866" lon="1.46987">
        <ele>180.87</ele>
        <time>2026-05-26T09:50:12Z</time>
      </trkpt>
      <trkpt lat="43.60866" lon="1.46985">
        <ele>180.87</ele>
        <time>2026-05-26T09:50:13Z</time>
      </trkpt>
      <trkpt lat="43.60857" lon="1.46961">
        <ele>182.79</ele>
        <time>2026-05-26T09:50:31Z</time>
      </trkpt>
      <trkpt lat="43.60838" lon="1.46938">
        <ele>184.23</ele>
        <time>2026-05-26T09:50:49Z</time>
      </trkpt>
      <trkpt lat="43.60824" lon="1.46915">
        <ele>186.15</ele>
        <time>2026-05-26T09:51:06Z</time>
      </trkpt>
      <trkpt lat="43.60812" lon="1.46896">
        <ele>187.59</ele>
        <time>2026-05-26T09:51:22Z</time>
      </trkpt>
      <trkpt lat="43.6081" lon="1.46889">
        <ele>188.56</ele>
        <time>2026-05-26T09:51:27Z</time>
      </trkpt>
      <trkpt lat="43.60808" lon="1.46885">
        <ele>188.56</ele>
        <time>2026-05-26T09:51:30Z</time>
      </trkpt>
      <trkpt lat="43.60803" lon="1.46877">
        <ele>189.52</ele>
        <time>2026-05-26T09:51:39Z</time>
      </trkpt>
      <trkpt lat="43.60802" lon="1.46876">
        <ele>189.52</ele>
        <time>2026-05-26T09:51:40Z</time>
      </trkpt>
      <trkpt lat="43.60788" lon="1.46853">
        <ele>191.44</ele>
        <time>2026-05-26T09:51:56Z</time>
      </trkpt>
      <trkpt lat="43.60786" lon="1.46849">
        <ele>191.44</ele>
        <time>2026-05-26T09:51:58Z</time>
      </trkpt>
      <trkpt lat="43.60785" lon="1.46848">
        <ele>191.44</ele>
        <time>2026-05-26T09:51:59Z</time>
      </trkpt>
      <trkpt lat="43.60772" lon="1.46822">
        <ele>192.4</ele>
        <time>2026-05-26T09:52:17Z</time>
      </trkpt>
      <trkpt lat="43.60763" lon="1.46796">
        <ele>193.36</ele>
        <time>2026-05-26T09:52:33Z</time>
      </trkpt>
      <trkpt lat="43.60751" lon="1.46773">
        <ele>194.32</ele>
        <time>2026-05-26T09:52:50Z</time>
      </trkpt>
      <trkpt lat="43.60737" lon="1.46753">
        <ele>194.8</ele>
        <time>2026-05-26T09:53:05Z</time>
      </trkpt>
      <trkpt lat="43.60736" lon="1.46751">
        <ele>194.8</ele>
        <time>2026-05-26T09:53:06Z</time>
      </trkpt>
      <trkpt lat="43.60731" lon="1.46728">
        <ele>195.28</ele>
        <time>2026-05-26T09:53:22Z</time>
      </trkpt>
      <trkpt lat="43.60731" lon="1.46725">
        <ele>195.28</ele>
        <time>2026-05-26T09:53:23Z</time>
      </trkpt>
      <trkpt lat="43.6073" lon="1.46724">
        <ele>195.28</ele>
        <time>2026-05-26T09:53:24Z</time>
      </trkpt>
      <trkpt lat="43.6073" lon="1.46723">
        <ele>196.25</ele>
        <time>2026-05-26T09:53:25Z</time>
      </trkpt>
      <trkpt lat="43.6073" lon="1.46721">
        <ele>196.25</ele>
        <time>2026-05-26T09:53:26Z</time>
      </trkpt>
      <trkpt lat="43.60732" lon="1.46708">
        <ele>195.77</ele>
        <time>2026-05-26T09:53:36Z</time>
      </trkpt>
      <trkpt lat="43.60732" lon="1.46707">
        <ele>195.77</ele>
        <time>2026-05-26T09:53:37Z</time>
      </trkpt>
      <trkpt lat="43.60735" lon="1.46705">
        <ele>195.77</ele>
        <time>2026-05-26T09:53:40Z</time>
      </trkpt>
      <trkpt lat="43.60737" lon="1.46704">
        <ele>195.77</ele>
        <time>2026-05-26T09:53:41Z</time>
      </trkpt>
      <trkpt lat="43.6075" lon="1.46694">
        <ele>194.32</ele>
        <time>2026-05-26T09:53:53Z</time>
      </trkpt>
      <trkpt lat="43.60763" lon="1.46685">
        <ele>194.32</ele>
        <time>2026-05-26T09:54:04Z</time>
      </trkpt>
      <trkpt lat="43.60764" lon="1.46683">
        <ele>194.32</ele>
        <time>2026-05-26T09:54:05Z</time>
      </trkpt>
      <trkpt lat="43.60765" lon="1.4668">
        <ele>194.32</ele>
        <time>2026-05-26T09:54:08Z</time>
      </trkpt>
      <trkpt lat="43.60765" lon="1.46677">
        <ele>194.32</ele>
        <time>2026-05-26T09:54:10Z</time>
      </trkpt>
      <trkpt lat="43.60762" lon="1.46658">
        <ele>194.32</ele>
        <time>2026-05-26T09:54:24Z</time>
      </trkpt>
      <trkpt lat="43.60762" lon="1.46653">
        <ele>194.32</ele>
        <time>2026-05-26T09:54:30Z</time>
      </trkpt>
      <trkpt lat="43.60759" lon="1.46649">
        <ele>194.32</ele>
        <time>2026-05-26T09:54:41Z</time>
      </trkpt>
      <trkpt lat="43.60754" lon="1.46637">
        <ele>193.84</ele>
        <time>2026-05-26T09:54:56Z</time>
      </trkpt>
      <trkpt lat="43.60755" lon="1.46636">
        <ele>193.84</ele>
        <time>2026-05-26T09:55:35Z</time>
      </trkpt>
      <trkpt lat="43.60755" lon="1.46637">
        <ele>193.84</ele>
        <time>2026-05-26T09:56:06Z</time>
      </trkpt>
      <trkpt lat="43.60755" lon="1.46632">
        <ele>193.84</ele>
        <time>2026-05-26T09:56:41Z</time>
      </trkpt>
      <trkpt lat="43.60753" lon="1.46629">
        <ele>195.28</ele>
        <time>2026-05-26T09:56:53Z</time>
      </trkpt>
      <trkpt lat="43.60752" lon="1.46628">
        <ele>193.84</ele>
        <time>2026-05-26T09:56:55Z</time>
      </trkpt>
      <trkpt lat="43.60743" lon="1.4662">
        <ele>193.36</ele>
        <time>2026-05-26T09:57:10Z</time>
      </trkpt>
      <trkpt lat="43.60742" lon="1.46614">
        <ele>193.36</ele>
        <time>2026-05-26T09:57:27Z</time>
      </trkpt>
      <trkpt lat="43.60748" lon="1.46612">
        <ele>193.36</ele>
        <time>2026-05-26T09:58:02Z</time>
      </trkpt>
      <trkpt lat="43.60747" lon="1.46611">
        <ele>193.36</ele>
        <time>2026-05-26T09:58:29Z</time>
      </trkpt>
      <trkpt lat="43.60744" lon="1.46617">
        <ele>193.36</ele>
        <time>2026-05-26T09:58:47Z</time>
      </trkpt>
      <trkpt lat="43.60738" lon="1.46625">
        <ele>193.84</ele>
        <time>2026-05-26T09:59:16Z</time>
      </trkpt>
      <trkpt lat="43.6074" lon="1.46607">
        <ele>193.84</ele>
        <time>2026-05-26T09:59:30Z</time>
      </trkpt>
      <trkpt lat="43.60739" lon="1.46596">
        <ele>193.84</ele>
        <time>2026-05-26T09:59:42Z</time>
      </trkpt>
      <trkpt lat="43.60739" lon="1.46595">
        <ele>193.84</ele>
        <time>2026-05-26T09:59:43Z</time>
      </trkpt>
      <trkpt lat="43.60738" lon="1.46594">
        <ele>193.84</ele>
        <time>2026-05-26T09:59:44Z</time>
      </trkpt>
      <trkpt lat="43.60737" lon="1.46592">
        <ele>193.84</ele>
        <time>2026-05-26T09:59:45Z</time>
      </trkpt>
      <trkpt lat="43.60737" lon="1.4659">
        <ele>193.84</ele>
        <time>2026-05-26T09:59:46Z</time>
      </trkpt>
      <trkpt lat="43.60737" lon="1.46589">
        <ele>193.84</ele>
        <time>2026-05-26T09:59:47Z</time>
      </trkpt>
      <trkpt lat="43.60734" lon="1.46576">
        <ele>194.32</ele>
        <time>2026-05-26T10:00:03Z</time>
      </trkpt>
      <trkpt lat="43.60735" lon="1.46574">
        <ele>194.32</ele>
        <time>2026-05-26T10:00:20Z</time>
      </trkpt>
      <trkpt lat="43.60735" lon="1.46572">
        <ele>194.32</ele>
        <time>2026-05-26T10:00:21Z</time>
      </trkpt>
      <trkpt lat="43.60725" lon="1.46555">
        <ele>194.32</ele>
        <time>2026-05-26T10:00:38Z</time>
      </trkpt>
      <trkpt lat="43.60726" lon="1.46556">
        <ele>194.32</ele>
        <time>2026-05-26T10:01:05Z</time>
      </trkpt>
      <trkpt lat="43.60732" lon="1.46553">
        <ele>194.32</ele>
        <time>2026-05-26T10:01:11Z</time>
      </trkpt>
      <trkpt lat="43.60752" lon="1.46545">
        <ele>193.36</ele>
        <time>2026-05-26T10:01:28Z</time>
      </trkpt>
      <trkpt lat="43.60771" lon="1.46531">
        <ele>192.88</ele>
        <time>2026-05-26T10:01:47Z</time>
      </trkpt>
      <trkpt lat="43.60799" lon="1.46522">
        <ele>192.88</ele>
        <time>2026-05-26T10:02:07Z</time>
      </trkpt>
      <trkpt lat="43.6082" lon="1.46515">
        <ele>192.4</ele>
        <time>2026-05-26T10:02:21Z</time>
      </trkpt>
      <trkpt lat="43.60828" lon="1.46513">
        <ele>192.4</ele>
        <time>2026-05-26T10:02:27Z</time>
      </trkpt>
      <trkpt lat="43.60834" lon="1.46511">
        <ele>191.44</ele>
        <time>2026-05-26T10:02:32Z</time>
      </trkpt>
      <trkpt lat="43.60852" lon="1.46508">
        <ele>190.96</ele>
        <time>2026-05-26T10:02:47Z</time>
      </trkpt>
      <trkpt lat="43.60852" lon="1.46506">
        <ele>191.44</ele>
        <time>2026-05-26T10:02:59Z</time>
      </trkpt>
      <trkpt lat="43.60853" lon="1.46506">
        <ele>190.96</ele>
        <time>2026-05-26T10:03:27Z</time>
      </trkpt>
      <trkpt lat="43.60855" lon="1.46502">
        <ele>190.96</ele>
        <time>2026-05-26T10:03:40Z</time>
      </trkpt>
      <trkpt lat="43.6087" lon="1.46494">
        <ele>190.96</ele>
        <time>2026-05-26T10:03:53Z</time>
      </trkpt>
      <trkpt lat="43.60887" lon="1.46486">
        <ele>190.48</ele>
        <time>2026-05-26T10:04:06Z</time>
      </trkpt>
      <trkpt lat="43.60901" lon="1.46479">
        <ele>190.48</ele>
        <time>2026-05-26T10:04:18Z</time>
      </trkpt>
      <trkpt lat="43.60916" lon="1.46472">
        <ele>190</ele>
        <time>2026-05-26T10:04:31Z</time>
      </trkpt>
      <trkpt lat="43.60928" lon="1.46468">
        <ele>190</ele>
        <time>2026-05-26T10:04:44Z</time>
      </trkpt>
      <trkpt lat="43.6093" lon="1.46469">
        <ele>190</ele>
        <time>2026-05-26T10:04:53Z</time>
      </trkpt>
      <trkpt lat="43.60933" lon="1.46467">
        <ele>190</ele>
        <time>2026-05-26T10:04:56Z</time>
      </trkpt>
      <trkpt lat="43.60934" lon="1.46466">
        <ele>190</ele>
        <time>2026-05-26T10:04:57Z</time>
      </trkpt>
      <trkpt lat="43.6095" lon="1.4646">
        <ele>190</ele>
        <time>2026-05-26T10:05:13Z</time>
      </trkpt>
      <trkpt lat="43.60969" lon="1.46454">
        <ele>190</ele>
        <time>2026-05-26T10:05:27Z</time>
      </trkpt>
      <trkpt lat="43.60982" lon="1.46446">
        <ele>190</ele>
        <time>2026-05-26T10:05:39Z</time>
      </trkpt>
      <trkpt lat="43.60984" lon="1.46438">
        <ele>190.48</ele>
        <time>2026-05-26T10:05:48Z</time>
      </trkpt>
      <trkpt lat="43.60983" lon="1.46436">
        <ele>190.48</ele>
        <time>2026-05-26T10:05:49Z</time>
      </trkpt>
      <trkpt lat="43.60982" lon="1.4643">
        <ele>190.48</ele>
        <time>2026-05-26T10:05:52Z</time>
      </trkpt>
      <trkpt lat="43.60982" lon="1.46424">
        <ele>189.04</ele>
        <time>2026-05-26T10:05:55Z</time>
      </trkpt>
      <trkpt lat="43.60982" lon="1.46422">
        <ele>189.04</ele>
        <time>2026-05-26T10:05:56Z</time>
      </trkpt>
      <trkpt lat="43.6098" lon="1.46397">
        <ele>187.59</ele>
        <time>2026-05-26T10:06:09Z</time>
      </trkpt>
      <trkpt lat="43.60978" lon="1.46392">
        <ele>187.59</ele>
        <time>2026-05-26T10:06:13Z</time>
      </trkpt>
      <trkpt lat="43.60977" lon="1.4639">
        <ele>187.11</ele>
        <time>2026-05-26T10:06:14Z</time>
      </trkpt>
      <trkpt lat="43.60977" lon="1.46388">
        <ele>187.11</ele>
        <time>2026-05-26T10:06:15Z</time>
      </trkpt>
      <trkpt lat="43.60977" lon="1.46386">
        <ele>187.11</ele>
        <time>2026-05-26T10:06:16Z</time>
      </trkpt>
      <trkpt lat="43.60977" lon="1.46384">
        <ele>187.11</ele>
        <time>2026-05-26T10:06:17Z</time>
      </trkpt>
      <trkpt lat="43.60971" lon="1.46359">
        <ele>186.15</ele>
        <time>2026-05-26T10:06:33Z</time>
      </trkpt>
      <trkpt lat="43.60971" lon="1.46357">
        <ele>186.15</ele>
        <time>2026-05-26T10:06:34Z</time>
      </trkpt>
      <trkpt lat="43.6097" lon="1.46356">
        <ele>186.15</ele>
        <time>2026-05-26T10:06:35Z</time>
      </trkpt>
      <trkpt lat="43.60969" lon="1.46327">
        <ele>185.19</ele>
        <time>2026-05-26T10:06:51Z</time>
      </trkpt>
      <trkpt lat="43.60962" lon="1.46296">
        <ele>183.75</ele>
        <time>2026-05-26T10:07:08Z</time>
      </trkpt>
      <trkpt lat="43.60956" lon="1.46266">
        <ele>182.79</ele>
        <time>2026-05-26T10:07:25Z</time>
      </trkpt>
      <trkpt lat="43.60948" lon="1.46226">
        <ele>181.83</ele>
        <time>2026-05-26T10:07:46Z</time>
      </trkpt>
      <trkpt lat="43.60946" lon="1.46214">
        <ele>181.83</ele>
        <time>2026-05-26T10:07:54Z</time>
      </trkpt>
      <trkpt lat="43.60948" lon="1.46206">
        <ele>181.35</ele>
        <time>2026-05-26T10:08:00Z</time>
      </trkpt>
      <trkpt lat="43.60952" lon="1.46201">
        <ele>180.87</ele>
        <time>2026-05-26T10:08:09Z</time>
      </trkpt>
      <trkpt lat="43.60953" lon="1.46199">
        <ele>180.87</ele>
        <time>2026-05-26T10:08:10Z</time>
      </trkpt>
      <trkpt lat="43.60952" lon="1.46177">
        <ele>180.38</ele>
        <time>2026-05-26T10:08:25Z</time>
      </trkpt>
      <trkpt lat="43.60952" lon="1.46172">
        <ele>180.38</ele>
        <time>2026-05-26T10:08:29Z</time>
      </trkpt>
      <trkpt lat="43.60947" lon="1.46143">
        <ele>178.46</ele>
        <time>2026-05-26T10:08:47Z</time>
      </trkpt>
      <trkpt lat="43.60944" lon="1.46119">
        <ele>177.98</ele>
        <time>2026-05-26T10:09:00Z</time>
      </trkpt>
      <trkpt lat="43.60945" lon="1.46117">
        <ele>177.98</ele>
        <time>2026-05-26T10:09:01Z</time>
      </trkpt>
      <trkpt lat="43.60949" lon="1.4611">
        <ele>177.5</ele>
        <time>2026-05-26T10:09:17Z</time>
      </trkpt>
      <trkpt lat="43.6095" lon="1.46112">
        <ele>177.5</ele>
        <time>2026-05-26T10:09:18Z</time>
      </trkpt>
      <trkpt lat="43.60966" lon="1.46128">
        <ele>178.94</ele>
        <time>2026-05-26T10:09:34Z</time>
      </trkpt>
      <trkpt lat="43.60988" lon="1.46143">
        <ele>180.38</ele>
        <time>2026-05-26T10:09:53Z</time>
      </trkpt>
      <trkpt lat="43.61006" lon="1.46152">
        <ele>181.83</ele>
        <time>2026-05-26T10:10:10Z</time>
      </trkpt>
      <trkpt lat="43.61026" lon="1.46162">
        <ele>183.75</ele>
        <time>2026-05-26T10:10:30Z</time>
      </trkpt>
      <trkpt lat="43.61043" lon="1.46167">
        <ele>184.71</ele>
        <time>2026-05-26T10:10:44Z</time>
      </trkpt>
      <trkpt lat="43.61044" lon="1.46167">
        <ele>184.71</ele>
        <time>2026-05-26T10:10:45Z</time>
      </trkpt>
      <trkpt lat="43.61064" lon="1.4618">
        <ele>187.11</ele>
        <time>2026-05-26T10:11:03Z</time>
      </trkpt>
      <trkpt lat="43.61068" lon="1.46181">
        <ele>187.59</ele>
        <time>2026-05-26T10:11:09Z</time>
      </trkpt>
      <trkpt lat="43.6107" lon="1.46181">
        <ele>187.59</ele>
        <time>2026-05-26T10:11:10Z</time>
      </trkpt>
      <trkpt lat="43.6109" lon="1.46192">
        <ele>188.56</ele>
        <time>2026-05-26T10:11:26Z</time>
      </trkpt>
      <trkpt lat="43.61092" lon="1.46193">
        <ele>188.56</ele>
        <time>2026-05-26T10:11:28Z</time>
      </trkpt>
      <trkpt lat="43.61093" lon="1.46194">
        <ele>189.04</ele>
        <time>2026-05-26T10:11:29Z</time>
      </trkpt>
      <trkpt lat="43.61095" lon="1.46194">
        <ele>189.04</ele>
        <time>2026-05-26T10:11:30Z</time>
      </trkpt>
      <trkpt lat="43.61103" lon="1.46202">
        <ele>190</ele>
        <time>2026-05-26T10:11:45Z</time>
      </trkpt>
      <trkpt lat="43.61106" lon="1.46208">
        <ele>190.48</ele>
        <time>2026-05-26T10:12:11Z</time>
      </trkpt>
      <trkpt lat="43.61106" lon="1.46215">
        <ele>190.96</ele>
        <time>2026-05-26T10:12:21Z</time>
      </trkpt>
      <trkpt lat="43.61106" lon="1.46218">
        <ele>190.96</ele>
        <time>2026-05-26T10:12:23Z</time>
      </trkpt>
      <trkpt lat="43.61105" lon="1.4622">
        <ele>190.96</ele>
        <time>2026-05-26T10:12:24Z</time>
      </trkpt>
      <trkpt lat="43.61105" lon="1.46221">
        <ele>190.96</ele>
        <time>2026-05-26T10:12:25Z</time>
      </trkpt>
      <trkpt lat="43.61104" lon="1.46223">
        <ele>190.96</ele>
        <time>2026-05-26T10:12:26Z</time>
      </trkpt>
      <trkpt lat="43.61104" lon="1.46224">
        <ele>191.44</ele>
        <time>2026-05-26T10:12:27Z</time>
      </trkpt>
      <trkpt lat="43.61103" lon="1.46241">
        <ele>191.44</ele>
        <time>2026-05-26T10:12:37Z</time>
      </trkpt>
      <trkpt lat="43.61102" lon="1.46243">
        <ele>191.44</ele>
        <time>2026-05-26T10:12:38Z</time>
      </trkpt>
      <trkpt lat="43.61108" lon="1.46266">
        <ele>192.4</ele>
        <time>2026-05-26T10:12:55Z</time>
      </trkpt>
      <trkpt lat="43.61118" lon="1.46257">
        <ele>192.4</ele>
        <time>2026-05-26T10:13:06Z</time>
      </trkpt>
      <trkpt lat="43.61119" lon="1.46256">
        <ele>192.88</ele>
        <time>2026-05-26T10:13:07Z</time>
      </trkpt>
      <trkpt lat="43.61125" lon="1.46249">
        <ele>193.84</ele>
        <time>2026-05-26T10:13:15Z</time>
      </trkpt>
      <trkpt lat="43.61126" lon="1.46248">
        <ele>193.84</ele>
        <time>2026-05-26T10:13:16Z</time>
      </trkpt>
      <trkpt lat="43.61136" lon="1.46231">
        <ele>194.8</ele>
        <time>2026-05-26T10:13:29Z</time>
      </trkpt>
      <trkpt lat="43.61139" lon="1.46224">
        <ele>194.8</ele>
        <time>2026-05-26T10:13:41Z</time>
      </trkpt>
      <trkpt lat="43.61138" lon="1.46223">
        <ele>194.8</ele>
        <time>2026-05-26T10:14:10Z</time>
      </trkpt>
      <trkpt lat="43.61138" lon="1.4622">
        <ele>194.8</ele>
        <time>2026-05-26T10:14:37Z</time>
      </trkpt>
      <trkpt lat="43.6114" lon="1.46218">
        <ele>194.32</ele>
        <time>2026-05-26T10:15:08Z</time>
      </trkpt>
      <trkpt lat="43.6114" lon="1.46221">
        <ele>193.84</ele>
        <time>2026-05-26T10:15:25Z</time>
      </trkpt>
      <trkpt lat="43.61141" lon="1.46217">
        <ele>193.84</ele>
        <time>2026-05-26T10:15:47Z</time>
      </trkpt>
      <trkpt lat="43.61139" lon="1.46218">
        <ele>193.84</ele>
        <time>2026-05-26T10:16:13Z</time>
      </trkpt>
      <trkpt lat="43.61138" lon="1.46215">
        <ele>193.84</ele>
        <time>2026-05-26T10:16:45Z</time>
      </trkpt>
      <trkpt lat="43.6114" lon="1.46218">
        <ele>193.84</ele>
        <time>2026-05-26T10:17:24Z</time>
      </trkpt>
      <trkpt lat="43.61142" lon="1.46216">
        <ele>193.84</ele>
        <time>2026-05-26T10:17:31Z</time>
      </trkpt>
      <trkpt lat="43.61146" lon="1.46215">
        <ele>193.36</ele>
        <time>2026-05-26T10:17:35Z</time>
      </trkpt>
      <trkpt lat="43.61147" lon="1.46214">
        <ele>193.36</ele>
        <time>2026-05-26T10:17:36Z</time>
      </trkpt>
      <trkpt lat="43.61148" lon="1.46213">
        <ele>193.36</ele>
        <time>2026-05-26T10:17:37Z</time>
      </trkpt>
      <trkpt lat="43.61163" lon="1.46198">
        <ele>192.4</ele>
        <time>2026-05-26T10:17:54Z</time>
      </trkpt>
      <trkpt lat="43.61182" lon="1.46187">
        <ele>190.96</ele>
        <time>2026-05-26T10:18:11Z</time>
      </trkpt>
      <trkpt lat="43.61195" lon="1.46168">
        <ele>190.48</ele>
        <time>2026-05-26T10:18:28Z</time>
      </trkpt>
      <trkpt lat="43.61194" lon="1.46158">
        <ele>188.08</ele>
        <time>2026-05-26T10:18:44Z</time>
      </trkpt>
      <trkpt lat="43.61191" lon="1.46153">
        <ele>188.08</ele>
        <time>2026-05-26T10:18:48Z</time>
      </trkpt>
      <trkpt lat="43.61184" lon="1.46126">
        <ele>186.15</ele>
        <time>2026-05-26T10:19:05Z</time>
      </trkpt>
      <trkpt lat="43.61184" lon="1.46124">
        <ele>186.15</ele>
        <time>2026-05-26T10:19:06Z</time>
      </trkpt>
      <trkpt lat="43.61175" lon="1.46101">
        <ele>182.79</ele>
        <time>2026-05-26T10:19:20Z</time>
      </trkpt>
      <trkpt lat="43.61174" lon="1.46097">
        <ele>182.79</ele>
        <time>2026-05-26T10:19:24Z</time>
      </trkpt>
      <trkpt lat="43.61173" lon="1.46095">
        <ele>181.83</ele>
        <time>2026-05-26T10:19:25Z</time>
      </trkpt>
      <trkpt lat="43.61172" lon="1.46094">
        <ele>181.83</ele>
        <time>2026-05-26T10:19:26Z</time>
      </trkpt>
      <trkpt lat="43.61157" lon="1.46069">
        <ele>178.94</ele>
        <time>2026-05-26T10:19:43Z</time>
      </trkpt>
      <trkpt lat="43.61144" lon="1.46049">
        <ele>176.06</ele>
        <time>2026-05-26T10:19:57Z</time>
      </trkpt>
      <trkpt lat="43.61134" lon="1.46024">
        <ele>174.14</ele>
        <time>2026-05-26T10:20:11Z</time>
      </trkpt>
      <trkpt lat="43.61129" lon="1.46002">
        <ele>171.25</ele>
        <time>2026-05-26T10:20:25Z</time>
      </trkpt>
      <trkpt lat="43.61119" lon="1.45984">
        <ele>168.85</ele>
        <time>2026-05-26T10:20:39Z</time>
      </trkpt>
      <trkpt lat="43.61119" lon="1.45983">
        <ele>168.85</ele>
        <time>2026-05-26T10:20:40Z</time>
      </trkpt>
      <trkpt lat="43.61115" lon="1.45973">
        <ele>167.41</ele>
        <time>2026-05-26T10:20:46Z</time>
      </trkpt>
      <trkpt lat="43.61114" lon="1.45972">
        <ele>166.93</ele>
        <time>2026-05-26T10:20:47Z</time>
      </trkpt>
      <trkpt lat="43.61113" lon="1.45971">
        <ele>166.45</ele>
        <time>2026-05-26T10:20:48Z</time>
      </trkpt>
      <trkpt lat="43.61112" lon="1.4597">
        <ele>166.45</ele>
        <time>2026-05-26T10:20:49Z</time>
      </trkpt>
      <trkpt lat="43.6111" lon="1.45969">
        <ele>166.45</ele>
        <time>2026-05-26T10:20:50Z</time>
      </trkpt>
      <trkpt lat="43.61108" lon="1.45968">
        <ele>166.45</ele>
        <time>2026-05-26T10:20:51Z</time>
      </trkpt>
      <trkpt lat="43.61099" lon="1.45948">
        <ele>165</ele>
        <time>2026-05-26T10:21:04Z</time>
      </trkpt>
      <trkpt lat="43.61099" lon="1.45946">
        <ele>164.52</ele>
        <time>2026-05-26T10:21:05Z</time>
      </trkpt>
      <trkpt lat="43.61098" lon="1.45944">
        <ele>165</ele>
        <time>2026-05-26T10:21:06Z</time>
      </trkpt>
      <trkpt lat="43.61098" lon="1.45943">
        <ele>165</ele>
        <time>2026-05-26T10:21:07Z</time>
      </trkpt>
      <trkpt lat="43.61098" lon="1.45937">
        <ele>163.56</ele>
        <time>2026-05-26T10:21:20Z</time>
      </trkpt>
      <trkpt lat="43.61095" lon="1.45938">
        <ele>163.56</ele>
        <time>2026-05-26T10:21:32Z</time>
      </trkpt>
      <trkpt lat="43.61097" lon="1.45935">
        <ele>163.56</ele>
        <time>2026-05-26T10:21:36Z</time>
      </trkpt>
      <trkpt lat="43.61098" lon="1.45934">
        <ele>163.56</ele>
        <time>2026-05-26T10:21:37Z</time>
      </trkpt>
      <trkpt lat="43.611" lon="1.45931">
        <ele>163.56</ele>
        <time>2026-05-26T10:21:38Z</time>
      </trkpt>
      <trkpt lat="43.61101" lon="1.45929">
        <ele>163.56</ele>
        <time>2026-05-26T10:21:39Z</time>
      </trkpt>
      <trkpt lat="43.61102" lon="1.45928">
        <ele>163.56</ele>
        <time>2026-05-26T10:21:40Z</time>
      </trkpt>
      <trkpt lat="43.61105" lon="1.45901">
        <ele>162.12</ele>
        <time>2026-05-26T10:21:56Z</time>
      </trkpt>
      <trkpt lat="43.61108" lon="1.45877">
        <ele>160.68</ele>
        <time>2026-05-26T10:22:11Z</time>
      </trkpt>
      <trkpt lat="43.61115" lon="1.45857">
        <ele>159.72</ele>
        <time>2026-05-26T10:22:25Z</time>
      </trkpt>
      <trkpt lat="43.61118" lon="1.45841">
        <ele>159.72</ele>
        <time>2026-05-26T10:22:35Z</time>
      </trkpt>
      <trkpt lat="43.61118" lon="1.45819">
        <ele>159.24</ele>
        <time>2026-05-26T10:22:51Z</time>
      </trkpt>
      <trkpt lat="43.61118" lon="1.45819">
        <ele>159.24</ele>
        <time>2026-05-26T10:22:52Z</time>
      </trkpt>
      <trkpt lat="43.61116" lon="1.45817">
        <ele>157.79</ele>
        <time>2026-05-26T10:22:54Z</time>
      </trkpt>
      <trkpt lat="43.61116" lon="1.45817">
        <ele>158.27</ele>
        <time>2026-05-26T10:23:01Z</time>
      </trkpt>
      <trkpt lat="43.6113" lon="1.45786">
        <ele>156.83</ele>
        <time>2026-05-26T10:23:17Z</time>
      </trkpt>
      <trkpt lat="43.61129" lon="1.45774">
        <ele>155.87</ele>
        <time>2026-05-26T10:23:31Z</time>
      </trkpt>
      <trkpt lat="43.61129" lon="1.45774">
        <ele>155.87</ele>
        <time>2026-05-26T10:23:32Z</time>
      </trkpt>
      <trkpt lat="43.61122" lon="1.45768">
        <ele>155.87</ele>
        <time>2026-05-26T10:23:42Z</time>
      </trkpt>
      <trkpt lat="43.61106" lon="1.45747">
        <ele>155.39</ele>
        <time>2026-05-26T10:23:59Z</time>
      </trkpt>
      <trkpt lat="43.61104" lon="1.45735">
        <ele>155.39</ele>
        <time>2026-05-26T10:24:06Z</time>
      </trkpt>
      <trkpt lat="43.61105" lon="1.45732">
        <ele>155.39</ele>
        <time>2026-05-26T10:24:07Z</time>
      </trkpt>
      <trkpt lat="43.61098" lon="1.45725">
        <ele>155.39</ele>
        <time>2026-05-26T10:24:15Z</time>
      </trkpt>
      <trkpt lat="43.61099" lon="1.45723">
        <ele>155.39</ele>
        <time>2026-05-26T10:24:17Z</time>
      </trkpt>
      <trkpt lat="43.611" lon="1.4572">
        <ele>155.39</ele>
        <time>2026-05-26T10:24:20Z</time>
      </trkpt>
      <trkpt lat="43.611" lon="1.45716">
        <ele>154.91</ele>
        <time>2026-05-26T10:24:23Z</time>
      </trkpt>
      <trkpt lat="43.6109" lon="1.457">
        <ele>154.43</ele>
        <time>2026-05-26T10:24:38Z</time>
      </trkpt>
      <trkpt lat="43.61091" lon="1.45698">
        <ele>154.43</ele>
        <time>2026-05-26T10:24:39Z</time>
      </trkpt>
      <trkpt lat="43.61092" lon="1.45693">
        <ele>154.91</ele>
        <time>2026-05-26T10:24:43Z</time>
      </trkpt>
      <trkpt lat="43.61103" lon="1.45678">
        <ele>154.91</ele>
        <time>2026-05-26T10:24:57Z</time>
      </trkpt>
      <trkpt lat="43.61111" lon="1.45672">
        <ele>154.91</ele>
        <time>2026-05-26T10:25:08Z</time>
      </trkpt>
      <trkpt lat="43.61117" lon="1.45681">
        <ele>154.91</ele>
        <time>2026-05-26T10:25:29Z</time>
      </trkpt>
      <trkpt lat="43.61125" lon="1.45664">
        <ele>154.91</ele>
        <time>2026-05-26T10:25:46Z</time>
      </trkpt>
      <trkpt lat="43.61119" lon="1.45627">
        <ele>154.91</ele>
        <time>2026-05-26T10:26:12Z</time>
      </trkpt>
      <trkpt lat="43.6112" lon="1.45635">
        <ele>154.91</ele>
        <time>2026-05-26T10:26:35Z</time>
      </trkpt>
      <trkpt lat="43.6114" lon="1.45643">
        <ele>155.39</ele>
        <time>2026-05-26T10:46:04Z</time>
      </trkpt>
      <trkpt lat="43.61139" lon="1.4564">
        <ele>155.39</ele>
        <time>2026-05-26T10:46:13Z</time>
      </trkpt>
      <trkpt lat="43.61133" lon="1.45632">
        <ele>155.39</ele>
        <time>2026-05-26T10:46:27Z</time>
      </trkpt>
      <trkpt lat="43.61116" lon="1.45615">
        <ele>155.87</ele>
        <time>2026-05-26T10:46:45Z</time>
      </trkpt>
      <trkpt lat="43.61112" lon="1.45613">
        <ele>155.87</ele>
        <time>2026-05-26T10:46:50Z</time>
      </trkpt>
      <trkpt lat="43.61111" lon="1.4561">
        <ele>155.87</ele>
        <time>2026-05-26T10:46:53Z</time>
      </trkpt>
      <trkpt lat="43.61097" lon="1.45599">
        <ele>156.35</ele>
        <time>2026-05-26T10:47:10Z</time>
      </trkpt>
      <trkpt lat="43.61077" lon="1.4559">
        <ele>155.39</ele>
        <time>2026-05-26T10:47:27Z</time>
      </trkpt>
      <trkpt lat="43.61064" lon="1.45584">
        <ele>157.79</ele>
        <time>2026-05-26T10:47:42Z</time>
      </trkpt>
      <trkpt lat="43.61027" lon="1.45541">
        <ele>156.83</ele>
        <time>2026-05-26T10:48:03Z</time>
      </trkpt>
      <trkpt lat="43.61026" lon="1.45537">
        <ele>157.79</ele>
        <time>2026-05-26T10:48:05Z</time>
      </trkpt>
      <trkpt lat="43.61019" lon="1.45513">
        <ele>158.27</ele>
        <time>2026-05-26T10:48:22Z</time>
      </trkpt>
      <trkpt lat="43.6102" lon="1.45506">
        <ele>158.27</ele>
        <time>2026-05-26T10:48:29Z</time>
      </trkpt>
      <trkpt lat="43.61012" lon="1.45494">
        <ele>159.24</ele>
        <time>2026-05-26T10:48:40Z</time>
      </trkpt>
      <trkpt lat="43.61008" lon="1.45489">
        <ele>159.24</ele>
        <time>2026-05-26T10:48:44Z</time>
      </trkpt>
      <trkpt lat="43.60989" lon="1.4546">
        <ele>157.79</ele>
        <time>2026-05-26T10:49:06Z</time>
      </trkpt>
      <trkpt lat="43.6098" lon="1.45445">
        <ele>157.79</ele>
        <time>2026-05-26T10:49:19Z</time>
      </trkpt>
      <trkpt lat="43.60975" lon="1.4544">
        <ele>157.79</ele>
        <time>2026-05-26T10:49:23Z</time>
      </trkpt>
      <trkpt lat="43.60968" lon="1.45425">
        <ele>156.83</ele>
        <time>2026-05-26T10:49:36Z</time>
      </trkpt>
      <trkpt lat="43.60963" lon="1.45419">
        <ele>156.83</ele>
        <time>2026-05-26T10:49:42Z</time>
      </trkpt>
      <trkpt lat="43.60947" lon="1.454">
        <ele>156.35</ele>
        <time>2026-05-26T10:50:00Z</time>
      </trkpt>
      <trkpt lat="43.60947" lon="1.45403">
        <ele>155.87</ele>
        <time>2026-05-26T10:50:10Z</time>
      </trkpt>
      <trkpt lat="43.60945" lon="1.45404">
        <ele>155.87</ele>
        <time>2026-05-26T10:50:29Z</time>
      </trkpt>
      <trkpt lat="43.60938" lon="1.45387">
        <ele>155.39</ele>
        <time>2026-05-26T10:50:43Z</time>
      </trkpt>
      <trkpt lat="43.60929" lon="1.45375">
        <ele>154.91</ele>
        <time>2026-05-26T10:50:58Z</time>
      </trkpt>
      <trkpt lat="43.60929" lon="1.45377">
        <ele>154.91</ele>
        <time>2026-05-26T10:50:59Z</time>
      </trkpt>
      <trkpt lat="43.60916" lon="1.45371">
        <ele>154.91</ele>
        <time>2026-05-26T10:51:14Z</time>
      </trkpt>
      <trkpt lat="43.60914" lon="1.45367">
        <ele>154.91</ele>
        <time>2026-05-26T10:51:24Z</time>
      </trkpt>
      <trkpt lat="43.60901" lon="1.45345">
        <ele>153.95</ele>
        <time>2026-05-26T10:51:41Z</time>
      </trkpt>
      <trkpt lat="43.60894" lon="1.45322">
        <ele>153.47</ele>
        <time>2026-05-26T10:51:56Z</time>
      </trkpt>
      <trkpt lat="43.60879" lon="1.45309">
        <ele>152.99</ele>
        <time>2026-05-26T10:52:09Z</time>
      </trkpt>
      <trkpt lat="43.60878" lon="1.45307">
        <ele>152.99</ele>
        <time>2026-05-26T10:52:11Z</time>
      </trkpt>
      <trkpt lat="43.6087" lon="1.45299">
        <ele>152.99</ele>
        <time>2026-05-26T10:52:17Z</time>
      </trkpt>
      <trkpt lat="43.60846" lon="1.4527">
        <ele>152.03</ele>
        <time>2026-05-26T10:52:37Z</time>
      </trkpt>
      <trkpt lat="43.60842" lon="1.45263">
        <ele>152.03</ele>
        <time>2026-05-26T10:52:43Z</time>
      </trkpt>
      <trkpt lat="43.6083" lon="1.45245">
        <ele>151.54</ele>
        <time>2026-05-26T10:52:57Z</time>
      </trkpt>
      <trkpt lat="43.60819" lon="1.45226">
        <ele>151.06</ele>
        <time>2026-05-26T10:53:11Z</time>
      </trkpt>
      <trkpt lat="43.6081" lon="1.45212">
        <ele>151.06</ele>
        <time>2026-05-26T10:53:21Z</time>
      </trkpt>
      <trkpt lat="43.60796" lon="1.45192">
        <ele>150.1</ele>
        <time>2026-05-26T10:53:37Z</time>
      </trkpt>
      <trkpt lat="43.6078" lon="1.45171">
        <ele>149.62</ele>
        <time>2026-05-26T10:53:53Z</time>
      </trkpt>
      <trkpt lat="43.60768" lon="1.45154">
        <ele>149.62</ele>
        <time>2026-05-26T10:54:07Z</time>
      </trkpt>
      <trkpt lat="43.60757" lon="1.45136">
        <ele>149.62</ele>
        <time>2026-05-26T10:54:20Z</time>
      </trkpt>
      <trkpt lat="43.60745" lon="1.45116">
        <ele>149.62</ele>
        <time>2026-05-26T10:54:35Z</time>
      </trkpt>
      <trkpt lat="43.60732" lon="1.45096">
        <ele>150.58</ele>
        <time>2026-05-26T10:54:50Z</time>
      </trkpt>
      <trkpt lat="43.6072" lon="1.45078">
        <ele>149.62</ele>
        <time>2026-05-26T10:55:03Z</time>
      </trkpt>
      <trkpt lat="43.60708" lon="1.45058">
        <ele>149.62</ele>
        <time>2026-05-26T10:55:18Z</time>
      </trkpt>
      <trkpt lat="43.60704" lon="1.45054">
        <ele>149.62</ele>
        <time>2026-05-26T10:55:23Z</time>
      </trkpt>
      <trkpt lat="43.60696" lon="1.45044">
        <ele>149.14</ele>
        <time>2026-05-26T10:55:30Z</time>
      </trkpt>
      <trkpt lat="43.60686" lon="1.45024">
        <ele>149.14</ele>
        <time>2026-05-26T10:55:45Z</time>
      </trkpt>
      <trkpt lat="43.60674" lon="1.45005">
        <ele>149.14</ele>
        <time>2026-05-26T10:55:59Z</time>
      </trkpt>
      <trkpt lat="43.60666" lon="1.44994">
        <ele>148.66</ele>
        <time>2026-05-26T10:56:09Z</time>
      </trkpt>
      <trkpt lat="43.60651" lon="1.44972">
        <ele>148.66</ele>
        <time>2026-05-26T10:56:26Z</time>
      </trkpt>
      <trkpt lat="43.60636" lon="1.44953">
        <ele>148.66</ele>
        <time>2026-05-26T10:56:42Z</time>
      </trkpt>
      <trkpt lat="43.60621" lon="1.44936">
        <ele>148.66</ele>
        <time>2026-05-26T10:56:57Z</time>
      </trkpt>
      <trkpt lat="43.60607" lon="1.44924">
        <ele>148.18</ele>
        <time>2026-05-26T10:57:12Z</time>
      </trkpt>
      <trkpt lat="43.60601" lon="1.44928">
        <ele>149.62</ele>
        <time>2026-05-26T10:57:31Z</time>
      </trkpt>
      <trkpt lat="43.60596" lon="1.44917">
        <ele>150.1</ele>
        <time>2026-05-26T10:57:43Z</time>
      </trkpt>
      <trkpt lat="43.60584" lon="1.44899">
        <ele>148.66</ele>
        <time>2026-05-26T10:57:57Z</time>
      </trkpt>
      <trkpt lat="43.6058" lon="1.44893">
        <ele>148.66</ele>
        <time>2026-05-26T10:58:03Z</time>
      </trkpt>
      <trkpt lat="43.60578" lon="1.4489">
        <ele>148.66</ele>
        <time>2026-05-26T10:58:06Z</time>
      </trkpt>
      <trkpt lat="43.60574" lon="1.44893">
        <ele>149.62</ele>
        <time>2026-05-26T10:58:10Z</time>
      </trkpt>
      <trkpt lat="43.60568" lon="1.44898">
        <ele>149.62</ele>
        <time>2026-05-26T10:58:18Z</time>
      </trkpt>
      <trkpt lat="43.60565" lon="1.44899">
        <ele>149.62</ele>
        <time>2026-05-26T10:58:21Z</time>
      </trkpt>
      <trkpt lat="43.60552" lon="1.44874">
        <ele>148.18</ele>
        <time>2026-05-26T10:58:39Z</time>
      </trkpt>
      <trkpt lat="43.60543" lon="1.44851">
        <ele>148.18</ele>
        <time>2026-05-26T10:58:56Z</time>
      </trkpt>
      <trkpt lat="43.60544" lon="1.44838">
        <ele>148.18</ele>
        <time>2026-05-26T10:59:05Z</time>
      </trkpt>
      <trkpt lat="43.60543" lon="1.44833">
        <ele>149.62</ele>
        <time>2026-05-26T10:59:08Z</time>
      </trkpt>
      <trkpt lat="43.60534" lon="1.44813">
        <ele>149.14</ele>
        <time>2026-05-26T10:59:24Z</time>
      </trkpt>
      <trkpt lat="43.60522" lon="1.44791">
        <ele>148.18</ele>
        <time>2026-05-26T10:59:42Z</time>
      </trkpt>
      <trkpt lat="43.60505" lon="1.44767">
        <ele>148.18</ele>
        <time>2026-05-26T10:59:58Z</time>
      </trkpt>
      <trkpt lat="43.60491" lon="1.44751">
        <ele>148.18</ele>
        <time>2026-05-26T11:00:14Z</time>
      </trkpt>
      <trkpt lat="43.60483" lon="1.44744">
        <ele>149.14</ele>
        <time>2026-05-26T11:00:23Z</time>
      </trkpt>
      <trkpt lat="43.6048" lon="1.44741">
        <ele>149.14</ele>
        <time>2026-05-26T11:00:36Z</time>
      </trkpt>
      <trkpt lat="43.60479" lon="1.44739">
        <ele>149.62</ele>
        <time>2026-05-26T11:00:56Z</time>
      </trkpt>
      <trkpt lat="43.60479" lon="1.44739">
        <ele>149.62</ele>
        <time>2026-05-26T11:01:23Z</time>
      </trkpt>
      <trkpt lat="43.60476" lon="1.44737">
        <ele>149.62</ele>
        <time>2026-05-26T11:01:48Z</time>
      </trkpt>
      <trkpt lat="43.60476" lon="1.44739">
        <ele>149.62</ele>
        <time>2026-05-26T11:02:04Z</time>
      </trkpt>
      <trkpt lat="43.60477" lon="1.4474">
        <ele>149.62</ele>
        <time>2026-05-26T11:02:19Z</time>
      </trkpt>
      <trkpt lat="43.60477" lon="1.44739">
        <ele>149.62</ele>
        <time>2026-05-26T11:02:50Z</time>
      </trkpt>
      <trkpt lat="43.60482" lon="1.44744">
        <ele>149.14</ele>
        <time>2026-05-26T11:03:14Z</time>
      </trkpt>
      <trkpt lat="43.60479" lon="1.44743">
        <ele>149.62</ele>
        <time>2026-05-26T11:03:46Z</time>
      </trkpt>
      <trkpt lat="43.60481" lon="1.44739">
        <ele>148.66</ele>
        <time>2026-05-26T11:04:13Z</time>
      </trkpt>
      <trkpt lat="43.60489" lon="1.44728">
        <ele>148.18</ele>
        <time>2026-05-26T11:04:31Z</time>
      </trkpt>
      <trkpt lat="43.60481" lon="1.44714">
        <ele>148.18</ele>
        <time>2026-05-26T11:04:44Z</time>
      </trkpt>
      <trkpt lat="43.60489" lon="1.44699">
        <ele>148.18</ele>
        <time>2026-05-26T11:05:01Z</time>
      </trkpt>
      <trkpt lat="43.60489" lon="1.44694">
        <ele>148.18</ele>
        <time>2026-05-26T11:05:04Z</time>
      </trkpt>
      <trkpt lat="43.6049" lon="1.44668">
        <ele>147.7</ele>
        <time>2026-05-26T11:05:21Z</time>
      </trkpt>
      <trkpt lat="43.60488" lon="1.44636">
        <ele>147.22</ele>
        <time>2026-05-26T11:05:38Z</time>
      </trkpt>
      <trkpt lat="43.60488" lon="1.44597">
        <ele>146.74</ele>
        <time>2026-05-26T11:05:59Z</time>
      </trkpt>
      <trkpt lat="43.60488" lon="1.44576">
        <ele>146.26</ele>
        <time>2026-05-26T11:06:13Z</time>
      </trkpt>
      <trkpt lat="43.605" lon="1.44555">
        <ele>146.26</ele>
        <time>2026-05-26T11:06:29Z</time>
      </trkpt>
      <trkpt lat="43.605" lon="1.44549">
        <ele>146.26</ele>
        <time>2026-05-26T11:06:33Z</time>
      </trkpt>
      <trkpt lat="43.605" lon="1.44522">
        <ele>146.74</ele>
        <time>2026-05-26T11:06:48Z</time>
      </trkpt>
      <trkpt lat="43.60496" lon="1.44496">
        <ele>146.74</ele>
        <time>2026-05-26T11:07:02Z</time>
      </trkpt>
      <trkpt lat="43.60496" lon="1.44489">
        <ele>146.74</ele>
        <time>2026-05-26T11:07:05Z</time>
      </trkpt>
      <trkpt lat="43.60501" lon="1.44477">
        <ele>146.74</ele>
        <time>2026-05-26T11:07:12Z</time>
      </trkpt>
      <trkpt lat="43.60494" lon="1.44455">
        <ele>146.74</ele>
        <time>2026-05-26T11:07:23Z</time>
      </trkpt>
      <trkpt lat="43.60496" lon="1.44434">
        <ele>147.22</ele>
        <time>2026-05-26T11:07:35Z</time>
      </trkpt>
      <trkpt lat="43.60497" lon="1.44397">
        <ele>147.22</ele>
        <time>2026-05-26T11:07:55Z</time>
      </trkpt>
      <trkpt lat="43.60495" lon="1.44376">
        <ele>147.22</ele>
        <time>2026-05-26T11:08:10Z</time>
      </trkpt>
      <trkpt lat="43.60494" lon="1.44373">
        <ele>147.22</ele>
        <time>2026-05-26T11:08:13Z</time>
      </trkpt>
      <trkpt lat="43.60487" lon="1.44331">
        <ele>147.22</ele>
        <time>2026-05-26T11:08:35Z</time>
      </trkpt>
      <trkpt lat="43.60484" lon="1.443">
        <ele>147.22</ele>
        <time>2026-05-26T11:08:52Z</time>
      </trkpt>
      <trkpt lat="43.60468" lon="1.44293">
        <ele>147.7</ele>
        <time>2026-05-26T11:09:06Z</time>
      </trkpt>
      <trkpt lat="43.60472" lon="1.44285">
        <ele>147.22</ele>
        <time>2026-05-26T11:09:35Z</time>
      </trkpt>
      <trkpt lat="43.60474" lon="1.4428">
        <ele>147.22</ele>
        <time>2026-05-26T11:09:38Z</time>
      </trkpt>
      <trkpt lat="43.60475" lon="1.44269">
        <ele>147.22</ele>
        <time>2026-05-26T11:09:44Z</time>
      </trkpt>
      <trkpt lat="43.60473" lon="1.44239">
        <ele>147.7</ele>
        <time>2026-05-26T11:10:00Z</time>
      </trkpt>
      <trkpt lat="43.60476" lon="1.44218">
        <ele>147.7</ele>
        <time>2026-05-26T11:10:11Z</time>
      </trkpt>
      <trkpt lat="43.60477" lon="1.44189">
        <ele>147.7</ele>
        <time>2026-05-26T11:10:28Z</time>
      </trkpt>
      <trkpt lat="43.60475" lon="1.44169">
        <ele>146.26</ele>
        <time>2026-05-26T11:10:40Z</time>
      </trkpt>
      <trkpt lat="43.60469" lon="1.44129">
        <ele>145.78</ele>
        <time>2026-05-26T11:11:03Z</time>
      </trkpt>
      <trkpt lat="43.60473" lon="1.44114">
        <ele>147.22</ele>
        <time>2026-05-26T11:11:12Z</time>
      </trkpt>
      <trkpt lat="43.60491" lon="1.44083">
        <ele>147.22</ele>
        <time>2026-05-26T11:11:34Z</time>
      </trkpt>
      <trkpt lat="43.60499" lon="1.44061">
        <ele>147.22</ele>
        <time>2026-05-26T11:11:47Z</time>
      </trkpt>
      <trkpt lat="43.60502" lon="1.44058">
        <ele>147.22</ele>
        <time>2026-05-26T11:11:49Z</time>
      </trkpt>
      <trkpt lat="43.60503" lon="1.44055">
        <ele>145.78</ele>
        <time>2026-05-26T11:11:51Z</time>
      </trkpt>
      <trkpt lat="43.60511" lon="1.44039">
        <ele>145.3</ele>
        <time>2026-05-26T11:12:03Z</time>
      </trkpt>
      <trkpt lat="43.60511" lon="1.44035">
        <ele>145.3</ele>
        <time>2026-05-26T11:12:05Z</time>
      </trkpt>
      <trkpt lat="43.60517" lon="1.44025">
        <ele>145.3</ele>
        <time>2026-05-26T11:12:12Z</time>
      </trkpt>
      <trkpt lat="43.60545" lon="1.4401">
        <ele>146.74</ele>
        <time>2026-05-26T11:12:33Z</time>
      </trkpt>
      <trkpt lat="43.6056" lon="1.4398">
        <ele>146.74</ele>
        <time>2026-05-26T11:12:53Z</time>
      </trkpt>
      <trkpt lat="43.60559" lon="1.43965">
        <ele>146.74</ele>
        <time>2026-05-26T11:13:00Z</time>
      </trkpt>
      <trkpt lat="43.60562" lon="1.43952">
        <ele>146.74</ele>
        <time>2026-05-26T11:13:09Z</time>
      </trkpt>
      <trkpt lat="43.60568" lon="1.43941">
        <ele>146.74</ele>
        <time>2026-05-26T11:13:17Z</time>
      </trkpt>
      <trkpt lat="43.6058" lon="1.43933">
        <ele>146.74</ele>
        <time>2026-05-26T11:13:29Z</time>
      </trkpt>
      <trkpt lat="43.60598" lon="1.43911">
        <ele>146.74</ele>
        <time>2026-05-26T11:13:48Z</time>
      </trkpt>
      <trkpt lat="43.60604" lon="1.43894">
        <ele>146.74</ele>
        <time>2026-05-26T11:14:00Z</time>
      </trkpt>
      <trkpt lat="43.60603" lon="1.4389">
        <ele>146.74</ele>
        <time>2026-05-26T11:14:02Z</time>
      </trkpt>
      <trkpt lat="43.60597" lon="1.43865">
        <ele>146.74</ele>
        <time>2026-05-26T11:14:15Z</time>
      </trkpt>
      <trkpt lat="43.60593" lon="1.43841">
        <ele>146.26</ele>
        <time>2026-05-26T11:14:32Z</time>
      </trkpt>
      <trkpt lat="43.60579" lon="1.43806">
        <ele>146.26</ele>
        <time>2026-05-26T11:14:55Z</time>
      </trkpt>
      <trkpt lat="43.60568" lon="1.43782">
        <ele>146.26</ele>
        <time>2026-05-26T11:15:14Z</time>
      </trkpt>
      <trkpt lat="43.60555" lon="1.43764">
        <ele>146.74</ele>
        <time>2026-05-26T11:15:31Z</time>
      </trkpt>
      <trkpt lat="43.60554" lon="1.43761">
        <ele>146.74</ele>
        <time>2026-05-26T11:15:33Z</time>
      </trkpt>
      <trkpt lat="43.6054" lon="1.43739">
        <ele>146.74</ele>
        <time>2026-05-26T11:15:52Z</time>
      </trkpt>
      <trkpt lat="43.60531" lon="1.43727">
        <ele>146.74</ele>
        <time>2026-05-26T11:16:08Z</time>
      </trkpt>
      <trkpt lat="43.60531" lon="1.43722">
        <ele>145.3</ele>
        <time>2026-05-26T11:16:11Z</time>
      </trkpt>
      <trkpt lat="43.60532" lon="1.43695">
        <ele>145.3</ele>
        <time>2026-05-26T11:16:29Z</time>
      </trkpt>
      <trkpt lat="43.60542" lon="1.43665">
        <ele>145.3</ele>
        <time>2026-05-26T11:16:48Z</time>
      </trkpt>
      <trkpt lat="43.60542" lon="1.43634">
        <ele>145.78</ele>
        <time>2026-05-26T11:17:07Z</time>
      </trkpt>
      <trkpt lat="43.6053" lon="1.43612">
        <ele>146.74</ele>
        <time>2026-05-26T11:17:24Z</time>
      </trkpt>
      <trkpt lat="43.60512" lon="1.43584">
        <ele>147.22</ele>
        <time>2026-05-26T11:17:47Z</time>
      </trkpt>
      <trkpt lat="43.60507" lon="1.43577">
        <ele>147.22</ele>
        <time>2026-05-26T11:17:53Z</time>
      </trkpt>
      <trkpt lat="43.6049" lon="1.43553">
        <ele>147.22</ele>
        <time>2026-05-26T11:18:12Z</time>
      </trkpt>
      <trkpt lat="43.60477" lon="1.43541">
        <ele>147.22</ele>
        <time>2026-05-26T11:18:25Z</time>
      </trkpt>
      <trkpt lat="43.60473" lon="1.43525">
        <ele>145.78</ele>
        <time>2026-05-26T11:18:41Z</time>
      </trkpt>
      <trkpt lat="43.60471" lon="1.43519">
        <ele>145.3</ele>
        <time>2026-05-26T11:18:48Z</time>
      </trkpt>
      <trkpt lat="43.60468" lon="1.4351">
        <ele>145.3</ele>
        <time>2026-05-26T11:18:52Z</time>
      </trkpt>
      <trkpt lat="43.60466" lon="1.43502">
        <ele>144.82</ele>
        <time>2026-05-26T11:18:56Z</time>
      </trkpt>
      <trkpt lat="43.60467" lon="1.43479">
        <ele>144.34</ele>
        <time>2026-05-26T11:19:11Z</time>
      </trkpt>
      <trkpt lat="43.60471" lon="1.4347">
        <ele>144.34</ele>
        <time>2026-05-26T11:19:20Z</time>
      </trkpt>
      <trkpt lat="43.60493" lon="1.43467">
        <ele>144.34</ele>
        <time>2026-05-26T11:19:41Z</time>
      </trkpt>
      <trkpt lat="43.60503" lon="1.43463">
        <ele>144.34</ele>
        <time>2026-05-26T11:20:00Z</time>
      </trkpt>
      <trkpt lat="43.6052" lon="1.43447">
        <ele>144.34</ele>
        <time>2026-05-26T11:20:17Z</time>
      </trkpt>
      <trkpt lat="43.60522" lon="1.43444">
        <ele>144.34</ele>
        <time>2026-05-26T11:20:19Z</time>
      </trkpt>
      <trkpt lat="43.6054" lon="1.43413">
        <ele>143.85</ele>
        <time>2026-05-26T11:20:38Z</time>
      </trkpt>
      <trkpt lat="43.60541" lon="1.43406">
        <ele>143.85</ele>
        <time>2026-05-26T11:20:43Z</time>
      </trkpt>
      <trkpt lat="43.60558" lon="1.43373">
        <ele>143.85</ele>
        <time>2026-05-26T11:21:07Z</time>
      </trkpt>
      <trkpt lat="43.60559" lon="1.43379">
        <ele>143.85</ele>
        <time>2026-05-26T11:21:22Z</time>
      </trkpt>
      <trkpt lat="43.60564" lon="1.43376">
        <ele>143.85</ele>
        <time>2026-05-26T11:21:39Z</time>
      </trkpt>
      <trkpt lat="43.60571" lon="1.43372">
        <ele>144.82</ele>
        <time>2026-05-26T11:22:06Z</time>
      </trkpt>
      <trkpt lat="43.60573" lon="1.43373">
        <ele>144.82</ele>
        <time>2026-05-26T11:22:38Z</time>
      </trkpt>
      <trkpt lat="43.60574" lon="1.43374">
        <ele>145.3</ele>
        <time>2026-05-26T11:23:09Z</time>
      </trkpt>
      <trkpt lat="43.60562" lon="1.43373">
        <ele>145.3</ele>
        <time>2026-05-26T11:23:38Z</time>
      </trkpt>
      <trkpt lat="43.60563" lon="1.43376">
        <ele>144.34</ele>
        <time>2026-05-26T11:24:02Z</time>
      </trkpt>
      <trkpt lat="43.60563" lon="1.43376">
        <ele>144.34</ele>
        <time>2026-05-26T11:24:25Z</time>
      </trkpt>
      <trkpt lat="43.60556" lon="1.43377">
        <ele>144.34</ele>
        <time>2026-05-26T11:24:50Z</time>
      </trkpt>
      <trkpt lat="43.60563" lon="1.43375">
        <ele>144.34</ele>
        <time>2026-05-26T11:25:17Z</time>
      </trkpt>
      <trkpt lat="43.60563" lon="1.43373">
        <ele>145.78</ele>
        <time>2026-05-26T11:25:52Z</time>
      </trkpt>
      <trkpt lat="43.60567" lon="1.43371">
        <ele>145.78</ele>
        <time>2026-05-26T11:26:23Z</time>
      </trkpt>
      <trkpt lat="43.60552" lon="1.43346">
        <ele>145.78</ele>
        <time>2026-05-26T11:26:51Z</time>
      </trkpt>
      <trkpt lat="43.60552" lon="1.43355">
        <ele>145.78</ele>
        <time>2026-05-26T11:27:13Z</time>
      </trkpt>
      <trkpt lat="43.60551" lon="1.43352">
        <ele>142.89</ele>
        <time>2026-05-26T11:27:25Z</time>
      </trkpt>
      <trkpt lat="43.60554" lon="1.43342">
        <ele>141.93</ele>
        <time>2026-05-26T11:27:40Z</time>
      </trkpt>
      <trkpt lat="43.60571" lon="1.43314">
        <ele>141.45</ele>
        <time>2026-05-26T11:28:01Z</time>
      </trkpt>
      <trkpt lat="43.60572" lon="1.4331">
        <ele>141.45</ele>
        <time>2026-05-26T11:28:03Z</time>
      </trkpt>
      <trkpt lat="43.60578" lon="1.43277">
        <ele>141.45</ele>
        <time>2026-05-26T11:28:23Z</time>
      </trkpt>
      <trkpt lat="43.60592" lon="1.43241">
        <ele>141.45</ele>
        <time>2026-05-26T11:28:46Z</time>
      </trkpt>
      <trkpt lat="43.60605" lon="1.43208">
        <ele>140.97</ele>
        <time>2026-05-26T11:29:09Z</time>
      </trkpt>
      <trkpt lat="43.60616" lon="1.43177">
        <ele>140.97</ele>
        <time>2026-05-26T11:29:30Z</time>
      </trkpt>
      <trkpt lat="43.60621" lon="1.43159">
        <ele>140.97</ele>
        <time>2026-05-26T11:29:39Z</time>
      </trkpt>
      <trkpt lat="43.60633" lon="1.43125">
        <ele>141.45</ele>
        <time>2026-05-26T11:30:02Z</time>
      </trkpt>
      <trkpt lat="43.60645" lon="1.43094">
        <ele>141.45</ele>
        <time>2026-05-26T11:30:22Z</time>
      </trkpt>
      <trkpt lat="43.60654" lon="1.43055">
        <ele>141.45</ele>
        <time>2026-05-26T11:30:43Z</time>
      </trkpt>
      <trkpt lat="43.6066" lon="1.43025">
        <ele>140.97</ele>
        <time>2026-05-26T11:31:03Z</time>
      </trkpt>
      <trkpt lat="43.60675" lon="1.42999">
        <ele>142.41</ele>
        <time>2026-05-26T11:31:23Z</time>
      </trkpt>
      <trkpt lat="43.60688" lon="1.42968">
        <ele>142.41</ele>
        <time>2026-05-26T11:31:43Z</time>
      </trkpt>
      <trkpt lat="43.60697" lon="1.42946">
        <ele>142.89</ele>
        <time>2026-05-26T11:31:59Z</time>
      </trkpt>
      <trkpt lat="43.60706" lon="1.42914">
        <ele>143.37</ele>
        <time>2026-05-26T11:32:18Z</time>
      </trkpt>
      <trkpt lat="43.60708" lon="1.42909">
        <ele>143.37</ele>
        <time>2026-05-26T11:32:21Z</time>
      </trkpt>
      <trkpt lat="43.60722" lon="1.42863">
        <ele>142.41</ele>
        <time>2026-05-26T11:32:43Z</time>
      </trkpt>
      <trkpt lat="43.60731" lon="1.4284">
        <ele>141.93</ele>
        <time>2026-05-26T11:32:56Z</time>
      </trkpt>
      <trkpt lat="43.60733" lon="1.42838">
        <ele>141.93</ele>
        <time>2026-05-26T11:33:05Z</time>
      </trkpt>
      <trkpt lat="43.60743" lon="1.42796">
        <ele>141.93</ele>
        <time>2026-05-26T11:33:27Z</time>
      </trkpt>
      <trkpt lat="43.60757" lon="1.42769">
        <ele>143.37</ele>
        <time>2026-05-26T11:33:46Z</time>
      </trkpt>
      <trkpt lat="43.60771" lon="1.42738">
        <ele>143.37</ele>
        <time>2026-05-26T11:34:08Z</time>
      </trkpt>
      <trkpt lat="43.60784" lon="1.42705">
        <ele>143.37</ele>
        <time>2026-05-26T11:34:29Z</time>
      </trkpt>
      <trkpt lat="43.60791" lon="1.4268">
        <ele>143.37</ele>
        <time>2026-05-26T11:34:48Z</time>
      </trkpt>
      <trkpt lat="43.60804" lon="1.42646">
        <ele>143.37</ele>
        <time>2026-05-26T11:35:08Z</time>
      </trkpt>
      <trkpt lat="43.60819" lon="1.42614">
        <ele>143.85</ele>
        <time>2026-05-26T11:35:28Z</time>
      </trkpt>
      <trkpt lat="43.6083" lon="1.42581">
        <ele>143.85</ele>
        <time>2026-05-26T11:35:45Z</time>
      </trkpt>
      <trkpt lat="43.60837" lon="1.42551">
        <ele>143.85</ele>
        <time>2026-05-26T11:36:04Z</time>
      </trkpt>
      <trkpt lat="43.60846" lon="1.42528">
        <ele>144.34</ele>
        <time>2026-05-26T11:36:21Z</time>
      </trkpt>
      <trkpt lat="43.6086" lon="1.42493">
        <ele>144.34</ele>
        <time>2026-05-26T11:36:41Z</time>
      </trkpt>
      <trkpt lat="43.60867" lon="1.42472">
        <ele>144.34</ele>
        <time>2026-05-26T11:36:58Z</time>
      </trkpt>
      <trkpt lat="43.60877" lon="1.42442">
        <ele>144.34</ele>
        <time>2026-05-26T11:37:18Z</time>
      </trkpt>
      <trkpt lat="43.60883" lon="1.42411">
        <ele>144.34</ele>
        <time>2026-05-26T11:37:39Z</time>
      </trkpt>
      <trkpt lat="43.60884" lon="1.42405">
        <ele>144.34</ele>
        <time>2026-05-26T11:37:41Z</time>
      </trkpt>
      <trkpt lat="43.60902" lon="1.42376">
        <ele>144.34</ele>
        <time>2026-05-26T11:38:00Z</time>
      </trkpt>
      <trkpt lat="43.60912" lon="1.42343">
        <ele>144.34</ele>
        <time>2026-05-26T11:38:20Z</time>
      </trkpt>
      <trkpt lat="43.60923" lon="1.42315">
        <ele>144.34</ele>
        <time>2026-05-26T11:38:39Z</time>
      </trkpt>
      <trkpt lat="43.60937" lon="1.42283">
        <ele>144.82</ele>
        <time>2026-05-26T11:38:58Z</time>
      </trkpt>
      <trkpt lat="43.60947" lon="1.42253">
        <ele>144.82</ele>
        <time>2026-05-26T11:39:15Z</time>
      </trkpt>
      <trkpt lat="43.6096" lon="1.42219">
        <ele>145.3</ele>
        <time>2026-05-26T11:39:35Z</time>
      </trkpt>
      <trkpt lat="43.60971" lon="1.4218">
        <ele>145.3</ele>
        <time>2026-05-26T11:39:57Z</time>
      </trkpt>
      <trkpt lat="43.60982" lon="1.42148">
        <ele>145.3</ele>
        <time>2026-05-26T11:40:15Z</time>
      </trkpt>
      <trkpt lat="43.60991" lon="1.4212">
        <ele>145.3</ele>
        <time>2026-05-26T11:40:32Z</time>
      </trkpt>
      <trkpt lat="43.61003" lon="1.42089">
        <ele>145.3</ele>
        <time>2026-05-26T11:40:52Z</time>
      </trkpt>
      <trkpt lat="43.61015" lon="1.42053">
        <ele>144.82</ele>
        <time>2026-05-26T11:41:13Z</time>
      </trkpt>
      <trkpt lat="43.61031" lon="1.42018">
        <ele>144.82</ele>
        <time>2026-05-26T11:41:33Z</time>
      </trkpt>
      <trkpt lat="43.61042" lon="1.41993">
        <ele>144.82</ele>
        <time>2026-05-26T11:41:52Z</time>
      </trkpt>
      <trkpt lat="43.61046" lon="1.41977">
        <ele>145.3</ele>
        <time>2026-05-26T11:42:02Z</time>
      </trkpt>
      <trkpt lat="43.6106" lon="1.41949">
        <ele>146.26</ele>
        <time>2026-05-26T11:42:22Z</time>
      </trkpt>
      <trkpt lat="43.61064" lon="1.41928">
        <ele>146.26</ele>
        <time>2026-05-26T11:42:38Z</time>
      </trkpt>
      <trkpt lat="43.6106" lon="1.41948">
        <ele>146.74</ele>
        <time>2026-05-26T11:42:57Z</time>
      </trkpt>
      <trkpt lat="43.61069" lon="1.41942">
        <ele>146.74</ele>
        <time>2026-05-26T11:43:16Z</time>
      </trkpt>
      <trkpt lat="43.61064" lon="1.41942">
        <ele>146.74</ele>
        <time>2026-05-26T11:43:26Z</time>
      </trkpt>
      <trkpt lat="43.61047" lon="1.41915">
        <ele>147.22</ele>
        <time>2026-05-26T11:43:56Z</time>
      </trkpt>
      <trkpt lat="43.61046" lon="1.41922">
        <ele>147.22</ele>
        <time>2026-05-26T11:44:18Z</time>
      </trkpt>
      <trkpt lat="43.61054" lon="1.41931">
        <ele>147.22</ele>
        <time>2026-05-26T11:44:42Z</time>
      </trkpt>
      <trkpt lat="43.61062" lon="1.41942">
        <ele>147.22</ele>
        <time>2026-05-26T11:45:04Z</time>
      </trkpt>
      <trkpt lat="43.61064" lon="1.41933">
        <ele>147.22</ele>
        <time>2026-05-26T11:45:30Z</time>
      </trkpt>
      <trkpt lat="43.61074" lon="1.41928">
        <ele>147.22</ele>
        <time>2026-05-26T11:45:53Z</time>
      </trkpt>
      <trkpt lat="43.61082" lon="1.41924">
        <ele>147.22</ele>
        <time>2026-05-26T11:46:02Z</time>
      </trkpt>
      <trkpt lat="43.61087" lon="1.41921">
        <ele>147.22</ele>
        <time>2026-05-26T11:46:12Z</time>
      </trkpt>
      <trkpt lat="43.61087" lon="1.41917">
        <ele>147.22</ele>
        <time>2026-05-26T11:46:15Z</time>
      </trkpt>
      <trkpt lat="43.61083" lon="1.41904">
        <ele>147.22</ele>
        <time>2026-05-26T11:46:23Z</time>
      </trkpt>
      <trkpt lat="43.61083" lon="1.41897">
        <ele>147.7</ele>
        <time>2026-05-26T11:46:27Z</time>
      </trkpt>
      <trkpt lat="43.61087" lon="1.41885">
        <ele>147.22</ele>
        <time>2026-05-26T11:46:38Z</time>
      </trkpt>
      <trkpt lat="43.61099" lon="1.41872">
        <ele>147.22</ele>
        <time>2026-05-26T11:46:52Z</time>
      </trkpt>
      <trkpt lat="43.61121" lon="1.41862">
        <ele>147.7</ele>
        <time>2026-05-26T11:47:10Z</time>
      </trkpt>
      <trkpt lat="43.61123" lon="1.4185">
        <ele>147.7</ele>
        <time>2026-05-26T11:47:19Z</time>
      </trkpt>
      <trkpt lat="43.61126" lon="1.41816">
        <ele>147.7</ele>
        <time>2026-05-26T11:47:37Z</time>
      </trkpt>
      <trkpt lat="43.61127" lon="1.41797">
        <ele>147.22</ele>
        <time>2026-05-26T11:47:49Z</time>
      </trkpt>
      <trkpt lat="43.61118" lon="1.41771">
        <ele>146.26</ele>
        <time>2026-05-26T11:48:06Z</time>
      </trkpt>
      <trkpt lat="43.61115" lon="1.41732">
        <ele>144.34</ele>
        <time>2026-05-26T11:48:26Z</time>
      </trkpt>
      <trkpt lat="43.61103" lon="1.41696">
        <ele>143.37</ele>
        <time>2026-05-26T11:48:45Z</time>
      </trkpt>
      <trkpt lat="43.61088" lon="1.41657">
        <ele>142.41</ele>
        <time>2026-05-26T11:49:07Z</time>
      </trkpt>
      <trkpt lat="43.61078" lon="1.41623">
        <ele>141.93</ele>
        <time>2026-05-26T11:49:27Z</time>
      </trkpt>
      <trkpt lat="43.61071" lon="1.41596">
        <ele>141.45</ele>
        <time>2026-05-26T11:49:43Z</time>
      </trkpt>
      <trkpt lat="43.61065" lon="1.41579">
        <ele>142.41</ele>
        <time>2026-05-26T11:49:54Z</time>
      </trkpt>
      <trkpt lat="43.61051" lon="1.4156">
        <ele>142.41</ele>
        <time>2026-05-26T11:50:09Z</time>
      </trkpt>
      <trkpt lat="43.61046" lon="1.41556">
        <ele>142.41</ele>
        <time>2026-05-26T11:50:14Z</time>
      </trkpt>
      <trkpt lat="43.61042" lon="1.41559">
        <ele>142.41</ele>
        <time>2026-05-26T11:50:32Z</time>
      </trkpt>
      <trkpt lat="43.61044" lon="1.41553">
        <ele>142.41</ele>
        <time>2026-05-26T11:50:46Z</time>
      </trkpt>
      <trkpt lat="43.61039" lon="1.41531">
        <ele>142.89</ele>
        <time>2026-05-26T11:51:00Z</time>
      </trkpt>
      <trkpt lat="43.61032" lon="1.41508">
        <ele>142.89</ele>
        <time>2026-05-26T11:51:16Z</time>
      </trkpt>
      <trkpt lat="43.61041" lon="1.41496">
        <ele>142.89</ele>
        <time>2026-05-26T11:51:31Z</time>
      </trkpt>
      <trkpt lat="43.61071" lon="1.41481">
        <ele>141.45</ele>
        <time>2026-05-26T11:51:52Z</time>
      </trkpt>
      <trkpt lat="43.61095" lon="1.41495">
        <ele>140.49</ele>
        <time>2026-05-26T11:52:10Z</time>
      </trkpt>
      <trkpt lat="43.61104" lon="1.41499">
        <ele>139.53</ele>
        <time>2026-05-26T11:52:17Z</time>
      </trkpt>
      <trkpt lat="43.61137" lon="1.41486">
        <ele>138.57</ele>
        <time>2026-05-26T11:52:46Z</time>
      </trkpt>
      <trkpt lat="43.61133" lon="1.41482">
        <ele>138.57</ele>
        <time>2026-05-26T11:52:55Z</time>
      </trkpt>
      <trkpt lat="43.61141" lon="1.41477">
        <ele>140.97</ele>
        <time>2026-05-26T11:53:09Z</time>
      </trkpt>
      <trkpt lat="43.61142" lon="1.41475">
        <ele>140.97</ele>
        <time>2026-05-26T11:53:11Z</time>
      </trkpt>
      <trkpt lat="43.61154" lon="1.41468">
        <ele>140.97</ele>
        <time>2026-05-26T11:53:27Z</time>
      </trkpt>
      <trkpt lat="43.61158" lon="1.41462">
        <ele>140.97</ele>
        <time>2026-05-26T11:53:44Z</time>
      </trkpt>
      <trkpt lat="43.61159" lon="1.41461">
        <ele>140.97</ele>
        <time>2026-05-26T11:54:08Z</time>
      </trkpt>
      <trkpt lat="43.61164" lon="1.41467">
        <ele>140.97</ele>
        <time>2026-05-26T11:54:24Z</time>
      </trkpt>
      <trkpt lat="43.61166" lon="1.41464">
        <ele>140.97</ele>
        <time>2026-05-26T11:54:30Z</time>
      </trkpt>
      <trkpt lat="43.61169" lon="1.41426">
        <ele>140.97</ele>
        <time>2026-05-26T11:54:50Z</time>
      </trkpt>
      <trkpt lat="43.61172" lon="1.41418">
        <ele>140.97</ele>
        <time>2026-05-26T11:54:55Z</time>
      </trkpt>
      <trkpt lat="43.61188" lon="1.41392">
        <ele>140.97</ele>
        <time>2026-05-26T11:55:15Z</time>
      </trkpt>
      <trkpt lat="43.61195" lon="1.4138">
        <ele>140.97</ele>
        <time>2026-05-26T11:55:22Z</time>
      </trkpt>
      <trkpt lat="43.61211" lon="1.41351">
        <ele>140.97</ele>
        <time>2026-05-26T11:55:43Z</time>
      </trkpt>
      <trkpt lat="43.61228" lon="1.41337">
        <ele>140.01</ele>
        <time>2026-05-26T11:56:02Z</time>
      </trkpt>
      <trkpt lat="43.61251" lon="1.41312">
        <ele>140.49</ele>
        <time>2026-05-26T11:56:21Z</time>
      </trkpt>
      <trkpt lat="43.6127" lon="1.4129">
        <ele>140.97</ele>
        <time>2026-05-26T11:56:41Z</time>
      </trkpt>
      <trkpt lat="43.61296" lon="1.41264">
        <ele>140.97</ele>
        <time>2026-05-26T11:57:05Z</time>
      </trkpt>
      <trkpt lat="43.61305" lon="1.41251">
        <ele>141.45</ele>
        <time>2026-05-26T11:57:27Z</time>
      </trkpt>
      <trkpt lat="43.61326" lon="1.41229">
        <ele>141.93</ele>
        <time>2026-05-26T11:57:49Z</time>
      </trkpt>
      <trkpt lat="43.6135" lon="1.41213">
        <ele>142.41</ele>
        <time>2026-05-26T11:58:07Z</time>
      </trkpt>
      <trkpt lat="43.61371" lon="1.41194">
        <ele>142.41</ele>
        <time>2026-05-26T11:58:27Z</time>
      </trkpt>
      <trkpt lat="43.61382" lon="1.41193">
        <ele>142.41</ele>
        <time>2026-05-26T11:58:34Z</time>
      </trkpt>
      <trkpt lat="43.6139" lon="1.41205">
        <ele>142.89</ele>
        <time>2026-05-26T11:58:43Z</time>
      </trkpt>
      <trkpt lat="43.61394" lon="1.41209">
        <ele>142.89</ele>
        <time>2026-05-26T11:58:47Z</time>
      </trkpt>
      <trkpt lat="43.61401" lon="1.41225">
        <ele>142.89</ele>
        <time>2026-05-26T11:59:06Z</time>
      </trkpt>
      <trkpt lat="43.61401" lon="1.41226">
        <ele>143.85</ele>
        <time>2026-05-26T11:59:16Z</time>
      </trkpt>
      <trkpt lat="43.61402" lon="1.41225">
        <ele>142.41</ele>
        <time>2026-05-26T11:59:19Z</time>
      </trkpt>
    </trkseg>
  </trk>
</gpx>